[[{"header":{"parameterUnit":"m.s-1","parameterCategory":1,"la1":30.6,"la2":29.2853,"lo1":-89.7004,"lo2":-87.6739,"dy":0.0162,"dx":0.0183,"nx":112,"ny":82,"refTime":"2023-07-02T12:00:00:Z","depth":0,"parameterNumber":2,"parameterNumberName":"U-component_of_WINDS"},"data":[0.0,0.0,0.0,0.0,0.0,0.0,0.0,0.0,0.0,0.0,0.0,0.0,0.0,0.0,0.0,0.0,0.0,0.0,0.0,0.0,0.0,0.0,0.0,0.0,0.0,0.0,0.0,0.0,0.0,0.0,0.0,0.0,0.0,0.0,0.0,0.0,0.0,0.0,0.0,0.0,0.0,0.0,0.0,0.0,0.0,0.0,0.0,0.0,0.0,0.0,0.0,0.0,0.0,0.0,0.0,0.0,0.0,0.0,0.0,0.0,0.0,0.0,0.0,0.0,0.0,0.0,0.0,0.0,0.0,0.0,0.0,0.0,0.0,0.0,0.0,0.0,0.0,0.0,0.0,0.0,0.0,0.0,0.0,0.0,0.0,0.0,0.0,0.0,0.0,0.0,0.0,-2.312,-2.7015,-2.9457,-2.9457,-2.8547,-2.6184,-2.1979,0.0,0.0,0.0,0.0,0.0,0.0,0.0,0.0,0.0,0.0,0.0,0.0,0.0,0.0,0.0,0.0,0.0,0.0,0.0,0.0,0.0,0.0,0.0,0.0,0.0,0.0,0.0,0.0,0.0,0.0,0.0,0.0,0.0,0.0,0.0,0.0,0.0,0.0,0.0,0.0,0.0,0.0,0.0,0.0,0.0,0.0,0.0,0.0,0.0,0.0,0.0,0.0,0.0,0.0,0.0,0.0,0.0,0.0,0.0,0.0,0.0,0.0,0.0,0.0,0.0,0.0,0.0,0.0,0.0,0.0,0.0,0.0,0.0,0.0,0.0,0.0,0.0,0.0,0.0,0.0,0.0,0.0,0.0,0.0,0.0,0.0,0.0,0.0,0.0,0.0,0.0,0.0,0.0,0.0,0.0,0.0,0.0,0.0,0.0,0.0,0.0,0.0,0.0,0.0,-2.1392,-2.4842,-2.7315,-2.8742,-2.8742,-2.6563,-2.4634,-2.3264,0.0,0.0,0.0,0.0,0.0,0.0,0.0,0.0,0.0,0.0,0.0,0.0,0.0,0.0,0.0,0.0,0.0,0.0,0.0,0.0,0.0,0.0,0.0,0.0,0.0,0.0,0.0,0.0,0.0,0.0,0.0,0.0,0.0,0.0,0.0,0.0,0.0,0.0,0.0,0.0,0.0,0.0,0.0,0.0,0.0,0.0,0.0,0.0,0.0,0.0,0.0,0.0,0.0,0.0,0.0,0.0,0.0,0.0,0.0,0.0,0.0,0.0,0.0,0.0,0.0,0.0,0.0,0.0,0.0,0.0,0.0,0.0,0.0,0.0,0.0,0.0,0.0,0.0,0.0,0.0,0.0,0.0,0.0,0.0,0.0,0.0,0.0,0.0,0.0,0.0,0.0,0.0,0.0,0.0,0.0,0.0,0.0,0.0,0.0,0.0,0.0,0.0,0.0,-2.17,-2.3427,-2.6753,-2.7935,-2.8461,-2.8393,-2.5994,-2.3994,-2.2824,-2.1227,0.0,0.0,0.0,0.0,0.0,0.0,0.0,0.0,0.0,0.0,0.0,0.0,0.0,0.0,0.0,0.0,0.0,0.0,0.0,0.0,0.0,0.0,0.0,0.0,0.0,0.0,0.0,0.0,0.0,0.0,0.0,0.0,0.0,0.0,0.0,0.0,0.0,0.0,0.0,0.0,0.0,0.0,0.0,0.0,0.0,0.0,0.0,0.0,0.0,0.0,0.0,0.0,0.0,0.0,0.0,0.0,0.0,0.0,0.0,0.0,0.0,0.0,0.0,0.0,0.0,0.0,0.0,0.0,0.0,0.0,0.0,0.0,0.0,0.0,0.0,0.0,0.0,0.0,0.0,0.0,0.0,0.0,0.0,0.0,0.0,0.0,0.0,0.0,0.0,0.0,0.0,0.0,0.0,0.0,0.0,0.0,0.0,0.0,0.0,0.0,0.0,0.0,-2.3337,-2.4858,-2.742,-2.7951,-2.8017,-2.775,-2.539,-2.3454,-2.2433,-2.0552,0.0,0.0,0.0,0.0,0.0,0.0,0.0,0.0,0.0,0.0,0.0,0.0,0.0,0.0,0.0,0.0,0.0,0.0,0.0,0.0,0.0,0.0,0.0,0.0,0.0,0.0,0.0,0.0,0.0,0.0,0.0,0.0,0.0,0.0,0.0,0.0,0.0,0.0,0.0,0.0,0.0,0.0,0.0,0.0,0.0,0.0,0.0,0.0,0.0,0.0,0.0,0.0,0.0,0.0,0.0,0.0,0.0,0.0,0.0,0.0,0.0,0.0,0.0,0.0,0.0,0.0,0.0,0.0,0.0,0.0,0.0,0.0,0.0,0.0,0.0,0.0,0.0,0.0,0.0,0.0,0.0,0.0,0.0,0.0,0.0,0.0,0.0,0.0,0.0,0.0,0.0,0.0,0.0,0.0,0.0,0.0,0.0,0.0,0.0,0.0,0.0,0.0,-2.3228,-2.4543,-2.5506,-2.6618,-2.703,-2.64,-2.3953,-2.2651,-2.3078,-2.1136,0.0,0.0,0.0,0.0,0.0,0.0,0.0,0.0,0.0,0.0,0.0,0.0,0.0,0.0,0.0,0.0,0.0,0.0,0.0,0.0,0.0,0.0,0.0,0.0,0.0,0.0,0.0,0.0,0.0,0.0,0.0,0.0,0.0,0.0,0.0,0.0,0.0,0.0,0.0,0.0,0.0,0.0,0.0,0.0,0.0,0.0,0.0,0.0,0.0,0.0,0.0,0.0,0.0,0.0,0.0,0.0,0.0,0.0,0.0,0.0,0.0,0.0,0.0,0.0,0.0,0.0,0.0,0.0,0.0,0.0,0.0,0.0,0.0,0.0,0.0,0.0,0.0,0.0,0.0,0.0,0.0,0.0,0.0,0.0,0.0,0.0,0.0,0.0,0.0,0.0,0.0,0.0,0.0,0.0,0.0,0.0,0.0,0.0,0.0,0.0,0.0,0.0,-2.3294,-2.3827,0.0,-2.5629,-2.5424,-2.425,-2.2922,-2.2191,-2.2251,0.0,0.0,0.0,0.0,0.0,0.0,0.0,0.0,0.0,0.0,0.0,0.0,0.0,0.0,0.0,0.0,0.0,0.0,0.0,0.0,0.0,0.0,0.0,0.0,0.0,0.0,0.0,0.0,0.0,0.0,0.0,0.0,0.0,0.0,0.0,0.0,0.0,0.0,0.0,0.0,0.0,0.0,0.0,0.0,0.0,0.0,0.0,0.0,0.0,0.0,0.0,0.0,0.0,0.0,0.0,0.0,0.0,0.0,0.0,0.0,0.0,0.0,0.0,0.0,0.0,0.0,0.0,0.0,0.0,0.0,0.0,0.0,0.0,0.0,0.0,0.0,0.0,0.0,0.0,0.0,0.0,0.0,0.0,0.0,0.0,0.0,0.0,0.0,0.0,0.0,0.0,0.0,0.0,0.0,0.0,0.0,0.0,0.0,0.0,0.0,0.0,0.0,-2.3625,-2.3469,-2.3635,0.0,-2.5058,-2.4548,-2.3325,-2.1952,-2.1291,-2.1629,0.0,0.0,0.0,0.0,0.0,0.0,0.0,0.0,0.0,0.0,0.0,0.0,0.0,0.0,0.0,0.0,0.0,0.0,0.0,0.0,0.0,0.0,0.0,0.0,0.0,0.0,0.0,0.0,0.0,0.0,0.0,0.0,0.0,0.0,0.0,0.0,0.0,0.0,0.0,0.0,0.0,0.0,0.0,0.0,0.0,0.0,0.0,0.0,0.0,0.0,0.0,0.0,0.0,0.0,0.0,0.0,0.0,0.0,0.0,0.0,0.0,0.0,0.0,0.0,0.0,0.0,0.0,0.0,0.0,0.0,0.0,0.0,0.0,0.0,0.0,0.0,0.0,0.0,0.0,0.0,0.0,0.0,0.0,0.0,0.0,0.0,0.0,0.0,0.0,0.0,0.0,0.0,0.0,0.0,0.0,0.0,0.0,0.0,0.0,0.0,0.0,0.0,-2.312,-2.3655,-2.4156,-2.4907,-2.4922,-2.4588,-2.3905,-2.0944,-1.9788,0.0,0.0,0.0,0.0,0.0,0.0,0.0,0.0,0.0,0.0,0.0,0.0,0.0,0.0,0.0,0.0,0.0,0.0,0.0,0.0,0.0,0.0,0.0,0.0,0.0,0.0,0.0,0.0,0.0,0.0,0.0,0.0,0.0,0.0,0.0,0.0,0.0,0.0,0.0,0.0,0.0,0.0,0.0,0.0,0.0,0.0,0.0,0.0,0.0,0.0,0.0,0.0,0.0,0.0,0.0,0.0,0.0,0.0,0.0,0.0,0.0,0.0,0.0,0.0,0.0,0.0,0.0,0.0,0.0,0.0,0.0,0.0,0.0,0.0,0.0,0.0,0.0,0.0,0.0,0.0,0.0,0.0,0.0,0.0,0.0,0.0,0.0,0.0,0.0,0.0,0.0,0.0,0.0,0.0,0.0,0.0,0.0,0.0,0.0,0.0,0.0,0.0,0.0,-2.3575,-2.3059,-2.2802,-2.3449,-2.3514,-2.3041,-2.1946,-2.0596,-2.0314,-2.1503,0.0,0.0,0.0,0.0,0.0,0.0,0.0,0.0,0.0,0.0,0.0,0.0,0.0,0.0,0.0,0.0,0.0,0.0,0.0,0.0,0.0,0.0,0.0,0.0,0.0,0.0,0.0,0.0,0.0,0.0,0.0,0.0,0.0,0.0,0.0,0.0,0.0,0.0,0.0,0.0,0.0,0.0,0.0,0.0,0.0,0.0,0.0,0.0,0.0,0.0,0.0,0.0,0.0,0.0,0.0,0.0,0.0,0.0,0.0,0.0,0.0,0.0,0.0,0.0,0.0,0.0,0.0,0.0,0.0,0.0,0.0,0.0,0.0,0.0,0.0,0.0,0.0,0.0,0.0,0.0,0.0,0.0,0.0,0.0,0.0,0.0,0.0,0.0,0.0,0.0,0.0,0.0,0.0,0.0,0.0,0.0,0.0,0.0,0.0,0.0,0.0,0.0,-2.4117,-2.3183,-2.2693,-2.3554,-2.3192,-2.2584,-2.1808,-2.0277,-1.9812,-2.0928,0.0,0.0,0.0,0.0,0.0,0.0,0.0,0.0,0.0,0.0,0.0,0.0,0.0,0.0,0.0,0.0,0.0,0.0,0.0,0.0,0.0,0.0,0.0,0.0,0.0,0.0,0.0,0.0,0.0,0.0,0.0,0.0,0.0,0.0,0.0,0.0,0.0,0.0,0.0,0.0,0.0,0.0,0.0,0.0,0.0,0.0,0.0,0.0,0.0,0.0,0.0,0.0,0.0,0.0,0.0,0.0,0.0,0.0,0.0,0.0,0.0,0.0,0.0,0.0,0.0,0.0,0.0,0.0,0.0,0.0,0.0,0.0,0.0,0.0,0.0,0.0,0.0,0.0,0.0,0.0,0.0,0.0,0.0,0.0,0.0,0.0,0.0,0.0,0.0,0.0,0.0,0.0,0.0,0.0,0.0,0.0,0.0,0.0,0.0,0.0,0.0,0.0,-2.4637,-2.3716,-2.3337,-2.4505,-2.3583,-2.2844,-2.2728,-1.9996,-1.8812,-2.004,0.0,0.0,0.0,0.0,0.0,0.0,0.0,0.0,0.0,0.0,0.0,0.0,0.0,0.0,0.0,0.0,0.0,0.0,0.0,0.0,0.0,0.0,0.0,0.0,0.0,0.0,0.0,0.0,0.0,0.0,0.0,0.0,0.0,0.0,0.0,0.0,0.0,0.0,0.0,0.0,0.0,0.0,0.0,0.0,0.0,0.0,0.0,0.0,0.0,0.0,0.0,0.0,0.0,0.0,0.0,0.0,0.0,0.0,0.0,0.0,-2.2075,0.0,0.0,0.0,0.0,0.0,0.0,0.0,0.0,0.0,0.0,0.0,0.0,0.0,0.0,0.0,0.0,0.0,0.0,0.0,0.0,0.0,0.0,0.0,0.0,0.0,0.0,0.0,0.0,0.0,0.0,0.0,0.0,0.0,0.0,0.0,0.0,0.0,0.0,0.0,0.0,0.0,-2.4467,-2.3629,-2.2989,-2.3279,-2.3062,-2.2482,-2.1496,-1.987,-1.9315,-2.0281,0.0,0.0,0.0,0.0,0.0,0.0,0.0,0.0,0.0,0.0,0.0,0.0,0.0,0.0,0.0,0.0,0.0,0.0,0.0,0.0,0.0,0.0,0.0,0.0,0.0,0.0,0.0,0.0,0.0,0.0,0.0,0.0,0.0,0.0,0.0,0.0,0.0,0.0,0.0,0.0,0.0,0.0,0.0,0.0,0.0,0.0,0.0,0.0,0.0,0.0,0.0,0.0,0.0,0.0,0.0,0.0,0.0,0.0,0.0,0.0,0.0,-2.381,0.0,0.0,0.0,0.0,0.0,0.0,0.0,0.0,0.0,0.0,0.0,0.0,0.0,0.0,0.0,0.0,0.0,0.0,0.0,0.0,0.0,0.0,0.0,0.0,0.0,0.0,0.0,0.0,0.0,0.0,0.0,0.0,0.0,0.0,0.0,0.0,0.0,0.0,0.0,0.0,-2.4978,-2.3839,-2.3004,-2.3345,-2.3374,-2.2852,-2.1583,-2.0306,-1.9643,-1.9775,-2.0168,0.0,0.0,0.0,0.0,0.0,0.0,0.0,0.0,0.0,0.0,0.0,0.0,0.0,0.0,0.0,0.0,0.0,0.0,0.0,0.0,0.0,0.0,0.0,0.0,0.0,0.0,0.0,0.0,0.0,0.0,0.0,0.0,0.0,0.0,0.0,0.0,0.0,0.0,0.0,0.0,0.0,0.0,0.0,0.0,0.0,0.0,0.0,0.0,0.0,0.0,0.0,0.0,0.0,0.0,0.0,-3.1841,-3.1501,-3.1279,-3.1038,-2.8761,-2.6576,-2.4715,0.0,0.0,0.0,0.0,0.0,0.0,0.0,0.0,0.0,0.0,0.0,0.0,0.0,0.0,0.0,0.0,0.0,0.0,0.0,0.0,0.0,0.0,0.0,0.0,0.0,-2.5041,-2.4081,0.0,0.0,0.0,0.0,0.0,0.0,0.0,0.0,0.0,0.0,0.0,0.0,-2.5307,-2.4083,-2.3287,-2.3833,-2.3891,-2.3339,-2.1931,-2.077,-1.9812,-1.9145,-1.9709,-2.0083,0.0,0.0,0.0,0.0,0.0,0.0,0.0,0.0,0.0,0.0,0.0,0.0,0.0,0.0,0.0,0.0,0.0,0.0,0.0,0.0,0.0,0.0,0.0,0.0,0.0,0.0,0.0,0.0,0.0,0.0,0.0,0.0,-2.3738,-2.3197,0.0,0.0,0.0,0.0,0.0,0.0,0.0,0.0,0.0,0.0,0.0,0.0,0.0,0.0,-3.3999,-3.4559,-3.4578,-3.4072,-3.6152,-3.6073,-3.4035,-3.5068,-3.4923,-3.3893,-3.391,0.0,-2.836,-2.7082,0.0,0.0,0.0,0.0,0.0,0.0,0.0,0.0,0.0,0.0,0.0,0.0,0.0,0.0,0.0,0.0,0.0,0.0,0.0,0.0,0.0,0.0,-2.518,-2.497,-2.4872,-2.4607,0.0,-2.3817,-2.3983,-2.3664,0.0,0.0,0.0,0.0,0.0,0.0,0.0,0.0,-2.4317,-2.3985,-2.3789,-2.3876,-2.3891,-2.3136,-2.1278,-2.0494,-1.9812,-1.9145,-1.8883,-1.9204,-2.0242,-1.9615,0.0,0.0,0.0,0.0,0.0,0.0,0.0,0.0,0.0,0.0,0.0,0.0,0.0,0.0,0.0,0.0,0.0,0.0,0.0,0.0,0.0,0.0,0.0,0.0,0.0,0.0,0.0,0.0,0.0,-2.4714,-2.5508,-2.4195,-2.5879,-2.66,0.0,0.0,0.0,0.0,0.0,0.0,0.0,0.0,0.0,-3.4106,-3.5192,-3.6074,-3.6783,-3.7704,-3.8206,-3.8271,-3.8952,-3.8884,-3.8159,-3.8014,-3.7636,-3.707,-3.6543,-3.5281,-3.3381,-3.0911,-2.9305,-2.8256,0.0,0.0,0.0,0.0,0.0,0.0,-2.7226,0.0,0.0,0.0,0.0,0.0,0.0,0.0,0.0,0.0,0.0,0.0,0.0,0.0,0.0,-2.7023,-2.7012,-2.6965,-2.6675,-2.615,-2.543,0.0,-2.4209,-2.4859,-2.6657,0.0,0.0,0.0,0.0,0.0,-2.424,-2.4345,-2.4128,-2.3403,-2.3969,-2.3621,-2.1714,-2.0973,-2.0335,-1.9696,-1.8926,-1.8747,-1.9272,-1.9309,-1.9978,0.0,0.0,0.0,0.0,0.0,0.0,0.0,0.0,0.0,0.0,0.0,0.0,0.0,0.0,0.0,0.0,0.0,0.0,0.0,0.0,0.0,0.0,0.0,0.0,0.0,0.0,0.0,0.0,-2.6409,-2.7291,-2.5298,-2.7978,-2.9037,0.0,0.0,0.0,0.0,0.0,0.0,-3.3984,-3.5114,-3.6137,-3.6989,-3.8527,-3.9479,-3.9683,-4.0612,-4.125,-4.157,-4.125,-4.1192,-4.1323,-4.0525,-3.99,-3.9378,-3.8434,-3.7645,-3.6831,-3.3718,-3.1541,-3.011,-2.93,-2.9056,0.0,-2.8921,-2.919,-2.9705,-2.9541,-2.9556,-2.9427,-2.809,0.0,-2.6555,-2.5017,0.0,0.0,0.0,0.0,-2.8145,-2.7985,0.0,-2.9406,-2.9406,-2.9406,-2.9363,-2.9232,-2.8364,-2.7095,0.0,-2.5132,-2.5848,-2.7505,0.0,0.0,0.0,0.0,-2.4048,-2.4451,-2.4677,-2.4462,-2.3482,-2.4099,-2.3867,-2.2149,-2.138,-2.0741,-2.0132,-1.8984,-1.8324,-1.8324,-1.8667,-1.9128,-1.9651,0.0,0.0,0.0,0.0,0.0,0.0,0.0,0.0,0.0,0.0,0.0,0.0,0.0,0.0,0.0,0.0,0.0,0.0,0.0,0.0,0.0,0.0,0.0,0.0,0.0,0.0,0.0,0.0,0.0,-2.6099,-2.9965,0.0,0.0,0.0,0.0,-3.4348,-3.4521,-3.5359,-3.7184,-3.7862,-3.9037,-4.0757,-4.1512,-4.2484,-4.3689,-4.3761,-4.3485,-4.2905,-4.35,-4.3181,-4.2063,-4.2571,-4.1802,-4.0046,-3.9987,-3.8928,-3.7048,-3.3823,-3.2761,-3.296,-3.066,-3.022,-3.0763,-3.0029,-2.9965,-3.0117,-2.9107,-2.8943,-2.9148,-2.8773,-2.859,-2.8486,-2.8066,-2.8226,0.0,0.0,-2.8522,-2.9363,-2.8782,-3.0001,-3.135,-3.135,-3.135,-3.1206,-3.0641,-3.0197,-2.91,0.0,-2.4795,-2.45,-2.6114,0.0,0.0,-2.5327,-2.531,-2.5097,-2.4823,-2.4839,-2.4849,-2.4723,-2.4254,-2.3412,-2.2106,-2.138,-2.0741,-2.0132,-1.8687,-1.7828,-1.7828,-1.7075,-1.741,-1.902,-1.9083,0.0,0.0,0.0,0.0,0.0,0.0,0.0,0.0,0.0,0.0,0.0,0.0,0.0,0.0,0.0,0.0,0.0,0.0,0.0,0.0,0.0,0.0,0.0,0.0,0.0,0.0,0.0,0.0,-3.197,-3.576,0.0,0.0,-3.5401,-3.6256,-3.7704,-3.7686,-3.8456,-4.0358,-4.1438,-4.2468,-4.35,-4.4182,-4.4748,-4.5213,-4.5213,-4.4879,-4.4211,-4.4066,-4.3529,-4.2658,-4.2498,-4.2034,-4.1337,-4.0466,-3.9712,-3.8928,-3.6577,-3.539,-3.4958,-3.3704,-3.3312,-3.3366,-3.2691,-3.2796,-3.3201,-3.2811,-3.2766,-3.2511,-3.0419,-2.9268,-2.8593,-2.8033,-2.8532,-2.9319,-2.9508,-3.0176,-3.0857,-3.1105,-3.1656,-3.2133,-3.2133,-3.2133,-3.206,-3.1874,-3.1736,-3.1341,-3.0306,-2.8237,-2.695,-2.7954,-2.6533,-2.5721,-2.6928,-2.6275,-2.5409,-2.4872,-2.5575,-2.5792,-2.495,-2.4621,-2.4128,-2.3281,-2.1859,-2.0812,-2.0307,-1.8713,-1.7679,-1.7413,-1.6829,-1.6776,-1.7378,-1.739,-1.8907,0.0,0.0,0.0,0.0,0.0,0.0,0.0,0.0,0.0,0.0,0.0,0.0,0.0,0.0,0.0,0.0,0.0,0.0,0.0,0.0,0.0,0.0,0.0,0.0,0.0,0.0,-3.7277,-3.6686,-4.0543,-4.2333,-3.9999,-3.9799,-4.0404,-4.1863,-4.1248,-4.1759,-4.3912,-4.4412,-4.4938,-4.5552,-4.5782,-4.588,-4.588,-4.588,-4.5445,-4.4574,-4.4182,-4.3529,-4.2673,-4.2281,-4.1976,-4.17,-4.0583,-3.9987,-3.9683,-3.8217,-3.7266,-3.6658,-3.5825,-3.5289,-3.4944,-3.4558,-3.4528,-3.4724,-3.4724,-3.459,-3.408,-3.2048,-3.0748,-2.99,-2.9436,-2.99,-3.0654,-3.1119,-3.1685,-3.2222,-3.2454,-3.2814,-3.3108,-3.289,-3.2846,-3.2846,-3.2846,-3.2672,-3.2481,-3.2481,-3.0603,-2.913,-2.9531,-2.7847,-2.6965,-2.8496,-2.7419,-2.6466,-2.6539,-2.67,-2.6486,-2.5643,-2.5085,-2.4462,-2.3621,-2.2982,-2.1882,-2.0182,-1.9464,-1.8533,-1.7259,-1.7728,-1.7884,-1.7626,-1.7603,-1.8782,-2.1177,0.0,0.0,0.0,0.0,0.0,0.0,0.0,0.0,0.0,0.0,0.0,0.0,0.0,0.0,0.0,0.0,0.0,0.0,0.0,0.0,0.0,0.0,0.0,-3.2782,-3.7889,-4.1255,-3.9912,-4.4062,-4.6181,-4.3973,-4.4009,-4.4906,-4.6801,-4.5186,-4.5182,-4.7689,-4.6609,-4.6194,-4.6829,-4.6225,-4.588,-4.588,-4.588,-4.5256,-4.4023,-4.4008,-4.334,-4.2121,-4.2107,-4.1744,-4.1091,-4.0423,-3.9784,-3.9175,-3.8507,-3.8217,-3.8086,-3.6823,-3.5967,-3.545,-3.5436,-3.4994,-3.4443,-3.4443,-3.4022,-3.3518,-3.3518,-3.3064,-3.2539,-3.2556,-3.2524,-3.2539,-3.2539,-3.3021,-3.3387,-3.2745,-3.3485,-3.4254,-3.3678,-3.3532,-3.3532,-3.3532,-3.3021,-3.2539,-3.2539,-3.154,-3.0685,-3.067,-2.9102,-2.8323,-2.9809,-2.8757,0.0,-2.9765,-2.8152,-2.6852,-2.6895,-2.5698,-2.4399,-2.3126,-2.4691,-2.3929,-1.9683,-2.0776,-2.0259,-1.7295,-1.9563,-2.0486,-1.971,-1.9761,-1.9547,-1.9033,0.0,0.0,0.0,0.0,0.0,0.0,0.0,0.0,0.0,0.0,0.0,0.0,0.0,0.0,0.0,0.0,0.0,0.0,0.0,0.0,0.0,0.0,-4.0072,-3.9186,-4.2695,-4.5981,-4.7602,-5.0358,-5.1464,-4.9829,-4.9713,-4.9789,-4.9822,-4.7972,-4.7125,-4.782,-4.6593,-4.597,-4.6194,-4.6015,-4.588,-4.588,-4.588,-4.5459,-4.4632,-4.4197,-4.3558,-4.2731,-4.2295,-4.199,-4.1787,-4.112,-4.0452,-3.9799,-3.9175,-3.8638,-3.813,-3.7346,-3.6925,-3.6707,-3.6228,-3.5648,-3.5145,-3.5145,-3.469,-3.408,-3.3649,-3.3659,-3.3804,-3.334,-3.3529,-3.3891,-3.3891,-3.4022,-3.4109,-3.3935,-3.4153,-3.437,-3.4196,-3.4153,-3.4153,-3.4153,-3.4022,-3.3891,-3.3891,-3.3224,-3.2559,-3.2063,-3.154,-3.1,-3.0519,0.0,0.0,-2.9117,-2.8537,-2.8338,-2.8792,-2.8109,-2.7102,-2.5843,-2.4936,-2.3041,0.0,-1.9149,-1.8226,-1.674,-1.7362,-1.7622,-1.7426,-1.8982,-1.9736,0.0,0.0,0.0,0.0,0.0,0.0,0.0,0.0,0.0,0.0,0.0,0.0,0.0,0.0,0.0,0.0,0.0,0.0,0.0,0.0,0.0,0.0,-4.1492,-4.478,-4.5807,-4.7703,-4.9805,-5.2017,-5.3344,-5.4008,-5.3771,-5.2684,-5.1945,-5.1823,-4.9925,-4.8611,-4.8313,-4.7317,-4.6622,-4.6328,-4.606,-4.588,-4.588,-4.588,-4.5547,-4.4879,-4.4284,-4.3645,-4.2977,-4.2368,-4.2092,0.0,-4.1381,-4.0713,-4.0046,-3.945,-3.8797,0.0,0.0,0.0,0.0,0.0,-3.5712,-3.5363,-3.5087,-3.4719,-3.4356,-3.3978,-3.4109,-3.4341,-3.3978,-3.4124,-3.4414,-3.4414,-3.4414,-3.4414,-3.4414,-3.4414,-3.4414,-3.4414,-3.4414,-3.4414,-3.4414,-3.4414,-3.4414,-3.4414,0.0,0.0,-3.3369,-3.2843,-3.2289,-3.1625,-3.1215,-3.0739,0.0,-2.9479,-2.9204,-2.9567,-2.8824,-2.7655,-2.6146,-2.5476,0.0,0.0,0.0,-1.9508,-1.875,0.0,0.0,0.0,0.0,-1.971,0.0,0.0,0.0,0.0,-2.0432,-2.0671,0.0,0.0,0.0,0.0,0.0,0.0,0.0,0.0,0.0,0.0,0.0,0.0,0.0,0.0,0.0,0.0,-4.5476,-4.843,-5.178,-5.2317,-5.2823,-5.4055,-5.4435,-5.4925,-5.5857,-5.385,-5.2657,-5.3024,-5.1286,-4.9925,0.0,0.0,0.0,0.0,0.0,-4.6015,-4.6015,-4.5925,-4.559,-4.4995,-4.4385,-4.3747,-4.3079,-4.2469,-4.2165,-4.2063,-4.1468,-4.0829,-4.0162,-3.9552,-3.887,-3.8202,-3.8202,-3.7839,-3.7172,-3.6046,-3.5523,0.0,0.0,0.0,0.0,-3.4414,-3.4414,-3.4414,-3.4414,-3.4414,-3.4414,-3.4414,-3.4414,-3.4414,-3.4414,-3.4414,-3.4414,-3.4414,-3.4414,-3.4414,-3.4414,-3.4414,-3.4414,-3.4414,-3.4414,-3.4414,-3.4414,-3.347,-3.276,-3.2873,-3.2213,0.0,-3.1958,-3.0701,-2.9827,-2.9912,0.0,0.0,-2.5474,-2.6344,-2.4969,-2.0211,-2.1407,-2.2015,-2.1417,-2.0254,-1.9964,-2.0679,-2.0508,-1.9447,-1.7498,-1.7965,-1.8204,-1.8255,-2.0936,-2.1238,0.0,0.0,0.0,0.0,0.0,0.0,0.0,0.0,0.0,0.0,0.0,0.0,0.0,0.0,0.0,-4.5189,-4.8275,-5.099,-5.336,-5.4182,-5.4581,-5.4849,-5.6426,-5.6678,-5.4688,-5.5058,-5.4989,-5.395,-5.2486,-5.1536,-5.1405,-4.9704,0.0,-4.8596,-4.7374,-4.6712,-4.6712,-4.6194,-4.5822,-4.5692,0.0,0.0,-4.3776,-4.3123,-4.2557,-4.2092,-4.1961,-4.1526,-4.0858,-4.0191,-3.9233,-3.8202,-3.8202,-3.7839,-3.7273,-3.7027,-3.6272,-3.5378,-3.5261,-3.4835,-3.4414,-3.4414,-3.4414,-3.4414,-3.4414,-3.4414,0.0,-3.4414,-3.4414,-3.4414,-3.4414,-3.4414,-3.4414,-3.4414,-3.4414,-3.4414,-3.4414,-3.4414,-3.4414,-3.4414,-3.4414,-3.4414,-3.4414,-3.4211,-3.3873,-3.3415,-3.322,-3.2948,-3.2442,-3.1652,-3.1322,-3.1857,-3.1225,-3.0007,-2.8122,-2.7705,-2.5897,-2.2027,-2.0485,-1.9472,-1.893,-1.8655,-1.8592,-1.8741,-1.8705,-1.8468,-1.8053,-1.8154,-1.8204,-1.8204,-1.8381,-1.8243,0.0,0.0,0.0,0.0,0.0,0.0,0.0,0.0,0.0,0.0,0.0,-3.8584,0.0,0.0,-4.585,-4.9316,-5.166,-5.3534,-5.494,-5.5446,-5.5651,-5.5651,-5.5967,-5.6046,-5.5699,-5.5351,-5.4841,-5.4129,-5.3455,-5.2589,-5.1533,-5.0537,-4.969,-4.9009,-4.7608,-4.6916,-4.6916,-4.6239,-4.588,-4.588,-4.5213,-4.4574,-4.3964,-4.3297,-4.2658,-4.2092,-4.2092,-4.1715,-4.1018,-4.0046,-3.9276,-3.8667,-3.8333,-3.8028,-3.7723,-3.7418,-3.6678,-3.5793,-3.5508,-3.4951,-3.4414,-3.4414,-3.4414,-3.4414,-3.4414,-3.4414,-3.4414,-3.4414,-3.4414,-3.4414,-3.4414,-3.4414,-3.4414,-3.4414,-3.4414,-3.4414,-3.4414,-3.4414,-3.4414,-3.4414,-3.4414,-3.4414,-3.4414,-3.4414,-3.4196,-3.359,-3.3503,-3.3271,-3.26,-3.2191,-3.2009,-3.199,-3.1446,-3.0399,-2.8826,-2.6988,-2.475,-2.2075,-2.0322,-1.9296,-1.9007,-1.8493,-1.8204,-1.8204,-1.8456,-1.8594,-1.8594,-1.8882,-1.9007,-1.8995,-1.8455,-1.8053,0.0,0.0,0.0,0.0,0.0,0.0,0.0,0.0,-3.706,-3.8983,-4.0986,-4.3103,-4.541,-4.7833,-5.0374,-5.306,-5.4545,-5.5541,-5.611,-5.6189,-5.6141,-5.5999,-5.5098,-5.5051,-5.6473,-5.5209,-5.4234,-5.4037,-5.4084,-5.3345,-5.1615,-5.1327,-5.0689,-4.9638,-4.8087,-4.7206,-4.7091,-4.6447,-4.6015,-4.588,-4.5343,-4.4763,-4.4139,-4.3485,-4.2861,-4.2266,-4.215,-4.1642,-4.0829,-3.9799,-3.9233,-3.8957,-3.8405,-3.8202,-3.813,-3.7535,-3.6881,-3.6228,-3.5755,-3.5125,-3.4603,-3.4603,-3.4516,-3.4414,-3.4414,-3.4414,-3.4414,-3.4414,-3.4414,-3.4414,-3.4414,-3.4414,-3.4414,-3.4414,-3.4414,-3.4414,-3.4414,-3.4414,-3.4414,-3.4414,-3.4414,-3.4414,-3.4414,-3.4414,-3.424,-3.3765,-3.3678,-3.347,-3.2948,-3.2788,-3.2454,-3.1756,-3.1134,-3.0219,-2.8785,-2.6092,-2.3751,-2.2115,-2.0934,-2.02,-1.9974,-1.9145,-1.8631,-1.8518,-1.8933,-1.9158,-1.9158,-1.9597,-1.9798,-1.9798,-1.9346,-1.8857,-3.3208,-3.2935,-3.3432,-3.5758,-3.639,-3.7677,0.0,0.0,-4.4288,-4.6297,-4.7877,-4.9157,-5.0105,-5.1037,-5.2381,-5.4518,-5.5557,-5.6094,-5.6173,-5.6189,-5.5952,-5.5276,-5.5667,-5.5557,-5.4545,-5.4798,-5.4755,-5.4116,-5.4092,-5.4013,-5.3746,-5.2545,-5.1804,-5.1684,-4.9709,-4.8392,-4.7776,-4.7119,-4.6491,-4.588,-4.5808,-4.543,-4.4763,-4.4153,-4.3515,-4.2861,-4.2324,-4.1381,-4.0191,-4.006,-3.9334,-3.8304,-3.8231,-3.8202,-3.813,-3.7535,-3.6881,-3.6301,-3.6228,-3.5793,-3.529,-3.529,-3.4878,-3.4414,-3.4414,-3.4414,-3.4414,-3.4414,-3.4414,-3.4414,-3.4414,-3.4414,-3.4414,-3.4414,-3.4414,-3.4414,-3.4414,-3.4414,-3.4414,-3.4414,-3.4414,-3.4414,-3.4414,-3.4414,-3.4385,-3.4312,-3.4312,-3.4283,-3.4211,-3.3703,-3.3108,-3.2452,-3.177,-3.0643,-2.8768,-2.6819,-2.5168,-2.3874,-2.2678,-2.1594,-2.0641,-2.0478,-2.0176,-1.9635,-1.9685,-1.971,-1.971,-1.9773,-1.9798,-1.9798,-1.9748,-1.9409,-3.4463,-3.523,0.0,0.0,-3.9371,-4.1609,-4.4728,-4.609,-4.7352,-4.9773,-5.1385,-5.257,-5.3265,-5.4292,-5.5462,0.0,-5.72,-5.7435,-5.7435,-5.6347,-5.5019,-5.3502,-5.3218,-5.325,-5.3502,-5.3392,-5.3202,-5.2902,-5.3281,-5.3329,-5.2902,-5.2333,-5.1828,-5.1417,-4.9784,-4.8764,-4.8475,-4.7819,-4.7321,-4.7061,-4.6298,-4.555,-4.4902,-4.3903,-4.3065,-4.2455,-4.2208,-4.1773,-4.1192,-4.0423,-3.9784,-3.9233,-3.8492,-3.8202,-3.8173,-3.7926,-3.7433,-3.6881,-3.6881,-3.646,-3.5851,-3.5508,-3.5218,-3.4893,-3.453,-3.4414,-3.4414,-3.4414,-3.4414,-3.4414,-3.4414,-3.4414,-3.4414,-3.4414,-3.4414,-3.4414,-3.4414,-3.4414,-3.4414,-3.4414,-3.4414,-3.4414,-3.4414,-3.4414,-3.4414,-3.4414,-3.4414,-3.4414,-3.4414,-3.4182,-3.363,-3.2629,-3.1598,-3.0174,-2.8232,-2.7376,-2.6123,-2.4166,-2.325,-2.2406,-2.1656,-2.1031,-2.0578,-2.0339,-1.9974,-1.9798,-1.9798,-1.9798,-1.9798,-1.9798,-1.9798,-1.9685,-3.588,0.0,0.0,-4.0197,-4.2796,-4.5523,-4.7025,-4.8681,-5.0469,-5.246,-5.3976,-5.5051,-5.5367,-5.6094,-5.6931,-5.7848,-5.7658,-5.7469,-5.7674,-5.5904,-5.3787,-5.1685,-5.0658,-5.0453,-5.129,-5.1575,-5.1717,-5.1717,-5.2396,-5.257,-5.2033,-5.1828,-5.1496,-5.103,-4.9806,-4.9107,-4.8887,-4.8407,-4.8072,-4.7904,-4.6911,-4.6045,-4.5221,-4.3694,-4.2658,-4.2092,-4.2092,-4.199,-4.1729,-4.0583,-4.0002,-3.9741,-3.8638,-3.8202,-3.8202,-3.8202,-3.7926,-3.7549,-3.7549,-3.7128,-3.6504,-3.6089,-3.5813,-3.5537,-3.4864,-3.4675,-3.4646,-3.4457,-3.4414,-3.4414,-3.4414,-3.4414,-3.4414,-3.4414,-3.4414,-3.4414,-3.4414,-3.4414,-3.4414,-3.4414,-3.4414,-3.4414,-3.4414,-3.4414,-3.4414,-3.4414,-3.4414,-3.4414,-3.4414,-3.4076,-3.3529,-3.2582,-3.1351,-2.9974,-2.8364,-2.7786,-2.6614,-2.4631,-2.3619,-2.2857,-2.2305,-2.1543,-2.1006,-2.0704,-2.0277,-2.0037,-2.0037,-1.9874,-1.9886,-2.0037,-1.9874,-1.9798,-3.7311,0.0,-4.0736,-4.3915,-4.674,-4.9094,-5.054,-5.2949,-5.4897,-5.4976,-5.6112,-5.6931,-5.6268,-5.5636,-5.5607,-5.7026,-5.6065,-5.5478,-5.6141,-5.4466,-5.2381,-5.0208,-4.881,-4.7735,0.0,-4.9426,-5.1046,-5.1046,-5.1654,-5.2033,-5.2017,-5.1369,-5.103,-5.1015,-5.0239,-4.9582,-4.8887,-4.8887,-4.8558,-4.7904,-4.7846,-4.7144,-4.5832,-4.3884,-4.2658,-4.2092,-4.2092,-4.1729,-4.1076,-4.0379,-3.9755,-3.916,-3.8463,-3.8202,-3.8202,-3.8202,-3.8188,-3.8173,-3.8173,-3.7781,-3.7273,-3.7259,-3.6809,-3.6156,-3.5566,-3.5378,-3.5232,-3.4588,-3.4414,-3.4414,-3.4414,-3.4414,-3.4414,-3.4414,-3.4414,-3.4414,-3.4414,-3.4414,-3.4414,-3.4414,-3.4414,-3.4414,-3.4414,-3.4414,-3.4414,-3.4414,-3.4414,-3.4414,-3.4414,-3.3307,-3.2524,-3.2481,-3.1351,-3.0312,-2.9594,-2.7939,-2.66,-2.579,-2.4096,-2.2857,-2.2305,-2.2284,-2.1757,-2.0717,-2.0679,-2.0666,-2.0666,-2.0075,-2.0087,-2.0654,-2.0062,-1.9798,-3.828,0.0,-4.5665,-4.7167,-4.9971,-5.2586,-5.3518,-5.4423,-5.496,-5.4545,-5.3708,-5.2828,-5.2051,-5.1761,-5.2086,-5.3406,-5.4064,-5.453,-5.4767,-5.3818,-5.1986,-4.8936,-4.8177,0.0,0.0,0.0,0.0,-4.956,-5.0232,-5.0627,-5.0627,-5.0848,-5.0769,-5.0295,-5.0042,-4.9797,-4.9582,-4.9566,-4.9461,-4.9203,-4.7461,-4.5698,-4.3928,-4.2886,-4.2281,-4.2092,-4.2092,-4.1961,-4.17,-4.1033,-4.0641,-4.035,-3.9276,-3.887,-3.8812,-3.8362,-3.8202,-3.8202,-3.8202,-3.8072,-3.7767,-3.6925,-3.6489,-3.6112,-3.5053,-3.4733,-3.469,-3.4472,-3.4414,-3.4414,-3.4414,-3.4719,-3.5072,-3.5072,-3.5372,-3.5677,-3.5677,-3.5343,-3.5072,-3.5072,-3.4704,-3.4414,-3.4414,-3.4414,-3.4414,-3.4414,-3.4414,-3.4414,-3.4414,-3.3674,-3.3151,-3.3151,-3.1975,-3.0945,-3.026,-2.9282,-2.804,-2.6488,-2.5441,-2.443,-2.3452,-2.2711,-2.2133,-2.1769,-2.1393,-2.1232,-2.1232,-2.0679,-2.0503,-2.0679,-2.0075,-1.9798,-4.1577,-4.5321,-4.9117,-5.0739,-5.2997,-5.483,-5.4782,-5.4751,-5.4277,-5.2586,-5.1139,-4.9765,-4.8435,-4.7898,-4.8103,-4.9566,-5.0299,-5.1114,-5.2345,-5.1729,-5.0404,-4.8494,-4.7814,0.0,0.0,0.0,0.0,-4.8067,-4.9252,-4.9821,-4.9568,-5.0216,-5.039,-4.9892,-4.9876,-4.9876,-4.9876,-4.9876,-4.9671,-4.9181,-4.7015,-4.5079,-4.3341,-4.2492,-4.2092,-4.2092,-4.2092,-4.2092,-4.2034,-4.112,-4.0887,-4.0974,-3.9697,-3.9204,-3.9146,-3.8725,-3.8405,-3.8202,-3.8202,-3.8202,-3.8072,-3.7259,-3.6838,-3.6504,-3.5691,-3.5125,-3.4791,-3.5024,-3.4922,-3.4806,-3.5024,-3.5386,-3.5741,-3.5741,-3.6011,-3.6301,-3.6301,-3.5996,-3.5668,-3.5436,-3.5058,-3.4675,-3.4443,-3.4414,-3.4414,-3.4414,-3.4414,-3.4414,-3.4414,-3.3862,-3.3503,-3.3503,-3.2295,-3.1325,-3.0902,-2.9902,-2.864,-2.7147,-2.6077,-2.5068,-2.4048,-2.31,-2.251,-2.2309,-2.197,-2.1782,-2.1782,-2.1056,-2.0893,-2.1257,-2.0263,-1.9911,-4.6848,-4.9336,-5.1239,-5.4387,-5.5715,-5.5809,-5.4372,-5.3913,-5.2807,-4.9378,-4.8441,-4.7579,0.0,0.0,-4.3961,-4.5831,-4.5348,-4.5898,-4.9284,-4.8671,-4.8166,0.0,0.0,0.0,0.0,0.0,0.0,-4.685,0.0,-4.96,-4.8968,-4.9552,-4.9876,-4.9876,-4.9876,-4.9876,-4.9876,-4.9884,-4.922,-4.7967,-4.6584,-4.5253,-4.3931,-4.2685,-4.2092,-4.2092,-4.2092,-4.2078,-4.1947,-4.0713,-4.0539,-4.0931,-3.9755,-3.9262,-3.9204,-3.9204,-3.8797,-3.8246,-3.8217,-3.8202,-3.8202,-3.8159,-3.7767,-3.7302,-3.7259,-3.6388,-3.5581,-3.6141,-3.588,-3.5581,-3.6156,-3.633,-3.6359,-3.6359,-3.6388,-3.6402,-3.6402,-3.6388,-3.6185,-3.561,-3.5436,-3.5203,-3.453,-3.4414,-3.4414,-3.4414,-3.4414,-3.4414,-3.4414,-3.3891,-3.3547,-3.3547,-3.2382,-3.1582,-3.1538,-2.9895,-2.8552,-2.7837,-2.6125,-2.4819,-2.4123,-2.3489,-2.2895,-2.2359,-2.2347,-2.2347,-2.2347,-2.1307,-2.132,-2.2272,-2.0652,-2.0175,-4.9769,-5.2974,-5.5676,-5.6449,-5.6441,-5.5699,-5.3787,-5.1353,-4.8778,-4.6281,-4.3617,-4.1496,0.0,0.0,0.0,-4.3689,-4.6118,0.0,-5.0397,-5.1281,0.0,-4.9821,0.0,-4.8731,-4.7719,-4.8067,0.0,0.0,-4.8573,-4.9299,-4.9647,-4.9837,-4.9876,-4.9876,-4.9876,-4.9876,-4.9876,-4.941,-4.8734,-4.7911,-4.611,-4.4815,-4.389,-4.2643,-4.2092,-4.2092,-4.2092,-4.1816,-4.1366,-4.1526,-4.1091,-4.0365,-4.0539,-4.0046,-3.9204,-3.9204,-3.9088,-3.887,-3.8376,-3.8202,-3.813,-3.768,-3.7433,-3.7215,-3.6722,-3.633,-3.6098,-3.6272,-3.6199,-3.6112,-3.6272,-3.6678,-3.7056,-3.7056,-3.7404,-3.7723,-3.7723,-3.736,-3.7012,-3.6838,-3.606,-3.5203,-3.453,-3.4414,-3.4414,-3.4414,-3.4414,-3.4414,-3.4414,-3.4283,-3.4167,-3.4167,-3.3456,-3.2774,-3.2309,-3.1341,-3.0311,-2.9181,-2.78,-2.6512,-2.5402,-2.4335,-2.3471,-2.2907,-2.2895,-2.2895,-2.2895,-2.2234,-2.2033,-2.2297,-2.1443,-2.1142,-5.277,-5.5323,-5.7321,-5.7637,-5.6694,-5.5098,-5.2712,-4.971,-4.6513,-4.3412,-4.0869,0.0,-3.8589,0.0,0.0,0.0,0.0,0.0,-4.9158,-5.0443,-5.1067,0.0,-5.0563,0.0,-4.8889,-4.9126,-4.9189,0.0,-4.9126,-4.9378,-4.9473,-4.9758,-4.9876,-4.9876,-4.9876,-4.9876,-4.9876,-4.9536,-4.8702,-4.7446,-4.6357,-4.4995,-4.3475,-4.281,-4.2366,-4.2092,0.0,-4.1715,-4.1105,-4.1192,-4.0945,-4.0539,-4.0626,-4.0408,-4.0031,-4.0031,-3.9842,-3.9538,-3.916,-3.8855,-3.8536,-3.7912,-3.752,-3.7288,-3.7172,-3.6751,-3.6417,-3.6983,-3.6954,-3.6809,-3.707,-3.7418,-3.7694,-3.7694,-3.7955,-3.8202,-3.8202,-3.7941,-3.7535,-3.6983,-3.6089,-3.5203,-3.453,-3.4414,-3.4414,-3.4414,-3.4414,-3.4414,-3.4414,-3.4414,-3.4414,-3.4414,-3.3848,-3.3242,-3.2539,-3.1872,-3.0958,-2.9696,-2.868,-2.7567,-2.6259,-2.5303,-2.4493,-2.3847,-2.3609,-2.3484,-2.3484,-2.2698,-2.2406,-2.2631,-2.1857,-2.1619,-5.5715,-5.6969,-5.75,-5.8116,-5.6489,-5.3992,-5.1211,-4.8177,-4.4835,-4.0948,0.0,-3.8449,-3.7824,-3.7437,-3.7888,-3.978,0.0,-4.3254,-4.7334,-4.8482,-4.9638,-5.1613,-5.1338,-5.0706,-4.9955,-4.9876,-4.9876,-4.9876,-4.9876,-4.9663,-4.9047,-4.96,-4.9876,-4.9876,-4.9876,-4.9876,-4.9876,-4.9837,-4.8836,-4.7029,-4.6858,-4.5467,-4.3101,-4.3036,-4.2648,-4.2092,0.0,0.0,-4.1062,-4.0568,-4.0597,-4.0916,-4.0525,-4.0612,-4.0974,-4.1062,-4.067,-4.0089,-4.0002,-3.9697,-3.9218,-3.8551,-3.7926,-3.752,-3.8043,-3.7433,-3.678,-3.7897,-3.7825,-3.7549,-3.8072,-3.8202,-3.8202,-3.8202,-3.8202,-3.8202,-3.8202,-3.8202,-3.7825,-3.6562,-3.5865,-3.529,-3.4545,-3.4414,-3.4414,-3.4414,-3.4414,-3.4414,-3.4414,-3.4414,-3.4414,-3.4414,-3.392,-3.334,-3.2701,-3.2034,-3.1118,-2.9947,-2.9188,-2.8246,-2.7006,-2.639,-2.5706,-2.4949,-2.4394,-2.4085,-2.4004,-2.2937,-2.2644,-2.3083,-2.2159,-2.197,-5.7962,-5.8528,-5.8116,-5.8289,-5.5383,-5.1828,-4.9062,-4.48,0.0,0.0,-3.7764,-3.6584,-3.7529,-3.8134,-3.9209,-4.1414,0.0,0.0,0.0,0.0,-5.0753,0.0,0.0,0.0,0.0,0.0,0.0,0.0,0.0,0.0,-4.9742,-4.9852,-4.9876,-4.9876,-4.9876,-4.9876,-4.9876,-4.9347,-4.8629,-4.7709,-4.6616,-4.5249,-4.3732,-4.322,-4.2648,-4.2092,0.0,0.0,-4.1134,-4.157,-4.1163,-4.0365,-4.1366,-4.1149,-4.0336,-4.0902,-4.067,-4.0031,-3.9523,-3.961,-3.9842,-3.9233,-3.858,-3.8072,-3.8173,-3.8043,-3.7926,-3.8144,-3.813,-3.8072,-3.8173,-3.8202,-3.8202,-3.8202,-3.8202,-3.8202,-3.8202,-3.8202,-3.7825,-3.6562,-3.6228,-3.5778,-3.4617,-3.4414,-3.4414,-3.4414,-3.4414,-3.4414,-3.4414,-3.4414,-3.4414,-3.4414,-3.4312,-3.3993,-3.3387,-3.2716,-3.2,-3.124,-3.0085,-2.9105,-2.8374,-2.7714,-2.6827,-2.5628,-2.5101,-2.4553,-2.4004,-2.3296,-2.3007,-2.3095,-2.2907,-2.2869,-5.7615,-5.8278,-5.8147,-5.7374,-5.4024,-5.016,-4.7306,0.0,0.0,0.0,-3.7266,-3.6615,-3.7897,-3.8472,0.0,0.0,0.0,0.0,0.0,0.0,0.0,0.0,0.0,0.0,0.0,0.0,0.0,0.0,0.0,0.0,0.0,-4.9876,-4.9876,-4.9876,-4.9876,-4.9876,-4.9876,-4.9584,-4.8904,-4.7893,-4.7226,-4.5881,-4.3888,-4.3615,-4.297,-4.2092,0.0,0.0,0.0,-4.1439,-4.1192,-4.0684,-4.1323,-4.1395,-4.1134,-4.1105,-4.0902,-4.0583,-4.0292,-3.9944,-3.9639,-3.9654,-3.9233,-3.8725,-3.8725,-3.8478,-3.8202,-3.8202,-3.8202,-3.8202,-3.8202,-3.8202,-3.8202,-3.8202,-3.8202,-3.8202,-3.8202,-3.8202,-3.7941,-3.7012,-3.6548,-3.6011,-3.5067,-3.4632,-3.4414,-3.4414,-3.4414,-3.4414,-3.4414,-3.4414,-3.4414,-3.4414,-3.4414,-3.4167,-3.3547,-3.3227,-3.273,-3.2046,-3.113,-3.0318,-2.9665,-2.9018,-2.8232,-2.7223,-2.6337,-2.5717,-2.5383,-2.4492,-2.387,-2.3577,-2.3594,-2.3424,-5.6678,-5.7627,-5.7737,-5.6505,-5.2807,-4.8755,-4.5919,-4.203,0.0,0.0,-3.7095,-3.694,-3.8029,0.0,-3.8953,0.0,-4.0039,0.0,0.0,0.0,0.0,0.0,0.0,0.0,0.0,0.0,0.0,0.0,0.0,0.0,0.0,-4.9876,-4.9813,-4.971,-4.971,-4.971,-4.971,-4.971,-4.9094,-4.7893,-4.7893,-4.6552,-4.4066,-4.3966,-4.3314,-4.2284,0.0,0.0,0.0,-4.1308,-4.1308,-4.1308,-4.1308,-4.1628,-4.2034,-4.1512,-4.1221,-4.1076,-4.0931,-4.0234,-3.945,-3.9799,-3.9494,-3.8986,-3.8986,-3.8623,-3.8202,-3.8202,-3.8202,-3.8202,-3.8202,-3.8202,-3.8202,-3.8202,-3.8202,-3.8202,-3.8202,-3.8202,-3.8028,-3.7418,-3.6881,-3.6315,-3.5712,-3.5038,-3.4661,-3.4791,-3.4588,-3.4457,-3.4603,-3.4501,-3.4414,-3.4414,-3.4414,-3.4211,-3.3736,-3.3576,-3.3285,-3.2759,-3.2106,-3.1406,-3.0743,-3.0403,-2.9764,-2.8762,-2.7835,-2.7189,-2.6897,-2.5849,-2.5088,-2.461,-2.4691,-2.4439,-5.6186,-5.7263,-5.7137,-5.6362,-5.2112,-4.7476,-4.5137,0.0,0.0,-3.7571,-3.6843,-3.6456,-3.7191,-3.7473,-3.8128,-3.9652,-4.0321,-4.1825,0.0,0.0,0.0,0.0,0.0,0.0,0.0,0.0,0.0,0.0,0.0,0.0,0.0,-4.9876,-4.9631,-4.8999,-4.8983,-4.8983,-4.8983,-4.8983,-4.862,-4.7893,-4.7893,-4.678,-4.4699,-4.4143,-4.3536,-4.2875,0.0,0.0,0.0,-4.2005,-4.2005,-4.2005,-4.2005,-4.2049,-4.2092,-4.2034,-4.1613,-4.1004,-4.0394,-4.0118,-3.9929,-3.945,-3.8826,-3.8289,-3.8289,-3.8246,-3.8202,-3.8202,-3.8202,-3.8202,-3.8202,-3.8202,-3.8202,-3.8202,-3.8202,-3.8202,-3.8202,-3.8202,-3.8028,-3.7418,-3.7259,-3.7012,-3.633,-3.5691,-3.5508,-3.604,-3.5154,-3.4617,-3.5232,-3.4777,-3.4414,-3.4414,-3.4414,-3.4385,-3.4327,-3.3804,-3.3474,-3.3416,-3.2788,-3.2118,-3.1447,-3.1939,-3.1349,-2.9543,-2.9459,-2.8827,-2.761,-2.7016,-2.6687,-2.6627,-2.6633,-2.6606,-5.3297,-5.5004,-5.5588,-5.4055,-5.0026,-4.5877,-4.3643,0.0,-3.7062,-3.7272,-3.6653,-3.6298,-3.6968,-3.7138,-3.7573,-3.8688,-3.814,0.0,-4.3343,0.0,0.0,0.0,0.0,0.0,0.0,0.0,0.0,0.0,0.0,0.0,0.0,0.0,-4.9173,-4.8904,-4.8509,-4.8288,-4.8288,-4.8288,-4.794,-4.7245,-4.7245,-4.6394,-4.4774,-4.4182,-4.3576,0.0,0.0,0.0,0.0,-4.2092,-4.2092,-4.2092,-4.2092,-4.2092,-4.2049,-4.1642,-4.1323,-4.1004,-4.0321,-3.9857,-3.9523,-3.9276,-3.8754,-3.8275,-3.8681,-3.8522,-3.8202,-3.8202,-3.8202,-3.8202,-3.8202,-3.8202,-3.8202,-3.8202,-3.8202,-3.8202,-3.8202,-3.8202,-3.813,-3.7897,-3.7549,-3.723,-3.6954,-3.6359,-3.6011,-3.6272,-3.5546,-3.5116,-3.5363,-3.4806,-3.4414,-3.4414,-3.4414,-3.4414,-3.4414,-3.4182,-3.4037,-3.4037,-3.3441,-3.2962,-3.2701,-3.2571,-3.1951,-3.0778,-3.0361,-2.9736,-2.8827,-2.823,-2.7757,-2.738,-2.7414,-2.7248,-4.9726,-5.2001,-5.3097,-5.1259,-4.7631,-4.3999,0.0,0.0,-3.6213,-3.6744,-3.6356,-3.6046,-3.6548,-3.6671,-3.6964,-3.7781,-3.6929,-3.7548,-4.1557,0.0,0.0,0.0,0.0,0.0,0.0,0.0,0.0,0.0,0.0,0.0,0.0,0.0,-4.8588,-4.8588,-4.7925,-4.7561,-4.7561,-4.7561,-4.7308,-4.6803,-4.6803,-4.6202,-4.5067,-4.445,-4.3834,0.0,0.0,0.0,0.0,-4.2092,-4.2092,-4.2092,-4.2092,-4.1976,-4.1744,-4.1265,-4.0974,-4.0713,-4.006,-3.9567,-3.9175,-3.8971,-3.858,-3.8289,-3.8754,-3.858,-3.8202,-3.8202,-3.8202,-3.8202,-3.8202,-3.8202,-3.8202,-3.8202,-3.8202,-3.8202,-3.8202,-3.8202,-3.8202,-3.8202,-3.7854,-3.7578,-3.7578,-3.7041,-3.6664,-3.6838,-3.6046,-3.5465,-3.5654,-3.4922,-3.4414,-3.4414,-3.4414,-3.4414,-3.4414,-3.4414,-3.4414,-3.4414,-3.3993,-3.3707,-3.3518,-3.3224,-3.264,-3.1799,-3.1314,-3.0878,-3.0469,-2.9629,-2.9059,-2.8816,-2.8699,-2.8387,-4.5765,-4.8383,-4.9608,-4.8288,-4.507,-4.1875,0.0,-3.7479,-3.5215,-3.5868,-3.5831,-3.572,-3.572,-3.5878,-3.6233,-3.6901,-3.7537,-3.8515,-4.0082,0.0,0.0,0.0,0.0,0.0,0.0,0.0,0.0,0.0,0.0,0.0,0.0,0.0,-4.7909,-4.7909,-4.7198,-4.6803,-4.6803,-4.6803,-4.6803,-4.6803,-4.6803,-4.6455,-4.5771,-4.5104,0.0,0.0,0.0,0.0,0.0,-4.2092,-4.2092,-4.2092,-4.2092,-4.1686,-4.1105,-4.1091,-4.067,-4.0017,-3.9421,-3.9204,-3.9088,-3.8434,-3.8217,-3.8202,-3.8217,-3.8202,-3.8202,-3.8202,-3.8202,-3.8202,-3.8202,-3.8202,-3.8202,-3.8202,-3.8202,-3.8202,-3.8202,-3.8202,-3.8202,-3.8202,-3.8202,-3.8188,-3.8188,-3.7694,-3.7491,-3.8086,-3.6577,-3.5625,-3.6214,-3.5198,-3.4414,-3.4414,-3.4414,-3.4414,-3.4414,-3.4414,-3.4414,-3.4414,-3.4399,-3.4124,-3.3518,-3.4066,-3.3757,-3.2495,-3.2481,-3.2481,-3.2466,-3.1192,-3.0887,-3.1451,-3.0858,-3.0553,-4.181,-4.3652,-4.4539,-4.3677,-4.1317,-3.8977,-3.8059,-3.6015,-3.4516,-3.5185,-3.5102,-3.5016,-3.5497,-3.5686,-3.6042,-3.6869,-3.724,-3.7981,0.0,0.0,0.0,0.0,0.0,0.0,0.0,0.0,0.0,0.0,0.0,0.0,0.0,0.0,0.0,-4.715,-4.6487,-4.6123,-4.6123,-4.6123,-4.6123,-4.6123,-4.6123,-4.6013,-4.5771,0.0,0.0,0.0,0.0,0.0,0.0,-4.2092,-4.2092,-4.2092,-4.2092,-4.1686,-4.1091,-4.1091,-4.067,-4.0002,-3.9407,-3.9204,-3.9088,-3.842,-3.8202,-3.8202,-3.8202,-3.8202,-3.8202,-3.8202,-3.8202,-3.8202,-3.8202,-3.8202,-3.8202,-3.8202,-3.8202,-3.8202,-3.8202,-3.8202,-3.8202,-3.8202,-3.8202,-3.8202,-3.8202,-3.8043,-3.7984,-3.8173,-3.6954,-3.6083,-3.6286,-3.5198,-3.4414,-3.4414,-3.4414,-3.4414,-3.4414,-3.4414,-3.4414,-3.4414,-3.4414,-3.4312,-3.4124,-3.4312,-3.4022,-3.3213,-3.3166,-3.2962,-3.2481,-3.2106,-3.1772,-3.148,-3.0872,-3.0598,-3.7923,-3.974,-4.0697,-3.9974,-3.8341,0.0,-3.6149,-3.4711,-3.3804,-3.4881,-3.4817,-3.4868,-3.5879,-3.5931,-3.6042,-3.6773,-3.696,-3.7362,0.0,0.0,0.0,0.0,0.0,0.0,0.0,0.0,0.0,0.0,0.0,0.0,0.0,0.0,0.0,-4.6439,-4.6029,-4.5807,-4.5807,-4.5807,-4.5807,-4.5807,-4.5807,-4.5646,-4.5395,0.0,0.0,0.0,0.0,0.0,0.0,-4.2092,-4.2092,-4.2092,-4.2092,-4.1541,-4.0713,-4.0713,-4.0147,-3.9334,-3.8957,-3.8826,-3.8754,-3.8333,-3.8202,-3.8202,-3.8202,-3.8202,-3.8202,-3.8202,-3.8202,-3.8202,-3.8202,-3.8391,-3.858,-3.858,-3.8754,-3.8855,-3.8623,-3.858,-3.8507,-3.8246,-3.8202,-3.8202,-3.8202,-3.8202,-3.8202,-3.8202,-3.7331,-3.6693,-3.6693,-3.5561,-3.4777,-3.4777,-3.4559,-3.4414,-3.4414,-3.4414,-3.4414,-3.4414,-3.4414,-3.4414,-3.4414,-3.4414,-3.4225,-3.3833,-3.3634,-3.3398,-3.3238,-3.2991,-3.2411,-3.148,-3.1105,-3.083,0.0,-3.6432,-3.7681,0.0,0.0,0.0,-3.4649,-3.3566,0.0,-3.4699,-3.4819,-3.5087,-3.6548,-3.643,-3.6199,-3.6582,-3.67,0.0,0.0,0.0,0.0,0.0,0.0,0.0,0.0,0.0,0.0,0.0,0.0,0.0,0.0,0.0,0.0,0.0,-4.5807,-4.5807,-4.5807,-4.5807,-4.5807,-4.5807,-4.5807,-4.5447,-4.4812,0.0,0.0,0.0,0.0,0.0,0.0,-4.2092,-4.2063,-4.2034,-4.2034,-4.1207,-4.0031,-4.0031,-3.9262,-3.8202,-3.8202,-3.8202,-3.8202,-3.8202,-3.8202,-3.8202,-3.8202,-3.8202,-3.8202,-3.8202,-3.8231,-3.8275,-3.8275,-3.8768,-3.9262,-3.9262,-3.9697,-3.9929,-3.9334,-3.9204,-3.9015,-3.8391,-3.8231,-3.8231,-3.8318,-3.826,-3.8217,-3.826,-3.7723,-3.7302,-3.7302,-3.6249,-3.5465,-3.5465,-3.4864,-3.4501,-3.4545,-3.4472,-3.4414,-3.4414,-3.4414,-3.4414,-3.4414,-3.4414,-3.4414,-3.4414,-3.3833,-3.3819,-3.4414,-3.3808,-3.2846,-3.1656,-3.1582,-3.1279,-3.1662,0.0,-3.342,-3.381,-3.3513,-3.3103,0.0,-3.2542,-3.2423,-3.3345,-3.3774,-3.4256,-3.5087,-3.6075,-3.6641,-3.623,-3.6591,0.0,0.0,0.0,0.0,0.0,0.0,0.0,0.0,0.0,0.0,0.0,0.0,0.0,0.0,0.0,0.0,0.0,-4.5807,-4.5807,-4.5807,-4.5807,-4.5807,-4.5807,-4.5807,-4.5499,0.0,0.0,0.0,0.0,0.0,0.0,0.0,-4.2092,-4.1802,-4.1337,-4.1337,-4.0554,-3.9407,-3.9407,-3.8899,-3.8202,-3.8202,-3.8202,-3.8202,-3.8202,-3.8202,-3.8202,-3.8202,-3.8202,-3.8202,-3.8202,-3.8565,-3.8971,-3.8971,-3.9421,-3.9886,-3.9886,-4.0002,-3.9929,-3.9334,-3.9204,-3.916,-3.9,-3.8551,-3.8507,-3.9479,-3.8855,-3.8376,-3.8884,-3.8014,-3.7302,-3.7302,-3.6591,-3.6083,-3.6083,-3.5517,-3.5328,-3.5822,-3.4965,-3.4414,-3.4414,-3.4414,-3.4414,-3.4414,-3.4414,-3.4414,-3.4414,-3.4269,-3.4269,-3.4414,-3.3808,-3.3344,-3.3038,-3.2513,-3.2208,-3.0266,-3.1072,-3.186,-3.2602,-3.2578,-3.2398,-3.2315,-3.215,-3.2179,-3.2846,-3.3426,-3.4121,-3.512,-3.5564,-3.5932,-3.6273,-3.6211,0.0,0.0,0.0,0.0,0.0,0.0,0.0,0.0,0.0,0.0,0.0,0.0,0.0,0.0,0.0,0.0,0.0,0.0,-4.5817,-4.5807,-4.5807,-4.5807,-4.5807,-4.5484,-4.489,0.0,0.0,0.0,0.0,0.0,0.0,-4.1313,-4.1434,-4.1215,-4.0894,-4.08,-4.0202,-3.9343,-3.9228,-3.8783,-3.8202,-3.8202,-3.8202,-3.8202,-3.8202,-3.8202,-3.8202,-3.8202,-3.8202,-3.826,-3.858,-3.8696,-3.8812,-3.9117,-3.9654,-4.0104,-4.0104,-4.0321,-4.0379,-3.9755,-3.9392,-3.9204,-3.9204,-3.8667,-3.8609,-3.9871,-3.9291,-3.8884,-3.9523,-3.8797,-3.8173,-3.8173,-3.7346,-3.6765,-3.6765,-3.6185,-3.5938,-3.6272,-3.5677,-3.5154,-3.4864,-3.4574,-3.4414,-3.4414,-3.4414,-3.4414,-3.4414,-3.4414,-3.4414,-3.4414,-3.4066,-3.3779,-3.3489,-3.3108,-3.2803,-2.9557,-3.0571,-3.1626,-3.2253,-3.2391,-3.2342,-3.2191,-3.2066,-3.212,-3.2696,-3.335,-3.4137,0.0,-3.5065,0.0,0.0,0.0,0.0,0.0,0.0,0.0,0.0,0.0,0.0,0.0,0.0,0.0,0.0,0.0,0.0,0.0,0.0,0.0,0.0,0.0,0.0,-4.5634,-4.5742,-4.5805,-4.5719,-4.5179,-4.4156,-4.2826,0.0,0.0,0.0,0.0,0.0,-4.0471,-4.0641,-4.0674,-4.0533,-4.0363,-3.9929,-3.9358,-3.9197,-3.8757,-3.8277,-3.8277,-3.8277,-3.824,-3.824,-3.824,-3.8202,-3.8202,-3.8202,-3.8347,-3.9015,-3.8797,-3.8507,-3.9175,-3.9784,-4.0278,-4.0379,-4.0844,-4.1033,-4.0263,-3.9697,-3.9334,-3.9334,-3.8725,-3.8667,-4.0147,-3.9741,-3.9407,-4.0002,-3.9581,-3.916,-3.9059,-3.8115,-3.7447,-3.7447,-3.6852,-3.6504,-3.6591,-3.633,-3.6025,-3.5712,-3.4965,-3.4516,-3.4414,-3.4414,-3.4414,-3.4414,-3.4414,-3.4414,-3.4414,-3.4414,-3.4138,-3.3649,-3.3649,-3.3325,-2.9277,-3.0179,-3.1036,-3.1473,-3.19,-3.2206,-3.2066,-3.1927,-3.1843,-3.1949,-3.2944,0.0,0.0,-3.4836,-3.6032,0.0,0.0,0.0,0.0,0.0,0.0,0.0,0.0,0.0,0.0,0.0,0.0,0.0,0.0,0.0,0.0,0.0,0.0,0.0,0.0,0.0,0.0,-4.5474,-4.5674,-4.5458,-4.5369,-4.4178,-4.2171,-4.2054,0.0,0.0,0.0,0.0,-4.068,-4.068,-4.0395,-3.9946,-3.9909,-3.9496,-3.8907,-3.887,-3.8811,-3.8708,-3.8708,-3.8612,-3.8441,-3.8441,-3.8329,-3.8202,-3.8202,-3.8202,-3.8347,-3.9015,-3.9131,-3.9189,-3.9799,-4.0452,-4.1091,-4.1657,-4.186,-4.1613,-4.0365,-4.0031,-3.9958,-3.9958,-3.9,-3.8971,-4.1381,-4.035,-3.9407,-4.0002,-3.9581,-3.9,-3.8434,-3.8188,-3.8072,-3.8072,-3.752,-3.736,-3.7868,-3.6431,-3.5973,-3.6954,-3.588,-3.5,-3.4428,-3.4414,-3.4414,-3.4414,-3.4414,-3.4414,-3.4414,-3.4414,-3.4356,-3.4269,-3.4269,-3.4225,-2.8756,-2.9647,-3.048,-3.0484,-3.1467,-3.2285,-3.1742,-3.1849,-3.206,-3.1975,-3.3029,0.0,0.0,0.0,0.0,0.0,0.0,0.0,0.0,0.0,0.0,0.0,0.0,0.0,0.0,0.0,0.0,0.0,0.0,0.0,0.0,0.0,0.0,0.0,0.0,0.0,0.0,-4.4576,-4.4585,-4.4396,-4.3729,-4.2672,-4.128,-4.0976,-4.0338,0.0,0.0,-3.9733,-3.9861,-3.9936,-3.9847,-3.9565,-3.9454,-3.9225,-3.8943,-3.8819,-3.8782,-3.8782,-3.8782,-3.8649,-3.8478,-3.8478,-3.8366,-3.8202,-3.8202,-3.8202,-3.826,-3.858,-3.8928,-3.9334,-3.9944,-4.0597,-4.1178,-4.1482,-4.1555,-4.1279,-4.0307,-3.9842,-3.961,-3.961,-3.8855,-3.8913,-4.1163,-4.0525,-3.99,-4.0539,-4.0104,-3.9465,-3.8826,-3.842,-3.8202,-3.8202,-3.7955,-3.7897,-3.8188,-3.7404,-3.6577,-3.5793,-3.5503,-3.5116,-3.4443,-3.4414,-3.4414,-3.4414,-3.4414,-3.4414,-3.4414,-3.4414,-3.4414,-3.4414,-3.4414,-3.4414,-2.8275,-2.9281,-3.0161,-2.9695,-3.1002,-3.2288,-3.1851,-3.2272,-3.2776,-3.286,0.0,0.0,0.0,0.0,0.0,0.0,0.0,0.0,0.0,0.0,0.0,0.0,0.0,0.0,0.0,0.0,0.0,0.0,0.0,0.0,0.0,0.0,0.0,0.0,0.0,0.0,0.0,-4.3396,-4.3313,-4.3515,-4.2367,-4.1346,-4.0456,-4.0025,-3.9468,-3.887,-3.9017,-3.9141,-3.9177,-3.9337,-3.9388,-3.9388,-3.9228,-3.9177,-3.9141,-3.898,-3.8943,-3.8943,-3.8943,-3.8797,-3.8627,-3.8627,-3.8501,-3.8352,-3.8352,-3.8352,-3.8344,-3.8452,-3.899,-3.9601,-3.9973,-4.0597,-4.1134,-4.1294,-4.1207,-4.0916,-4.0234,-3.9741,-3.9363,-3.9233,-3.8899,-3.9175,-4.0815,-4.0539,-4.0263,-4.0786,-4.0307,-3.9668,-3.9044,-3.8522,-3.8202,-3.8202,-3.8202,-3.8144,-3.7999,-3.7984,-3.7041,-3.4777,-3.4985,-3.4922,-3.4428,-3.4414,-3.4414,-3.4414,-3.4414,-3.4414,-3.4414,-3.4414,-3.4414,-3.4414,-3.4414,-3.4414,-2.8044,-2.9265,-3.0351,-2.9454,-3.0498,-3.1985,-3.2845,-3.3646,-3.4355,-3.5014,-3.6292,0.0,0.0,0.0,0.0,0.0,0.0,0.0,0.0,0.0,0.0,0.0,0.0,0.0,0.0,0.0,0.0,0.0,0.0,0.0,0.0,0.0,0.0,0.0,0.0,0.0,0.0,0.0,-4.2217,-4.3294,-4.2535,-4.1375,-3.9874,-3.9799,-3.9557,-3.9068,-3.9104,-3.9228,-3.9388,-3.9388,-3.9388,-3.9388,-3.9388,-3.9388,-3.9388,-3.9337,-3.9337,-3.9337,-3.9337,-3.9228,-3.9068,-3.9068,-3.8907,-3.8745,-3.8745,-3.8745,-3.8841,-3.927,-3.9823,-4.0295,-4.0128,-4.0597,-4.125,-4.1874,-4.1555,-4.0916,-4.0234,-4.006,-3.9871,-3.9305,-3.961,-4.0205,-4.096,-4.0539,-4.0118,-4.0162,-3.9654,-3.903,-3.8362,-3.8231,-3.8202,-3.8202,-3.8202,-3.797,-3.7418,-3.7375,-3.678,-3.5407,-3.4777,-3.4457,-3.4414,-3.4414,-3.4414,-3.4414,-3.4414,-3.4414,-3.4414,-3.4414,-3.4414,-3.4414,-3.4414,-3.4414,-2.798,-2.9275,-3.0386,-2.9579,-3.0768,-3.2518,-3.399,-3.4596,-3.4943,-3.5221,-3.6664,0.0,0.0,0.0,0.0,0.0,0.0,0.0,0.0,0.0,0.0,0.0,0.0,0.0,0.0,0.0,0.0,0.0,0.0,0.0,0.0,0.0,0.0,0.0,0.0,0.0,0.0,0.0,-4.1087,-4.1565,-4.0822,-4.0154,-3.9527,-3.9527,-3.9467,-3.9301,-3.9301,-3.9337,-3.9388,-3.9388,-3.9388,-3.9388,-3.9388,-3.9388,-3.9388,-3.9388,-3.9388,-3.9388,-3.9388,-3.9265,-3.9104,-3.9104,-3.8943,-3.8782,-3.8782,-3.8782,-3.8929,-3.9532,-4.0026,-4.0441,-4.0651,-4.1221,-4.1787,-4.2034,-4.1584,-4.0916,-4.0234,-4.0104,-3.9799,-3.8783,-3.9407,-4.006,-3.9944,-4.0365,-4.0583,-4.0162,-3.99,-3.9523,-3.8899,-3.8826,-3.8667,-3.8246,-3.8202,-3.8115,-3.7883,-3.752,-3.7099,-3.6606,-3.559,-3.482,-3.4428,-3.4414,-3.4414,-3.4414,-3.4414,-3.4414,-3.4414,-3.4414,-3.4414,-3.4414,-3.4414,-3.4414,-2.7731,-2.8824,-2.9834,-2.967,-3.1186,-3.327,-3.5241,-3.5776,-3.6038,-3.6717,-3.7729,-3.8303,-3.7656,0.0,0.0,0.0,0.0,0.0,0.0,0.0,0.0,0.0,0.0,0.0,0.0,0.0,0.0,0.0,0.0,0.0,0.0,0.0,0.0,0.0,0.0,0.0,0.0,0.0,-4.0159,-4.0146,-3.9646,-3.9388,-3.9388,-3.9388,-3.9388,-3.9388,-3.9388,-3.9388,-3.9388,-3.9388,-3.9388,-3.9388,-3.9388,-3.9388,-3.9388,-3.9388,-3.9388,-3.9388,-3.9388,-3.9301,-3.9177,-3.9177,-3.9104,-3.898,-3.898,-3.898,-3.9121,-3.9896,-4.0303,-4.0637,-4.1273,-4.1758,-4.2092,-4.2092,-4.1584,-4.0974,-4.051,-4.0408,-4.0104,-3.9015,-3.9842,-4.0525,-3.99,-4.0525,-4.0945,-4.0481,-4.0075,-3.9668,-3.9247,-3.9015,-3.871,-3.8246,-3.8391,-3.8434,-3.8217,-3.7651,-3.7302,-3.7302,-3.6272,-3.5473,-3.5024,-3.482,-3.4719,-3.4719,-3.4516,-3.4414,-3.4414,-3.4414,-3.4414,-3.4414,-3.4414,-3.4414,-2.7203,-2.7835,-2.8561,-2.9656,-3.1711,-3.4135,-3.6617,-3.7237,-3.791,-3.9979,-3.987,-3.9218,-3.861,0.0,0.0,0.0,0.0,0.0,0.0,0.0,0.0,0.0,0.0,0.0,0.0,0.0,0.0,0.0,0.0,0.0,0.0,0.0,0.0,0.0,0.0,0.0,0.0,0.0,-3.944,-3.9373,-3.9373,-3.9373,-3.9388,-3.9388,-3.9388,-3.9388,-3.9388,-3.9388,-3.9388,-3.9388,-3.9388,-3.9388,-3.9388,-3.9388,-3.9388,-3.9388,-3.9388,-3.9388,-3.9388,-3.9388,-3.9388,-3.9388,-3.9388,-3.9388,-3.9388,-3.9388,-3.9584,-4.0465,-4.0719,-4.0911,-4.1867,-4.2092,-4.2092,-4.2092,-4.1584,-4.1091,-4.1091,-4.1091,-4.0902,-4.022,-4.1178,-4.1889,-4.1207,-4.1091,-4.1105,-4.1091,-4.0017,-3.9218,-3.9204,-3.8609,-3.8202,-3.8217,-3.8797,-3.8928,-3.826,-3.7651,-3.7317,-3.7317,-3.6693,-3.6315,-3.6301,-3.5741,-3.5392,-3.5392,-3.4733,-3.4414,-3.4414,-3.4414,-3.4414,-3.4414,-3.4414,-3.4414,-2.7191,-2.7987,0.0,-2.9947,0.0,0.0,0.0,-3.7051,-3.852,0.0,-3.953,-3.8707,-3.8464,0.0,0.0,0.0,0.0,0.0,0.0,0.0,0.0,0.0,0.0,0.0,0.0,0.0,0.0,0.0,0.0,0.0,0.0,0.0,0.0,0.0,0.0,0.0,0.0,0.0,0.0,-3.8691,-3.8691,-3.8945,-3.9388,-3.9388,-3.9388,-3.9388,-3.9388,-3.9388,-3.9388,-3.9388,-3.9388,-3.9388,-3.9388,-3.9388,-3.9388,-3.9388,-3.9388,-3.9388,-3.9388,-3.9388,-3.9388,-3.9388,-3.9388,-3.9388,-3.9388,-3.9388,-3.9553,-4.0293,-4.0723,-4.1119,-4.1829,-4.2269,-4.2474,-4.2175,-4.1584,-4.096,-4.0495,-4.0771,-4.0771,-3.9683,-4.0887,-4.1729,-4.0583,-4.1178,-4.1482,-4.0539,-4.0075,-3.9683,-3.9247,-3.8609,-3.8376,-3.8855,-3.8667,-3.842,-3.8217,-3.8043,-3.7941,-3.7941,-3.7752,-3.7041,-3.5741,-3.5508,-3.5189,-3.4704,-3.4501,-3.4414,-3.4414,-3.4414,-3.4414,-3.4414,-3.4414,-3.4414,-2.6753,-2.776,0.0,-2.9652,-3.1685,-3.4031,-3.5781,0.0,0.0,0.0,0.0,0.0,0.0,0.0,0.0,0.0,0.0,0.0,0.0,0.0,0.0,0.0,0.0,0.0,0.0,0.0,0.0,0.0,0.0,0.0,0.0,0.0,0.0,0.0,0.0,0.0,0.0,0.0,0.0,0.0,-3.8003,-3.8212,-3.8631,-3.8886,-3.9155,-3.9388,-3.9388,-3.9388,-3.9388,-3.9388,-3.9388,-3.9388,-3.9388,-3.9388,-3.9388,-3.9388,-3.9388,-3.9388,-3.9388,-3.9388,-3.9388,-3.9388,-3.9388,-3.9388,-3.9388,-3.9388,-3.9523,-4.0107,-4.0665,-4.1205,-4.1735,-4.209,-4.2298,-4.2225,-4.1692,-4.1168,-4.0957,-4.1004,-4.0945,-4.0452,-4.1294,-4.1845,-4.1033,-4.1555,-4.1729,-4.0655,-4.006,-3.9509,-3.8884,-3.8681,-3.8652,-3.8797,-3.8681,-3.8492,-3.8217,-3.8202,-3.8202,-3.8202,-3.8202,-3.7462,-3.5842,-3.577,-3.543,-3.4806,-3.4545,-3.4414,-3.4414,-3.4414,-3.4414,-3.4414,-3.4414,-3.4414,-2.6041,-2.728,-2.8799,-2.9043,-3.1827,0.0,-3.703,-3.8352,-3.9708,-4.1691,0.0,0.0,0.0,0.0,0.0,0.0,0.0,0.0,0.0,0.0,0.0,0.0,0.0,0.0,0.0,0.0,0.0,0.0,0.0,0.0,0.0,0.0,0.0,0.0,0.0,0.0,0.0,0.0,0.0,0.0,0.0,-3.736,-3.7434,-3.8018,-3.8676,-3.9334,-3.9334,-3.9328,-3.9388,-3.9388,-3.9388,-3.9388,-3.9388,-3.9388,-3.9388,-3.9388,-3.9388,-3.9388,-3.9388,-3.9388,-3.9388,-3.9388,-3.9388,-3.9388,-3.9388,-3.9388,-3.9471,-3.9936,-4.05,-4.1101,-4.1484,-4.1637,-4.1789,-4.2192,-4.1789,-4.1416,-4.1756,-4.1395,-4.1192,-4.1802,-4.1961,-4.2005,-4.2005,-4.2005,-4.1758,-4.1033,-3.9886,-3.8884,-3.8275,-3.8739,-3.8884,-3.8275,-3.8754,-3.887,-3.826,-3.8202,-3.8202,-3.8202,-3.8202,-3.7636,-3.6359,-3.6301,-3.5981,-3.5319,-3.4704,-3.4414,-3.4414,-3.4414,-3.4414,-3.4414,-3.4414,-3.4414,-2.5996,-2.6687,0.0,0.0,-3.266,-3.5777,-3.779,-3.7668,-3.738,0.0,0.0,0.0,0.0,0.0,0.0,0.0,0.0,0.0,0.0,0.0,0.0,0.0,0.0,0.0,0.0,0.0,0.0,0.0,0.0,0.0,0.0,0.0,0.0,0.0,0.0,0.0,0.0,0.0,0.0,0.0,-3.6686,-3.6941,-3.7404,-3.7554,-3.7973,-3.8616,-3.8616,-3.8916,-3.9388,-3.9388,-3.9388,-3.9388,-3.9388,-3.9388,-3.9388,-3.9388,-3.9388,-3.9388,-3.9388,-3.9388,-3.9388,-3.9388,-3.9388,-3.9388,-3.9388,-3.9388,-3.9418,-3.9516,-4.0024,-4.0577,-4.0674,-4.1053,-4.1433,-4.1403,-4.0989,-4.047,-3.994,-4.0075,-4.035,-4.0495,-4.096,-4.1308,-4.1308,-4.1308,-4.0931,-3.9784,-3.8928,-3.8362,-3.8217,-3.8333,-3.8362,-3.8217,-3.8333,-3.8362,-3.8217,-3.8202,-3.8202,-3.8202,-3.8202,-3.7636,-3.6359,-3.6301,-3.5778,-3.4646,-3.4486,-3.4414,-3.4414,-3.4414,-3.4414,-3.4414,-3.4414,-3.4414,-2.6243,0.0,0.0,-3.047,0.0,-3.5358,-3.6707,-3.6486,0.0,0.0,0.0,0.0,0.0,0.0,0.0,0.0,0.0,0.0,0.0,0.0,0.0,0.0,0.0,0.0,0.0,0.0,0.0,0.0,0.0,0.0,0.0,0.0,0.0,0.0,0.0,0.0,-3.5504,-3.5504,-3.5684,-3.6013,-3.6013,-3.6193,-3.6522,-3.7135,-3.7434,-3.7494,-3.7793,-3.8123,-3.8452,-3.8452,-3.8646,-3.8931,-3.8931,-3.9125,-3.9388,-3.9388,-3.9388,-3.9388,-3.9388,-3.9388,-3.9388,-3.9388,-3.9388,-3.9388,-3.9388,-3.9388,-3.9388,-3.9388,-3.9888,-4.0397,-4.0397,-4.0651,-4.0868,-4.068,-4.0377,-4.0055,-3.9833,-3.9731,-3.9755,-4.0046,-4.0379,-4.0612,-4.0612,-4.0379,-3.9958,-3.9305,-3.8638,-3.8202,-3.8202,-3.8202,-3.8202,-3.8202,-3.8202,-3.8202,-3.8202,-3.8202,-3.8202,-3.8202,-3.8202,-3.7636,-3.6359,-3.6301,-3.5706,-3.4428,-3.4414,-3.4414,-3.4414,-3.4414,-3.4414,-3.4414,-3.4414,-3.4414,-2.6846,0.0,-3.0304,-3.1005,-3.2677,0.0,-3.4774,-3.503,0.0,0.0,0.0,0.0,0.0,0.0,0.0,0.0,0.0,0.0,0.0,0.0,0.0,0.0,0.0,0.0,0.0,0.0,0.0,0.0,0.0,0.0,0.0,0.0,0.0,0.0,0.0,0.0,-3.516,-3.5385,-3.5444,-3.5325,-3.5444,-3.5504,-3.5549,-3.6596,-3.6866,-3.6507,-3.703,-3.73,-3.7404,-3.7404,-3.7734,-3.8227,-3.8227,-3.8631,-3.923,-3.911,-3.9179,-3.9394,-3.9155,-3.9155,-3.9245,-3.9245,-3.9245,-3.926,-3.9343,-3.9388,-3.9388,-3.9388,-3.9813,-4.0232,-4.0232,-4.0232,-4.0195,-4.0033,-3.9809,-3.977,-4.0055,-3.9585,-3.9242,-3.9906,-3.9983,-3.9944,-3.9944,-3.9436,-3.903,-3.903,-3.8565,-3.8202,-3.8202,-3.8202,-3.8202,-3.8202,-3.8202,-3.8202,-3.8202,-3.8202,-3.8202,-3.8202,-3.8101,-3.752,-3.6359,-3.6199,-3.5604,-3.4428,-3.4414,-3.4414,-3.4414,-3.4414,-3.4414,-3.4414,-3.4414,-3.4414,-2.8345,0.0,-3.0208,0.0,-3.1315,-3.2796,0.0,0.0,0.0,0.0,0.0,0.0,0.0,0.0,0.0,0.0,0.0,0.0,0.0,0.0,0.0,0.0,0.0,0.0,0.0,0.0,0.0,0.0,0.0,0.0,0.0,0.0,0.0,0.0,0.0,0.0,-3.3784,-3.4921,-3.5205,-3.4653,-3.522,-3.5504,-3.5504,-3.5684,-3.6028,-3.6492,-3.6582,-3.6911,-3.7404,-3.7404,-3.7464,-3.7539,-3.7539,-3.7943,-3.8452,-3.7883,-3.8407,-3.9209,-3.8078,-3.8048,-3.8527,-3.8527,-3.8527,-3.8631,-3.923,-3.9388,-3.9388,-3.9388,-3.9448,-3.9508,-3.9508,-3.9508,-3.9508,-3.9508,-3.9362,-3.9143,-3.9033,-3.8803,-3.88,-3.9443,-3.9421,-3.932,-3.932,-3.8768,-3.8333,-3.8333,-3.826,-3.8202,-3.8202,-3.8202,-3.8202,-3.8202,-3.8202,-3.8202,-3.8202,-3.8202,-3.8202,-3.8202,-3.7709,-3.7085,-3.6344,-3.5778,-3.5189,-3.4428,-3.4414,-3.4414,-3.4414,-3.4414,-3.4414,-3.4414,-3.4414,-3.4414,-2.905,-2.9053,-2.8976,0.0,-2.94,-3.0964,-3.1296,0.0,0.0,0.0,0.0,0.0,0.0,0.0,0.0,0.0,0.0,0.0,0.0,0.0,0.0,0.0,0.0,0.0,0.0,0.0,0.0,0.0,0.0,0.0,0.0,-3.4197,-3.4122,-3.353,-3.4068,0.0,-3.3499,-3.4083,-3.4412,-3.4518,-3.5175,-3.5504,-3.5504,-3.5504,-3.5669,-3.5938,-3.5938,-3.6088,-3.6342,-3.6342,-3.6567,-3.6896,-3.6896,-3.7285,-3.7808,-3.7524,-3.7778,-3.8212,-3.7614,-3.7599,-3.7898,-3.8272,-3.8392,-3.8527,-3.9215,-3.9388,-3.9388,-3.9388,-3.9388,-3.9388,-3.9388,-3.9388,-3.9388,-3.9388,-3.9337,-3.9228,-3.9141,-3.887,-3.8774,-3.9054,-3.9038,-3.894,-3.8841,-3.8556,-3.8329,-3.8202,-3.8202,-3.8202,-3.8202,-3.8202,-3.8202,-3.8202,-3.8202,-3.8202,-3.8202,-3.8202,-3.8202,-3.8202,-3.7636,-3.7012,-3.633,-3.5741,-3.5101,-3.4428,-3.4414,-3.4414,-3.4414,-3.4414,-3.4414,-3.4414,-3.4414,-3.4414,0.0,0.0,-2.8545,-2.6952,-2.7912,-2.9312,0.0,0.0,0.0,0.0,0.0,0.0,0.0,0.0,0.0,0.0,0.0,0.0,0.0,0.0,0.0,0.0,0.0,0.0,0.0,0.0,0.0,0.0,0.0,0.0,0.0,-3.3831,-3.387,-3.3438,-3.3757,-3.3758,-3.3438,-3.3472,-3.3712,-3.4264,-3.4921,-3.525,-3.525,-3.5429,-3.5504,-3.5504,-3.5504,-3.5504,-3.5504,-3.5504,-3.5789,-3.6237,-3.6237,-3.6611,-3.715,-3.6985,-3.7135,-3.736,-3.7045,-3.703,-3.7255,-3.7749,-3.7913,-3.8063,-3.8901,-3.9155,-3.9185,-3.9328,-3.9388,-3.9388,-3.9388,-3.9388,-3.9379,-3.92,-3.929,-3.9373,-3.9265,-3.9017,-3.8782,-3.8723,-3.8723,-3.8686,-3.8516,-3.8478,-3.8441,-3.824,-3.8202,-3.8202,-3.8202,-3.8202,-3.8202,-3.8202,-3.8202,-3.8202,-3.8202,-3.8202,-3.8202,-3.8277,-3.7565,-3.691,-3.6472,-3.5685,-3.503,-3.4549,-3.4549,-3.4481,-3.4414,-3.4414,-3.4414,-3.4414,-3.4414,-3.4414,0.0,-2.9725,0.0,-2.7107,-2.7401,0.0,0.0,0.0,0.0,0.0,0.0,0.0,0.0,0.0,0.0,0.0,0.0,0.0,0.0,0.0,0.0,0.0,0.0,0.0,0.0,0.0,0.0,0.0,0.0,0.0,-3.3367,-3.3429,-3.3389,-3.3219,-3.4439,-3.4486,-3.3229,-3.333,-3.345,-3.3559,-3.4249,-3.4563,-3.4578,-3.5205,-3.5504,-3.5504,-3.5504,-3.5504,-3.5504,-3.5504,-3.5534,-3.5549,-3.5549,-3.5953,-3.6462,-3.5833,-3.6372,-3.724,-3.6028,-3.6013,-3.6537,-3.6567,-3.6582,-3.6821,-3.8063,-3.8437,-3.8571,-3.923,-3.9388,-3.9388,-3.9388,-3.9388,-3.926,-3.8601,-3.8945,-3.9301,-3.8907,-3.8819,-3.876,-3.8553,-3.8516,-3.8516,-3.8478,-3.8478,-3.8441,-3.824,-3.8202,-3.8202,-3.8202,-3.8202,-3.8202,-3.8202,-3.8202,-3.8202,-3.8202,-3.8202,-3.8277,-3.8478,-3.7309,-3.6728,-3.6875,-3.5638,-3.4898,-3.4868,-3.4868,-3.4702,-3.4414,-3.4414,-3.4414,-3.4414,-3.4414,-3.4414,0.0,0.0,0.0,-2.7406,-2.6973,0.0,0.0,0.0,0.0,0.0,0.0,0.0,0.0,0.0,0.0,0.0,0.0,0.0,0.0,0.0,0.0,0.0,0.0,0.0,0.0,0.0,0.0,0.0,0.0,0.0,-3.246,-3.2547,-3.2232,-3.1379,-3.2264,-3.273,-3.2695,-3.3172,-3.322,-3.2871,-3.3529,-3.3844,-3.3858,-3.4098,-3.4442,-3.4846,-3.4846,-3.51,-3.5504,-3.5504,-3.5504,-3.5504,-3.5504,-3.5654,-3.5833,-3.5594,-3.5789,-3.6133,-3.5669,-3.5669,-3.5923,-3.6357,-3.6492,-3.6656,-3.7509,-3.8063,-3.8347,-3.8182,-3.8437,-3.8661,-3.8242,-3.8437,-3.8811,-3.9005,-3.9245,-3.9337,-3.9068,-3.9104,-3.9141,-3.9083,-3.9083,-3.9046,-3.8922,-3.8885,-3.8811,-3.8612,-3.8612,-3.8612,-3.8612,-3.8612,-3.8612,-3.8612,-3.8612,-3.8612,-3.8612,-3.8612,-3.8612,-3.8686,-3.7496,-3.7016,-3.7514,-3.5829,-3.5093,-3.5539,-3.5108,-3.4835,-3.4735,-3.4735,-3.4735,-3.4702,-3.4616,-3.4597,-3.0837,0.0,0.0,0.0,0.0,0.0,0.0,0.0,0.0,0.0,0.0,0.0,0.0,0.0,0.0,0.0,0.0,0.0,0.0,0.0,0.0,0.0,0.0,0.0,0.0,0.0,0.0,0.0,0.0,0.0,-3.1916,-3.2031,-3.1777,-3.1119,-3.1586,-3.2069,-3.2593,-3.3036,-3.2996,-3.246,-3.3169,-3.3367,-3.317,-3.3395,-3.3858,-3.4503,-3.4503,-3.4861,-3.5504,-3.5504,-3.5504,-3.5504,-3.5504,-3.5504,-3.5504,-3.5504,-3.5504,-3.5504,-3.5504,-3.5504,-3.5579,-3.6013,-3.6148,-3.6312,-3.715,-3.7719,-3.8063,-3.8078,-3.8392,-3.8571,-3.7913,-3.7898,-3.8287,-3.92,-3.9245,-3.9104,-3.9169,-3.9265,-3.9301,-3.9301,-3.9301,-3.9265,-3.9104,-3.9104,-3.9017,-3.8819,-3.8782,-3.8782,-3.8782,-3.8782,-3.8782,-3.8782,-3.8782,-3.8782,-3.8782,-3.8782,-3.8819,-3.8907,-3.7674,-3.7192,-3.7692,-3.6033,-3.5322,-3.5751,-3.5337,-3.5115,-3.5115,-3.4968,-3.4902,-3.4902,-3.4817,-3.475,0.0,0.0,0.0,0.0,0.0,0.0,0.0,0.0,0.0,0.0,0.0,0.0,0.0,0.0,0.0,0.0,0.0,0.0,0.0,0.0,0.0,0.0,0.0,0.0,0.0,0.0,0.0,0.0,0.0,0.0,-3.1859,-3.1859,-3.2092,-3.2624,-3.2646,-3.2745,-3.2959,-3.2975,-3.2806,-3.2394,-3.3072,-3.3096,-3.2512,-3.3171,-3.383,-3.4444,-3.4444,-3.4816,-3.5474,-3.5489,-3.5504,-3.5504,-3.5504,-3.5504,-3.5504,-3.5504,-3.5504,-3.5504,-3.5504,-3.5504,-3.5504,-3.5504,-3.5504,-3.5729,-3.6985,-3.736,-3.7644,-3.891,-3.9298,-3.9215,-3.8556,-3.7883,-3.7719,-3.9065,-3.8871,-3.8571,-3.9245,-3.925,-3.9104,-3.9104,-3.9104,-3.9104,-3.9104,-3.9104,-3.9031,-3.887,-3.8819,-3.8819,-3.8819,-3.8819,-3.8819,-3.8819,-3.8819,-3.8819,-3.8819,-3.8819,-3.8892,-3.9075,-3.7836,-3.7179,-3.737,-3.6193,-3.5519,-3.5534,-3.5519,-3.5504,-3.5504,-3.5115,-3.4935,-3.4935,-3.4902,-3.4902,-3.291,0.0,0.0,0.0,0.0,0.0,0.0,0.0,0.0,0.0,0.0,0.0,0.0,0.0,0.0,0.0,0.0,0.0,0.0,0.0,0.0,0.0,0.0,0.0,0.0,0.0,0.0,0.0,0.0,-3.1451,-3.0925,-3.057,-3.0703,-3.1381,-3.1397,-3.1648,-3.2215,-3.2733,-3.2727,-3.2196,-3.2913,-3.2959,-3.2438,-3.2621,-3.2819,-3.3051,-3.3051,-3.3709,-3.4801,-3.5295,-3.5504,-3.5504,-3.5504,-3.5504,-3.5504,-3.5504,-3.5504,-3.5504,-3.5504,-3.5504,-3.5504,-3.5504,-3.5504,-3.5579,-3.5923,-3.6357,-3.6731,-3.6611,-3.7255,-3.8033,-3.8317,-3.7569,-3.706,-3.8362,-3.8527,-3.8437,-3.8631,-3.9029,-3.9301,-3.9301,-3.9301,-3.9301,-3.9301,-3.9301,-3.9301,-3.9228,-3.9228,-3.9228,-3.9228,-3.9228,-3.9228,-3.9228,-3.9228,-3.9228,-3.9228,-3.9228,-3.9056,-3.862,-3.7779,-3.7351,-3.7404,-3.6193,-3.5729,-3.6207,-3.5744,-3.5504,-3.5504,-3.5392,-3.5326,-3.5326,-3.518,-3.5034,-3.3719,-3.3716,-3.3639,0.0,0.0,0.0,0.0,-2.8,0.0,0.0,0.0,0.0,0.0,0.0,0.0,0.0,0.0,0.0,0.0,0.0,0.0,0.0,0.0,0.0,0.0,0.0,0.0,0.0,-2.9781,-3.0212,-3.0042,-2.9777,-2.9977,-3.0713,-3.0729,-3.1073,-3.1769,-3.221,-3.2278,-3.2044,-3.2771,-3.2813,-3.2291,-3.2582,-3.2903,-3.3198,-3.3198,-3.3663,-3.447,-3.515,-3.546,-3.5504,-3.5504,-3.5504,-3.5504,-3.5504,-3.5504,-3.5504,-3.5504,-3.5504,-3.5504,-3.5504,-3.5504,-3.5549,-3.5833,-3.6178,-3.6462,-3.6327,-3.6656,-3.7165,-3.7823,-3.724,-3.6731,-3.7749,-3.7973,-3.7973,-3.7973,-3.8302,-3.8751,-3.9269,-3.9388,-3.9388,-3.9388,-3.9388,-3.9388,-3.9388,-3.9388,-3.9388,-3.9388,-3.9388,-3.9388,-3.9388,-3.9388,-3.9388,-3.9388,-3.9155,-3.8811,-3.8407,-3.7524,-3.703,-3.703,-3.6043,-3.5684,-3.6073,-3.5699,-3.5504,-3.5504,-3.5504,-3.5504,-3.5504,-3.5359,-3.5261,-3.4399,-3.4623,-3.4623,0.0,0.0,0.0,-2.9124,-2.8247,0.0,0.0,0.0,0.0,0.0,0.0,0.0,0.0,0.0,0.0,0.0,0.0,0.0,0.0,0.0,0.0,0.0,0.0,0.0,-2.8276,-2.8343,-2.8674,-2.9268,-2.9301,-2.9599,-3.0241,-3.0257,-3.0572,-3.1234,-3.1399,-3.1577,-3.1751,-3.2585,-3.2699,-3.2228,-3.2881,-3.3467,-3.3999,-3.3999,-3.4042,-3.4159,-3.4742,-3.5153,-3.54,-3.5474,-3.5504,-3.5504,-3.5504,-3.5504,-3.5504,-3.5504,-3.5504,-3.5504,-3.5504,-3.5504,-3.5609,-3.6207,-3.6372,-3.6507,-3.7135,-3.6851,-3.6537,-3.7225,-3.6896,-3.6537,-3.715,-3.73,-3.73,-3.73,-3.736,-3.7764,-3.896,-3.92,-3.92,-3.92,-3.92,-3.92,-3.92,-3.92,-3.9179,-3.929,-3.9305,-3.9298,-3.9373,-3.9313,-3.9305,-3.9305,-3.8736,-3.8332,-3.8182,-3.718,-3.6537,-3.6387,-3.5818,-3.5504,-3.5504,-3.5504,-3.5504,-3.5504,-3.5504,-3.5504,-3.5504,-3.5504,-3.5504,0.0,0.0,0.0,0.0,0.0,0.0,-3.444,-3.2671,0.0,0.0,0.0,0.0,0.0,0.0,0.0,0.0,0.0,0.0,0.0,0.0,0.0,0.0,0.0,0.0,0.0,0.0,0.0,-2.7514,-2.8061,-2.8459,-2.8591,-2.8608,-2.8674,-2.8807,-2.8807,-2.889,-2.9022,-3.0162,-3.0728,-3.0787,-3.2111,-3.2779,-3.282,-3.2974,-3.2927,-3.2748,-3.2748,-3.2798,-3.287,-3.2976,-3.3681,-3.4758,-3.5295,-3.5504,-3.5504,-3.5504,-3.5504,-3.5504,-3.5504,-3.5504,-3.5504,-3.5504,-3.5504,-3.5534,-3.5654,-3.5699,-3.5833,-3.6492,-3.6193,-3.5968,-3.7105,-3.6552,-3.5863,-3.6507,-3.6671,-3.6671,-3.6671,-3.706,-3.7494,-3.7749,-3.7793,-3.7793,-3.7793,-3.7793,-3.7793,-3.7793,-3.7793,-3.8003,-3.8527,-3.8601,-3.8796,-3.9328,-3.8931,-3.8601,-3.8601,-3.8467,-3.7943,-3.6926,-3.709,-3.6761,-3.5744,-3.5579,-3.5504,-3.5504,-3.5504,-3.5504,-3.5504,-3.5504,-3.5504,-3.5504,-3.5504,-3.5504,0.0,0.0,0.0,-3.5688,0.0,0.0,0.0,-3.3326,0.0,0.0,0.0,0.0,0.0,0.0,0.0,0.0,0.0,0.0,0.0,0.0,0.0,0.0,0.0,0.0,0.0,0.0,-2.637,-2.6717,-2.7081,-2.7446,-2.7829,-2.7845,-2.8011,-2.8392,-2.8392,-2.8558,-2.8903,-2.9595,-3.0141,-3.0506,-3.1636,-3.2193,-3.2305,-3.2672,-3.295,-3.3093,-3.2827,-3.2759,-3.2834,-3.2932,-3.3351,-3.4053,-3.4726,-3.5205,-3.5504,-3.5504,-3.5504,-3.5504,-3.5504,-3.5504,-3.5504,-3.5504,-3.5504,-3.5504,-3.5504,-3.5504,-3.5579,-3.5908,-3.5759,-3.5654,-3.6297,-3.5983,-3.5594,-3.5923,-3.5998,-3.5998,-3.5998,-3.6237,-3.6462,-3.6462,-3.6462,-3.6656,-3.73,-3.7404,-3.7404,-3.7404,-3.7404,-3.7524,-3.7853,-3.7898,-3.8033,-3.8377,-3.8108,-3.7898,-3.7898,-3.7629,-3.7165,-3.6522,-3.6462,-3.6178,-3.5534,-3.5504,-3.5504,-3.5504,-3.5504,-3.5504,-3.5504,-3.5504,-3.5504,-3.5504,-3.5504,-3.5504,0.0,0.0,0.0,0.0,0.0,-3.5707,0.0,0.0,0.0,0.0,0.0,0.0,0.0,0.0,0.0,0.0,0.0,0.0,0.0,0.0,0.0,0.0,0.0,0.0,0.0,0.0,0.0,-2.6169,-2.6528,-2.6844,-2.7083,-2.7083,-2.7365,-2.7961,-2.7978,-2.8241,-2.8768,-2.9069,-2.9516,-3.0108,-3.0969,-3.1466,-3.1615,-3.2216,-3.2854,-3.3447,-3.3,-3.2838,-3.2873,-3.2995,-3.3136,-3.338,-3.4204,-3.4906,-3.5504,-3.5504,-3.5504,-3.5504,-3.5504,-3.5504,-3.5504,-3.5504,-3.5504,-3.5504,-3.5504,-3.5504,-3.5504,-3.5504,-3.5504,-3.5504,-3.5504,-3.5504,-3.5504,-3.5504,-3.5504,-3.5504,-3.5504,-3.5504,-3.5504,-3.5504,-3.5504,-3.5833,-3.6866,-3.7045,-3.7045,-3.7045,-3.7045,-3.709,-3.721,-3.724,-3.7285,-3.7404,-3.73,-3.724,-3.724,-3.6776,-3.6432,-3.6312,-3.5923,-3.5639,-3.5504,-3.5504,-3.5504,-3.5504,-3.5504,-3.5504,-3.5504,-3.5504,-3.5504,-3.5504,-3.5504,-3.5504,0.0,0.0,0.0,0.0,-3.6164,0.0,0.0,0.0,0.0,0.0,0.0,0.0,0.0,0.0,0.0,0.0,0.0,0.0,0.0,0.0,0.0,0.0,0.0,0.0,0.0,0.0,0.0,0.0,-2.7741,-2.8001,-2.6417,-2.6318,-2.6369,-2.6434,-2.6434,-2.6501,-2.655,-2.786,-2.8558,-2.8658,-2.9996,-3.0969,-3.1598,-3.1697,-3.1945,-3.2289,-3.2238,-3.2004,-3.1697,-3.1715,-3.2092,-3.2751,-3.4024,-3.4906,-3.5504,-3.5504,-3.5504,-3.5504,-3.5504,-3.5504,-3.5504,-3.5504,-3.5504,-3.5504,-3.5504,-3.5504,-3.5504,-3.5504,-3.5504,-3.5504,-3.5504,-3.5504,-3.5504,-3.5504,-3.5504,-3.5504,-3.5504,-3.5504,-3.5504,-3.5504,-3.5504,-3.5549,-3.5699,-3.5729,-3.5729,-3.5729,-3.5729,-3.5923,-3.6522,-3.6596,-3.6806,-3.7345,-3.6911,-3.6596,-3.6596,-3.6537,-3.6237,-3.5654,-3.6088,-3.6118,-3.5534,-3.5504,-3.5504,-3.5504,-3.5504,-3.5504,-3.5504,-3.5504,-3.5504,-3.5504,-3.5504,-3.5504,0.0,0.0,0.0,0.0,0.0,0.0,0.0,0.0,-3.6616,0.0,0.0,0.0,0.0,0.0,0.0,0.0,0.0,0.0,0.0,0.0,0.0,0.0,0.0,0.0,0.0,0.0,0.0,0.0,0.0,-2.6609,-2.6219,-2.6202,-2.6202,-2.6202,-2.6202,-2.6419,-2.6816,-2.7448,-2.8177,-2.8986,-2.9579,-3.0241,-3.0952,-3.0952,-3.1276,-3.1808,-3.1545,-3.1623,-3.1828,-3.1617,-3.1899,-3.2572,-3.3125,-3.3978,-3.4966,-3.5355,-3.5504,-3.5504,-3.5504,-3.5504,-3.5504,-3.5504,-3.5504,-3.5504,-3.5504,-3.5504,-3.5504,-3.5504,-3.5504,-3.5504,-3.5504,-3.5504,-3.5504,-3.5504,-3.5504,-3.5504,-3.5504,-3.5504,-3.5504,-3.5504,-3.5504,-3.5504,-3.5504,-3.5504,-3.5504,-3.5504,-3.5504,-3.5609,-3.5878,-3.5923,-3.6013,-3.6282,-3.6073,-3.5923,-3.5923,-3.5923,-3.5804,-3.5519,-3.5759,-3.5789,-3.5519,-3.5504,-3.5504,-3.5504,-3.5504,-3.5504,-3.5504,-3.5504,-3.5504,-3.5504,-3.5504,-3.5504,-3.4936,0.0,0.0,0.0,0.0,0.0,0.0,0.0,0.0,0.0,0.0,0.0,0.0,0.0,0.0,0.0,0.0,0.0,0.0,0.0,0.0,0.0,0.0,0.0,0.0,0.0,0.0,0.0,0.0,0.0,-2.5887,-2.6086,-2.6202,-2.6202,-2.6202,-2.6468,-2.7,-2.7199,-2.7912,-2.9135,-2.9297,-2.9777,-3.0506,-3.0506,-3.0802,-3.1375,-3.1301,-3.1489,-3.1873,-3.1789,-3.1954,-3.2228,-3.2437,-3.3095,-3.4038,-3.4906,-3.522,-3.525,-3.5444,-3.5504,-3.5504,-3.5504,-3.5504,-3.5504,-3.5504,-3.5504,-3.5504,-3.5504,-3.5504,-3.5504,-3.5504,-3.5504,-3.5504,-3.5504,-3.5504,-3.5504,-3.5504,-3.5504,-3.5504,-3.5504,-3.5504,-3.5504,-3.5504,-3.5504,-3.5504,-3.5504,-3.5504,-3.5504,-3.5504,-3.5504,-3.5504,-3.5504,-3.5504,-3.5504,-3.5504,-3.5504,-3.5504,-3.5504,-3.5504,-3.5504,-3.5504,-3.5504,-3.5504,-3.5504,-3.5504,-3.5504,-3.5504,-3.5504,-3.5504,-3.5504,-3.5504,-3.5504,0.0,0.0,0.0,-3.6287,0.0,0.0,0.0,0.0,-3.4971,0.0,0.0,0.0,0.0,0.0,-3.5351,-3.5307,-3.5538,0.0,0.0,0.0,0.0,0.0,0.0,0.0,0.0,0.0,0.0,0.0,-2.7499,0.0,-2.5225,-2.5805,-2.6202,-2.6202,-2.6202,-2.6202,-2.6235,-2.695,-2.768,-2.8442,-2.9085,-2.9777,-3.0506,-3.0506,-3.063,-3.0849,-3.1577,-3.1663,-3.1374,-3.2078,-3.2038,-3.16,-3.2243,-3.2542,-3.2736,-3.4038,-3.4533,-3.4638,-3.5265,-3.5504,-3.5504,-3.5504,-3.5504,-3.5504,-3.5504,-3.5504,-3.5504,-3.5504,-3.5504,-3.5504,-3.5504,-3.5504,-3.5504,-3.5504,-3.5504,-3.5504,-3.5504,-3.5504,-3.5504,-3.5504,-3.5504,-3.5504,-3.5504,-3.5504,-3.5504,-3.5504,-3.5504,-3.5504,-3.5504,-3.5504,-3.5504,-3.5504,-3.5504,-3.5504,-3.5504,-3.5504,-3.5504,-3.5504,-3.5504,-3.5504,-3.5504,-3.5504,-3.5504,-3.5504,-3.5504,-3.5504,-3.5504,-3.5504,-3.5504,-3.5504,-3.5504,-3.5504,0.0,0.0,-3.1612,-3.4423,0.0,0.0,0.0,0.0,0.0,0.0,0.0,0.0,0.0,-3.5447,-3.5371,-3.4977,-3.4994,-3.5075,0.0,0.0,0.0,0.0,0.0,0.0,0.0,0.0,0.0,-2.6164,-2.5749,0.0,0.0,-2.5788,-2.6202,-2.6202,-2.6202,-2.6202,-2.6202,-2.6452,-2.7181,-2.8392,-2.8641,-2.9367,-3.0506,-3.0506,-3.0537,-3.0663,-3.1521,-3.1823,-3.1761,-3.2583,-3.2614,-3.2135,-3.2752,-3.2497,-3.1989,-3.3335,-3.3829,-3.3918,-3.4592,-3.513,-3.5504,-3.5504,-3.5504,-3.5504,-3.5504,-3.5504,-3.5504,-3.5504,-3.5504,-3.5504,-3.5504,-3.5504,-3.5504,-3.5504,-3.5504,-3.5504,-3.5504,-3.5504,-3.5504,-3.5504,-3.5504,-3.5504,-3.5504,-3.5504,-3.5504,-3.5504,-3.5504,-3.5504,-3.5504,-3.5504,-3.5504,-3.5504,-3.5504,-3.5504,-3.5504,-3.5504,-3.5504,-3.5504,-3.5504,-3.5504,-3.5504,-3.5504,-3.5504,-3.5504,-3.5504,-3.5504,-3.5504,-3.5504,-3.5504,-3.5504,-3.5504,-3.5504,-3.0901,-3.043,0.0,0.0,-3.2707,0.0,-3.4336,0.0,0.0,0.0,0.0,0.0,0.0,0.0,-3.4723,-3.3918,-3.4175,-3.4471,0.0,-3.4461,0.0,0.0,0.0,0.0,0.0,0.0,-2.6501,-2.555,-2.5092,-2.4813,0.0,0.0,-2.5956,-2.6185,-2.6202,-2.6202,-2.6202,-2.6202,-2.6949,-2.8392,-2.8392,-2.9135,-3.0506,-3.0506,-3.0506,-3.0551,-3.1434,-3.182,-3.1957,-3.2782,-3.2966,-3.2722,-3.3066,-3.2765,-3.2278,-3.3139,-3.3638,-3.3933,-3.4607,-3.513,-3.5504,-3.5504,-3.5504,-3.5504,-3.5504,-3.5504,-3.5549,-3.5789,-3.5684,-3.5549,-3.5789,-3.5684,-3.5504,-3.5504,-3.5504,-3.5504,-3.5504,-3.5504,-3.5504,-3.5504,-3.5504,-3.5504,-3.5504,-3.5504,-3.5504,-3.5504,-3.5504,-3.5504,-3.5504,-3.5504,-3.5504,-3.5504,-3.5504,-3.5504,-3.5504,-3.5504,-3.5504,-3.5504,-3.5504,-3.5504,-3.5504,-3.5504,-3.5609,-3.5848,-3.5624,-3.5624,-3.5848,-3.5624,-3.5504,-3.5504,-3.5504,-3.5504]},{"header":{"parameterUnit":"m.s-1","parameterCategory":1,"la1":30.6,"la2":29.2853,"lo1":-89.7004,"lo2":-87.6739,"dy":0.0162,"dx":0.0183,"nx":112,"ny":82,"refTime":"2023-07-02T12:00:00:Z","depth":0,"parameterNumber":3,"parameterNumberName":"V-component_of_WINDS"},"data":[0.0,0.0,0.0,0.0,0.0,0.0,0.0,0.0,0.0,0.0,0.0,0.0,0.0,0.0,0.0,0.0,0.0,0.0,0.0,0.0,0.0,0.0,0.0,0.0,0.0,0.0,0.0,0.0,0.0,0.0,0.0,0.0,0.0,0.0,0.0,0.0,0.0,0.0,0.0,0.0,0.0,0.0,0.0,0.0,0.0,0.0,0.0,0.0,0.0,0.0,0.0,0.0,0.0,0.0,0.0,0.0,0.0,0.0,0.0,0.0,0.0,0.0,0.0,0.0,0.0,0.0,0.0,0.0,0.0,0.0,0.0,0.0,0.0,0.0,0.0,0.0,0.0,0.0,0.0,0.0,0.0,0.0,0.0,0.0,0.0,0.0,0.0,0.0,0.0,0.0,0.0,-2.041,-2.3073,-2.4662,-2.4662,-2.3954,-2.2661,-2.0676,0.0,0.0,0.0,0.0,0.0,0.0,0.0,0.0,0.0,0.0,0.0,0.0,0.0,0.0,0.0,0.0,0.0,0.0,0.0,0.0,0.0,0.0,0.0,0.0,0.0,0.0,0.0,0.0,0.0,0.0,0.0,0.0,0.0,0.0,0.0,0.0,0.0,0.0,0.0,0.0,0.0,0.0,0.0,0.0,0.0,0.0,0.0,0.0,0.0,0.0,0.0,0.0,0.0,0.0,0.0,0.0,0.0,0.0,0.0,0.0,0.0,0.0,0.0,0.0,0.0,0.0,0.0,0.0,0.0,0.0,0.0,0.0,0.0,0.0,0.0,0.0,0.0,0.0,0.0,0.0,0.0,0.0,0.0,0.0,0.0,0.0,0.0,0.0,0.0,0.0,0.0,0.0,0.0,0.0,0.0,0.0,0.0,0.0,0.0,0.0,0.0,0.0,0.0,0.0,-1.8678,-2.1077,-2.3022,-2.4117,-2.4117,-2.2338,-2.1319,-2.1647,0.0,0.0,0.0,0.0,0.0,0.0,0.0,0.0,0.0,0.0,0.0,0.0,0.0,0.0,0.0,0.0,0.0,0.0,0.0,0.0,0.0,0.0,0.0,0.0,0.0,0.0,0.0,0.0,0.0,0.0,0.0,0.0,0.0,0.0,0.0,0.0,0.0,0.0,0.0,0.0,0.0,0.0,0.0,0.0,0.0,0.0,0.0,0.0,0.0,0.0,0.0,0.0,0.0,0.0,0.0,0.0,0.0,0.0,0.0,0.0,0.0,0.0,0.0,0.0,0.0,0.0,0.0,0.0,0.0,0.0,0.0,0.0,0.0,0.0,0.0,0.0,0.0,0.0,0.0,0.0,0.0,0.0,0.0,0.0,0.0,0.0,0.0,0.0,0.0,0.0,0.0,0.0,0.0,0.0,0.0,0.0,0.0,0.0,0.0,0.0,0.0,0.0,0.0,-1.9625,-2.0681,-2.2748,-2.3649,-2.4147,-2.4196,-2.2103,-2.1042,-2.1659,-2.0276,0.0,0.0,0.0,0.0,0.0,0.0,0.0,0.0,0.0,0.0,0.0,0.0,0.0,0.0,0.0,0.0,0.0,0.0,0.0,0.0,0.0,0.0,0.0,0.0,0.0,0.0,0.0,0.0,0.0,0.0,0.0,0.0,0.0,0.0,0.0,0.0,0.0,0.0,0.0,0.0,0.0,0.0,0.0,0.0,0.0,0.0,0.0,0.0,0.0,0.0,0.0,0.0,0.0,0.0,0.0,0.0,0.0,0.0,0.0,0.0,0.0,0.0,0.0,0.0,0.0,0.0,0.0,0.0,0.0,0.0,0.0,0.0,0.0,0.0,0.0,0.0,0.0,0.0,0.0,0.0,0.0,0.0,0.0,0.0,0.0,0.0,0.0,0.0,0.0,0.0,0.0,0.0,0.0,0.0,0.0,0.0,0.0,0.0,0.0,0.0,0.0,0.0,-2.1105,-2.2041,-2.3471,-2.3872,-2.4035,-2.4016,-2.1878,-2.0887,-2.1616,-2.0021,0.0,0.0,0.0,0.0,0.0,0.0,0.0,0.0,0.0,0.0,0.0,0.0,0.0,0.0,0.0,0.0,0.0,0.0,0.0,0.0,0.0,0.0,0.0,0.0,0.0,0.0,0.0,0.0,0.0,0.0,0.0,0.0,0.0,0.0,0.0,0.0,0.0,0.0,0.0,0.0,0.0,0.0,0.0,0.0,0.0,0.0,0.0,0.0,0.0,0.0,0.0,0.0,0.0,0.0,0.0,0.0,0.0,0.0,0.0,0.0,0.0,0.0,0.0,0.0,0.0,0.0,0.0,0.0,0.0,0.0,0.0,0.0,0.0,0.0,0.0,0.0,0.0,0.0,0.0,0.0,0.0,0.0,0.0,0.0,0.0,0.0,0.0,0.0,0.0,0.0,0.0,0.0,0.0,0.0,0.0,0.0,0.0,0.0,0.0,0.0,0.0,0.0,-2.0641,-2.1335,-2.1832,-2.2936,-2.3445,-2.2949,-2.0822,-2.0261,-2.2044,-2.068,0.0,0.0,0.0,0.0,0.0,0.0,0.0,0.0,0.0,0.0,0.0,0.0,0.0,0.0,0.0,0.0,0.0,0.0,0.0,0.0,0.0,0.0,0.0,0.0,0.0,0.0,0.0,0.0,0.0,0.0,0.0,0.0,0.0,0.0,0.0,0.0,0.0,0.0,0.0,0.0,0.0,0.0,0.0,0.0,0.0,0.0,0.0,0.0,0.0,0.0,0.0,0.0,0.0,0.0,0.0,0.0,0.0,0.0,0.0,0.0,0.0,0.0,0.0,0.0,0.0,0.0,0.0,0.0,0.0,0.0,0.0,0.0,0.0,0.0,0.0,0.0,0.0,0.0,0.0,0.0,0.0,0.0,0.0,0.0,0.0,0.0,0.0,0.0,0.0,0.0,0.0,0.0,0.0,0.0,0.0,0.0,0.0,0.0,0.0,0.0,0.0,0.0,-2.1298,-2.1173,0.0,-2.2377,-2.2345,-2.1549,-2.028,-2.0246,-2.1914,0.0,0.0,0.0,0.0,0.0,0.0,0.0,0.0,0.0,0.0,0.0,0.0,0.0,0.0,0.0,0.0,0.0,0.0,0.0,0.0,0.0,0.0,0.0,0.0,0.0,0.0,0.0,0.0,0.0,0.0,0.0,0.0,0.0,0.0,0.0,0.0,0.0,0.0,0.0,0.0,0.0,0.0,0.0,0.0,0.0,0.0,0.0,0.0,0.0,0.0,0.0,0.0,0.0,0.0,0.0,0.0,0.0,0.0,0.0,0.0,0.0,0.0,0.0,0.0,0.0,0.0,0.0,0.0,0.0,0.0,0.0,0.0,0.0,0.0,0.0,0.0,0.0,0.0,0.0,0.0,0.0,0.0,0.0,0.0,0.0,0.0,0.0,0.0,0.0,0.0,0.0,0.0,0.0,0.0,0.0,0.0,0.0,0.0,0.0,0.0,0.0,0.0,-2.2517,-2.1742,-2.1328,0.0,-2.2169,-2.1861,-2.1002,-1.9636,-1.9724,-2.1819,0.0,0.0,0.0,0.0,0.0,0.0,0.0,0.0,0.0,0.0,0.0,0.0,0.0,0.0,0.0,0.0,0.0,0.0,0.0,0.0,0.0,0.0,0.0,0.0,0.0,0.0,0.0,0.0,0.0,0.0,0.0,0.0,0.0,0.0,0.0,0.0,0.0,0.0,0.0,0.0,0.0,0.0,0.0,0.0,0.0,0.0,0.0,0.0,0.0,0.0,0.0,0.0,0.0,0.0,0.0,0.0,0.0,0.0,0.0,0.0,0.0,0.0,0.0,0.0,0.0,0.0,0.0,0.0,0.0,0.0,0.0,0.0,0.0,0.0,0.0,0.0,0.0,0.0,0.0,0.0,0.0,0.0,0.0,0.0,0.0,0.0,0.0,0.0,0.0,0.0,0.0,0.0,0.0,0.0,0.0,0.0,0.0,0.0,0.0,0.0,0.0,0.0,-2.2084,-2.1771,-2.1655,-2.2133,-2.2293,-2.2139,-2.1525,-1.8858,-1.8615,0.0,0.0,0.0,0.0,0.0,0.0,0.0,0.0,0.0,0.0,0.0,0.0,0.0,0.0,0.0,0.0,0.0,0.0,0.0,0.0,0.0,0.0,0.0,0.0,0.0,0.0,0.0,0.0,0.0,0.0,0.0,0.0,0.0,0.0,0.0,0.0,0.0,0.0,0.0,0.0,0.0,0.0,0.0,0.0,0.0,0.0,0.0,0.0,0.0,0.0,0.0,0.0,0.0,0.0,0.0,0.0,0.0,0.0,0.0,0.0,0.0,0.0,0.0,0.0,0.0,0.0,0.0,0.0,0.0,0.0,0.0,0.0,0.0,0.0,0.0,0.0,0.0,0.0,0.0,0.0,0.0,0.0,0.0,0.0,0.0,0.0,0.0,0.0,0.0,0.0,0.0,0.0,0.0,0.0,0.0,0.0,0.0,0.0,0.0,0.0,0.0,0.0,0.0,-2.2766,-2.1409,-2.0531,-2.1068,-2.1172,-2.0792,-1.976,-1.8545,-1.9026,-2.1834,0.0,0.0,0.0,0.0,0.0,0.0,0.0,0.0,0.0,0.0,0.0,0.0,0.0,0.0,0.0,0.0,0.0,0.0,0.0,0.0,0.0,0.0,0.0,0.0,0.0,0.0,0.0,0.0,0.0,0.0,0.0,0.0,0.0,0.0,0.0,0.0,0.0,0.0,0.0,0.0,0.0,0.0,0.0,0.0,0.0,0.0,0.0,0.0,0.0,0.0,0.0,0.0,0.0,0.0,0.0,0.0,0.0,0.0,0.0,0.0,0.0,0.0,0.0,0.0,0.0,0.0,0.0,0.0,0.0,0.0,0.0,0.0,0.0,0.0,0.0,0.0,0.0,0.0,0.0,0.0,0.0,0.0,0.0,0.0,0.0,0.0,0.0,0.0,0.0,0.0,0.0,0.0,0.0,0.0,0.0,0.0,0.0,0.0,0.0,0.0,0.0,0.0,-2.3442,-2.1619,-2.0478,-2.1302,-2.0974,-2.0424,-1.9679,-1.8257,-1.8475,-2.0974,0.0,0.0,0.0,0.0,0.0,0.0,0.0,0.0,0.0,0.0,0.0,0.0,0.0,0.0,0.0,0.0,0.0,0.0,0.0,0.0,0.0,0.0,0.0,0.0,0.0,0.0,0.0,0.0,0.0,0.0,0.0,0.0,0.0,0.0,0.0,0.0,0.0,0.0,0.0,0.0,0.0,0.0,0.0,0.0,0.0,0.0,0.0,0.0,0.0,0.0,0.0,0.0,0.0,0.0,0.0,0.0,0.0,0.0,0.0,0.0,0.0,0.0,0.0,0.0,0.0,0.0,0.0,0.0,0.0,0.0,0.0,0.0,0.0,0.0,0.0,0.0,0.0,0.0,0.0,0.0,0.0,0.0,0.0,0.0,0.0,0.0,0.0,0.0,0.0,0.0,0.0,0.0,0.0,0.0,0.0,0.0,0.0,0.0,0.0,0.0,0.0,0.0,-2.4,-2.2164,-2.1105,-2.2113,-2.1328,-2.066,-2.0555,-1.8044,-1.7428,-1.965,0.0,0.0,0.0,0.0,0.0,0.0,0.0,0.0,0.0,0.0,0.0,0.0,0.0,0.0,0.0,0.0,0.0,0.0,0.0,0.0,0.0,0.0,0.0,0.0,0.0,0.0,0.0,0.0,0.0,0.0,0.0,0.0,0.0,0.0,0.0,0.0,0.0,0.0,0.0,0.0,0.0,0.0,0.0,0.0,0.0,0.0,0.0,0.0,0.0,0.0,0.0,0.0,0.0,0.0,0.0,0.0,0.0,0.0,0.0,0.0,-1.7678,0.0,0.0,0.0,0.0,0.0,0.0,0.0,0.0,0.0,0.0,0.0,0.0,0.0,0.0,0.0,0.0,0.0,0.0,0.0,0.0,0.0,0.0,0.0,0.0,0.0,0.0,0.0,0.0,0.0,0.0,0.0,0.0,0.0,0.0,0.0,0.0,0.0,0.0,0.0,0.0,0.0,-2.4201,-2.2228,-2.0791,-2.1053,-2.0856,-2.0332,-1.9355,-1.7891,-1.7776,-1.9542,0.0,0.0,0.0,0.0,0.0,0.0,0.0,0.0,0.0,0.0,0.0,0.0,0.0,0.0,0.0,0.0,0.0,0.0,0.0,0.0,0.0,0.0,0.0,0.0,0.0,0.0,0.0,0.0,0.0,0.0,0.0,0.0,0.0,0.0,0.0,0.0,0.0,0.0,0.0,0.0,0.0,0.0,0.0,0.0,0.0,0.0,0.0,0.0,0.0,0.0,0.0,0.0,0.0,0.0,0.0,0.0,0.0,0.0,0.0,0.0,0.0,-1.8728,0.0,0.0,0.0,0.0,0.0,0.0,0.0,0.0,0.0,0.0,0.0,0.0,0.0,0.0,0.0,0.0,0.0,0.0,0.0,0.0,0.0,0.0,0.0,0.0,0.0,0.0,0.0,0.0,0.0,0.0,0.0,0.0,0.0,0.0,0.0,0.0,0.0,0.0,0.0,0.0,-2.4545,-2.2376,-2.0804,-2.1066,-2.1093,-2.0622,-1.9433,-1.8283,-1.7881,-1.84,-1.918,0.0,0.0,0.0,0.0,0.0,0.0,0.0,0.0,0.0,0.0,0.0,0.0,0.0,0.0,0.0,0.0,0.0,0.0,0.0,0.0,0.0,0.0,0.0,0.0,0.0,0.0,0.0,0.0,0.0,0.0,0.0,0.0,0.0,0.0,0.0,0.0,0.0,0.0,0.0,0.0,0.0,0.0,0.0,0.0,0.0,0.0,0.0,0.0,0.0,0.0,0.0,0.0,0.0,0.0,0.0,-2.7436,-2.7203,-2.6892,-2.6392,-2.3604,-2.1617,-2.0283,0.0,0.0,0.0,0.0,0.0,0.0,0.0,0.0,0.0,0.0,0.0,0.0,0.0,0.0,0.0,0.0,0.0,0.0,0.0,0.0,0.0,0.0,0.0,0.0,0.0,-2.2946,-2.197,0.0,0.0,0.0,0.0,0.0,0.0,0.0,0.0,0.0,0.0,0.0,0.0,-2.4599,-2.2458,-2.1014,-2.1459,-2.1511,-2.1015,-1.9747,-1.8702,-1.7839,-1.7238,-1.85,-1.9522,0.0,0.0,0.0,0.0,0.0,0.0,0.0,0.0,0.0,0.0,0.0,0.0,0.0,0.0,0.0,0.0,0.0,0.0,0.0,0.0,0.0,0.0,0.0,0.0,0.0,0.0,0.0,0.0,0.0,0.0,0.0,0.0,-1.6391,-1.628,0.0,0.0,0.0,0.0,0.0,0.0,0.0,0.0,0.0,0.0,0.0,0.0,0.0,0.0,-2.936,-3.0175,-3.0391,-3.0078,-3.2267,-3.2267,-3.0444,-3.1368,-3.1238,-3.0251,-2.9284,0.0,-2.2609,-2.2078,0.0,0.0,0.0,0.0,0.0,0.0,0.0,0.0,0.0,0.0,0.0,0.0,0.0,0.0,0.0,0.0,0.0,0.0,0.0,0.0,0.0,0.0,-2.1792,-2.2385,-2.2494,-2.2205,0.0,-2.1825,-2.2365,-2.2163,0.0,0.0,0.0,0.0,0.0,0.0,0.0,0.0,-2.3432,-2.222,-2.142,-2.1498,-2.1511,-2.0832,-1.9159,-1.8453,-1.7839,-1.7238,-1.7725,-1.8996,-2.1099,-2.1312,0.0,0.0,0.0,0.0,0.0,0.0,0.0,0.0,0.0,0.0,0.0,0.0,0.0,0.0,0.0,0.0,0.0,0.0,0.0,0.0,0.0,0.0,0.0,0.0,0.0,0.0,0.0,0.0,0.0,-1.7144,-1.7985,-1.7538,-1.8975,-1.9773,0.0,0.0,0.0,0.0,0.0,0.0,0.0,0.0,0.0,-2.9714,-3.0727,-3.1706,-3.2615,-3.3578,-3.41,-3.4233,-3.4995,-3.5012,-3.4358,-3.4228,-3.3888,-3.3378,-3.2473,-3.0535,-2.7886,-2.5937,-2.405,-2.2426,0.0,0.0,0.0,0.0,0.0,0.0,-2.1272,0.0,0.0,0.0,0.0,0.0,0.0,0.0,0.0,0.0,0.0,0.0,0.0,0.0,0.0,-2.4279,-2.4321,-2.4227,-2.3965,-2.3701,-2.3303,0.0,-2.2923,-2.4164,-2.6541,0.0,0.0,0.0,0.0,0.0,-2.3003,-2.2406,-2.1773,-2.1119,-2.1629,-2.1315,-1.9551,-1.8885,-1.831,-1.7735,-1.7765,-1.8262,-1.9315,-2.0797,-2.2433,0.0,0.0,0.0,0.0,0.0,0.0,0.0,0.0,0.0,0.0,0.0,0.0,0.0,0.0,0.0,0.0,0.0,0.0,0.0,0.0,0.0,0.0,0.0,0.0,0.0,0.0,0.0,0.0,-1.8707,-1.9556,-1.8677,-2.0703,-2.1733,0.0,0.0,0.0,0.0,0.0,0.0,-2.9347,-3.0727,-3.1901,-3.2942,-3.4386,-3.5314,-3.573,-3.6567,-3.7142,-3.7429,-3.7142,-3.709,-3.7207,-3.6488,-3.5926,-3.5456,-3.4607,-3.3526,-3.2087,-2.9118,-2.6584,-2.4546,-2.4423,-2.3952,0.0,-2.3159,-2.3323,-2.3523,-2.3289,-2.3144,-2.2991,-2.2696,0.0,-2.189,-2.1413,0.0,0.0,0.0,0.0,-2.5398,-2.5254,0.0,-2.6478,-2.6478,-2.6478,-2.6438,-2.6263,-2.5651,-2.4665,0.0,-2.3538,-2.4798,-2.6794,0.0,0.0,0.0,0.0,-2.2524,-2.2751,-2.2563,-2.2074,-2.1236,-2.1747,-2.1538,-1.9943,-1.9251,-1.8675,-1.8127,-1.8015,-1.7968,-1.7968,-2.0194,-2.162,-2.2017,0.0,0.0,0.0,0.0,0.0,0.0,0.0,0.0,0.0,0.0,0.0,0.0,0.0,0.0,0.0,0.0,0.0,0.0,0.0,0.0,0.0,0.0,0.0,0.0,0.0,0.0,0.0,0.0,0.0,-1.9268,-2.2122,0.0,0.0,0.0,0.0,-2.6237,-2.8775,-3.0535,-3.1132,-3.2985,-3.4842,-3.6698,-3.7377,-3.8253,-3.9337,-3.9403,-3.9155,-3.8632,-3.9168,-3.888,-3.7874,-3.8331,-3.7639,-3.6057,-3.6005,-3.5051,-3.3285,-3.0388,-2.873,-2.7841,-2.6711,-2.6503,-2.6801,-2.6335,-2.5934,-2.5666,-2.5639,-2.5382,-2.5116,-2.5456,-2.5574,-2.5369,-2.4397,-2.4808,0.0,0.0,-2.5738,-2.6497,-2.5916,-2.7013,-2.8289,-2.8289,-2.8289,-2.8098,-2.7529,-2.767,-2.6958,0.0,-2.2375,-2.2352,-2.4405,0.0,0.0,-2.393,-2.3862,-2.3404,-2.2548,-2.2414,-2.2374,-2.231,-2.1838,-2.108,-1.9904,-1.9251,-1.8675,-1.8127,-1.8324,-1.8461,-1.8461,-1.9342,-2.0703,-2.2616,-2.2742,0.0,0.0,0.0,0.0,0.0,0.0,0.0,0.0,0.0,0.0,0.0,0.0,0.0,0.0,0.0,0.0,0.0,0.0,0.0,0.0,0.0,0.0,0.0,0.0,0.0,0.0,0.0,0.0,-2.3549,-2.634,0.0,0.0,-2.8096,-2.9557,-3.0532,-3.2472,-3.4173,-3.5471,-3.6903,-3.8154,-3.9168,-3.9782,-4.0292,-4.071,-4.071,-4.0409,-3.9808,-3.9677,-3.9194,-3.841,-3.8266,-3.7848,-3.722,-3.6436,-3.5757,-3.5051,-3.2934,-3.1242,-2.9923,-2.9105,-2.8451,-2.7873,-2.7371,-2.7276,-2.743,-2.741,-2.7312,-2.7039,-2.6095,-2.5781,-2.5688,-2.4966,-2.5522,-2.6399,-2.6569,-2.717,-2.7844,-2.8007,-2.8503,-2.8996,-2.8996,-2.8996,-2.893,-2.8699,-2.8764,-2.8531,-2.7347,-2.5761,-2.4967,-2.6125,-2.4527,-2.3621,-2.5221,-2.4288,-2.3181,-2.2494,-2.3027,-2.3223,-2.2465,-2.2218,-2.1773,-2.0963,-1.9682,-1.8946,-1.9061,-1.8713,-1.863,-1.8879,-1.9402,-2.0037,-2.0756,-2.0771,-2.2583,0.0,0.0,0.0,0.0,0.0,0.0,0.0,0.0,0.0,0.0,0.0,0.0,0.0,0.0,0.0,0.0,0.0,0.0,0.0,0.0,0.0,0.0,0.0,0.0,0.0,0.0,-2.7145,-2.6961,-2.9727,-3.1182,-2.9936,-3.1445,-3.2938,-3.39,-3.5699,-3.7189,-3.8172,-3.9466,-4.0197,-4.0301,-4.0952,-4.1311,-4.1311,-4.1311,-4.0919,-4.0135,-3.9782,-3.9194,-3.8423,-3.807,-3.7795,-3.7547,-3.6541,-3.6005,-3.573,-3.441,-3.3188,-3.2077,-3.1279,-3.0407,-2.9517,-2.9126,-2.9101,-2.9202,-2.9202,-2.9089,-2.8724,-2.7615,-2.7144,-2.6922,-2.6562,-2.6981,-2.7661,-2.802,-2.8529,-2.9013,-2.9222,-2.9611,-2.981,-2.9614,-2.9575,-2.9575,-2.9575,-2.9418,-2.931,-2.931,-2.792,-2.6868,-2.7298,-2.5406,-2.4547,-2.6689,-2.518,-2.3935,-2.4319,-2.42,-2.3796,-2.3039,-2.2637,-2.2074,-2.1315,-2.1059,-2.0494,-1.9363,-1.9894,-1.9918,-1.9126,-2.0484,-2.1172,-2.1006,-2.1026,-2.2433,-2.5294,0.0,0.0,0.0,0.0,0.0,0.0,0.0,0.0,0.0,0.0,0.0,0.0,0.0,0.0,0.0,0.0,0.0,0.0,0.0,0.0,0.0,0.0,0.0,-2.3763,-2.7465,-3.0043,-2.9332,-3.216,-3.363,-3.2316,-3.4306,-3.588,-3.6156,-3.8337,-3.9449,-3.8963,-4.0427,-4.0959,-4.0173,-4.0896,-4.1311,-4.1311,-4.1311,-4.0749,-3.9638,-3.9625,-3.9024,-3.7926,-3.7913,-3.7586,-3.6998,-3.6397,-3.5822,-3.5273,-3.4672,-3.441,-3.4293,-3.3156,-3.2385,-3.185,-3.1836,-3.1509,-3.1013,-3.1013,-3.0634,-3.0113,-3.0113,-2.9771,-2.9362,-2.9314,-2.9349,-2.9362,-2.9362,-2.9732,-2.9996,-2.9483,-3.015,-3.0843,-3.0257,-3.0127,-3.0127,-3.0127,-2.9732,-2.9362,-2.9362,-2.8399,-2.7568,-2.7555,-2.6203,-2.584,-2.7859,-2.6408,0.0,-2.7878,-2.5796,-2.4178,-2.4217,-2.324,-2.2114,-2.096,-2.338,-2.3159,-1.9008,-2.175,-2.2206,-1.9251,-2.2356,-2.3933,-2.349,-2.355,-2.3295,-2.2733,0.0,0.0,0.0,0.0,0.0,0.0,0.0,0.0,0.0,0.0,0.0,0.0,0.0,0.0,0.0,0.0,0.0,0.0,0.0,0.0,0.0,0.0,-2.9114,-2.8405,-3.1019,-3.3407,-3.4665,-3.6587,-3.7391,-3.6286,-3.7717,-3.855,-3.8316,-3.9633,-4.0427,-4.0304,-4.0951,-4.1211,-4.0959,-4.1161,-4.1311,-4.1311,-4.1311,-4.0932,-4.0187,-3.9795,-3.922,-3.8475,-3.8083,-3.7808,-3.7625,-3.7024,-3.6423,-3.5835,-3.5273,-3.4789,-3.4332,-3.3626,-3.3247,-3.3051,-3.262,-3.2097,-3.1575,-3.1575,-3.1235,-3.0686,-3.0231,-3.0307,-3.0438,-3.0019,-3.0189,-3.0516,-3.0516,-3.0634,-3.0712,-3.0555,-3.0751,-3.0947,-3.079,-3.0751,-3.0751,-3.0751,-3.0634,-3.0516,-3.0516,-2.9915,-2.9252,-2.8869,-2.8399,-2.8035,-2.7722,0.0,0.0,-2.6506,-2.5808,-2.5853,-2.7144,-2.6616,-2.5719,-2.4578,-2.4028,-2.2643,0.0,-1.9873,-1.9803,-1.9556,-2.0463,-2.0908,-2.0767,-2.2622,-2.352,0.0,0.0,0.0,0.0,0.0,0.0,0.0,0.0,0.0,0.0,0.0,0.0,0.0,0.0,0.0,0.0,0.0,0.0,0.0,0.0,0.0,0.0,-3.0215,-3.2535,-3.3281,-3.4659,-3.6185,-3.7793,-3.8757,-3.9239,-3.9067,-3.952,-4.004,-4.0579,-4.0609,-4.0789,-4.1172,-4.1132,-4.0977,-4.0808,-4.111,-4.1311,-4.1311,-4.1311,-4.101,-4.0409,-3.9873,-3.9298,-3.8697,-3.8148,-3.79,0.0,-3.726,-3.6658,-3.6057,-3.5521,-3.4933,0.0,0.0,0.0,0.0,0.0,-3.2084,-3.1771,-3.1523,-3.1261,-3.0934,-3.0594,-3.0712,-3.0921,-3.0594,-3.0725,-3.0986,-3.0986,-3.0986,-3.0986,-3.0986,-3.0986,-3.0986,-3.0986,-3.0986,-3.0986,-3.0986,-3.0986,-3.0986,-3.0986,0.0,0.0,-3.0045,-2.9637,-2.9201,-2.8916,-2.8292,-2.7799,0.0,-2.6718,-2.6585,-2.7632,-2.6996,-2.5959,-2.4542,-2.4818,0.0,0.0,0.0,-2.1857,-2.2051,0.0,0.0,0.0,0.0,-2.349,0.0,0.0,0.0,0.0,-2.4567,-2.48,0.0,0.0,0.0,0.0,0.0,0.0,0.0,0.0,0.0,0.0,0.0,0.0,0.0,0.0,0.0,0.0,-3.304,-3.5187,-3.762,-3.8011,-3.8378,-3.9274,-3.9549,-3.9905,-4.0582,-4.0212,-4.0588,-4.2272,-4.1069,-4.0609,0.0,0.0,0.0,0.0,0.0,-4.1161,-4.1161,-4.1261,-4.105,-4.0514,-3.9965,-3.939,-3.8789,-3.824,-3.7965,-3.7874,-3.7338,-3.6763,-3.6162,-3.5613,-3.4999,-3.4397,-3.4397,-3.4071,-3.347,-3.2385,-3.1915,0.0,0.0,0.0,0.0,-3.0986,-3.0986,-3.0986,-3.0986,-3.0986,-3.0986,-3.0986,-3.0986,-3.0986,-3.0986,-3.0986,-3.0986,-3.0986,-3.0986,-3.0986,-3.0986,-3.0986,-3.0986,-3.0986,-3.0986,-3.0986,-3.0986,-3.0137,-2.9757,-3.0587,-2.9517,0.0,-2.9736,-2.8132,-2.6974,-2.717,0.0,0.0,-2.3139,-2.5719,-2.5465,-2.0884,-2.3932,-2.5607,-2.4911,-2.3925,-2.3583,-2.3999,-2.4171,-2.3125,-2.0808,-2.141,-2.1695,-2.1804,-2.5341,-2.5649,0.0,0.0,0.0,0.0,0.0,0.0,0.0,0.0,0.0,0.0,0.0,0.0,0.0,0.0,0.0,-3.3134,-3.5235,-3.7046,-3.8768,-3.9365,-3.9746,-3.9942,-4.0996,-4.1179,-3.9733,-4.0186,-4.0412,-4.0012,-3.9911,-3.9994,-4.0162,-3.9981,0.0,-3.9705,-4.0105,-4.0338,-4.0338,-4.0959,-4.1259,-4.1141,0.0,0.0,-3.9416,-3.8828,-3.8318,-3.79,-3.7782,-3.739,-3.6789,-3.6188,-3.5325,-3.4397,-3.4397,-3.4071,-3.3561,-3.3339,-3.2659,-3.1784,-3.168,-3.1365,-3.0986,-3.0986,-3.0986,-3.0986,-3.0986,-3.0986,0.0,-3.0986,-3.0986,-3.0986,-3.0986,-3.0986,-3.0986,-3.0986,-3.0986,-3.0986,-3.0986,-3.0986,-3.0986,-3.0986,-3.0986,-3.0986,-3.0986,-3.0803,-3.0566,-3.0286,-2.9977,-2.9666,-2.9469,-2.8625,-2.8639,-3.01,-2.9631,-2.8475,-2.6745,-2.6813,-2.5672,-2.266,-2.3053,-2.3103,-2.2411,-2.2183,-2.2108,-2.2187,-2.2243,-2.2009,-2.1515,-2.1635,-2.1695,-2.1695,-2.1954,-2.1789,0.0,0.0,0.0,0.0,0.0,0.0,0.0,0.0,0.0,0.0,0.0,-2.7905,0.0,0.0,-3.3388,-3.5995,-3.7619,-3.8895,-3.9916,-4.0284,-4.0433,-4.0433,-4.0663,-4.072,-4.0468,-4.0215,-4.0119,-4.0328,-3.9826,-3.9809,-4.0443,-3.9751,-3.9437,-3.9599,-3.9948,-4.007,-4.007,-4.0909,-4.1311,-4.1311,-4.071,-4.0135,-3.9586,-3.8985,-3.841,-3.79,-3.79,-3.756,-3.6933,-3.6057,-3.5365,-3.4816,-3.4515,-3.4241,-3.3966,-3.3692,-3.3025,-3.2228,-3.1902,-3.147,-3.0986,-3.0986,-3.0986,-3.0986,-3.0986,-3.0986,-3.0986,-3.0986,-3.0986,-3.0986,-3.0986,-3.0986,-3.0986,-3.0986,-3.0986,-3.0986,-3.0986,-3.0986,-3.0986,-3.0986,-3.0986,-3.0986,-3.0986,-3.0986,-3.079,-3.0179,-3.01,-2.9892,-2.9353,-2.9048,-2.9075,-2.9701,-2.9196,-2.8286,-2.6822,-2.6176,-2.5406,-2.4356,-2.3585,-2.2996,-2.2652,-2.2039,-2.1695,-2.1695,-2.2044,-2.2209,-2.2209,-2.2503,-2.2652,-2.2637,-2.1994,-2.1515,0.0,0.0,0.0,0.0,0.0,0.0,0.0,0.0,-2.6679,-2.8518,-2.9915,-3.1388,-3.3296,-3.4912,-3.6599,-3.855,-3.9629,-4.0353,-4.0766,-4.0823,-4.0789,-4.0686,-4.0031,-3.9997,-4.103,-4.0112,-3.9857,-4.0905,-3.9929,-3.9744,-4.0781,-3.9563,-3.8983,-3.9219,-3.9464,-3.9698,-3.9865,-4.0643,-4.1161,-4.1311,-4.0827,-4.0305,-3.9743,-3.9155,-3.8593,-3.8057,-3.7952,-3.7495,-3.6763,-3.5835,-3.5325,-3.5077,-3.458,-3.4397,-3.4332,-3.3796,-3.3208,-3.262,-3.2124,-3.1627,-3.1156,-3.1156,-3.1078,-3.0986,-3.0986,-3.0986,-3.0986,-3.0986,-3.0986,-3.0986,-3.0986,-3.0986,-3.0986,-3.0986,-3.0986,-3.0986,-3.0986,-3.0986,-3.0986,-3.0986,-3.0986,-3.0986,-3.0986,-3.0986,-3.083,-3.0335,-3.0257,-3.0137,-2.9666,-2.9523,-2.9222,-2.8656,-2.8033,-2.7269,-2.6261,-2.5585,-2.5414,-2.5779,-2.4783,-2.4073,-2.3804,-2.2817,-2.2203,-2.2069,-2.2613,-2.2882,-2.2882,-2.3355,-2.3595,-2.3595,-2.3107,-2.2523,-2.1876,-2.2319,-2.2977,-2.5038,-2.5599,-2.6689,0.0,0.0,-3.1883,-3.3637,-3.4785,-3.5715,-3.6404,-3.7081,-3.8057,-3.97,-4.0364,-4.0755,-4.0812,-4.0823,-4.0651,-4.0252,-4.0445,-4.0364,-3.9629,-3.9813,-3.9873,-3.9589,-3.939,-3.9333,-3.9498,-3.8527,-3.7985,-3.7983,-3.7885,-3.8149,-3.8948,-3.9801,-4.0593,-4.1311,-4.1246,-4.0906,-4.0305,-3.9756,-3.9181,-3.8593,-3.8109,-3.726,-3.6188,-3.607,-3.5417,-3.4489,-3.4424,-3.4397,-3.4332,-3.3796,-3.3208,-3.2685,-3.262,-3.2228,-3.1706,-3.1706,-3.1405,-3.0986,-3.0986,-3.0986,-3.0986,-3.0986,-3.0986,-3.0986,-3.0986,-3.0986,-3.0986,-3.0986,-3.0986,-3.0986,-3.0986,-3.0986,-3.0986,-3.0986,-3.0986,-3.0986,-3.0986,-3.0986,-3.096,-3.0895,-3.0895,-3.0869,-3.0803,-3.0346,-2.981,-2.9284,-2.8669,-2.8079,-2.7539,-2.6877,-2.6521,-2.6573,-2.6377,-2.5734,-2.4545,-2.435,-2.3992,-2.34,-2.346,-2.349,-2.349,-2.3565,-2.3595,-2.3595,-2.3535,-2.3182,-2.281,-2.4326,0.0,0.0,-2.8148,-2.9954,-3.2274,-3.3257,-3.4245,-3.6162,-3.7333,-3.8194,-3.87,-3.9446,-4.0295,0.0,-4.1558,-4.1633,-4.1633,-4.0938,-3.9974,-3.8872,-3.8665,-3.8688,-3.8872,-3.8791,-3.8654,-3.8436,-3.8711,-3.8746,-3.8436,-3.8022,-3.7655,-3.7356,-3.743,-3.7672,-3.8043,-3.8896,-3.9531,-3.984,-3.9981,-3.977,-3.9205,-3.9099,-3.8776,-3.8227,-3.8004,-3.7612,-3.709,-3.6397,-3.5822,-3.5325,-3.4659,-3.4397,-3.4371,-3.4149,-3.3705,-3.3208,-3.3208,-3.2829,-3.228,-3.1902,-3.1641,-3.1418,-3.1091,-3.0986,-3.0986,-3.0986,-3.0986,-3.0986,-3.0986,-3.0986,-3.0986,-3.0986,-3.0986,-3.0986,-3.0986,-3.0986,-3.0986,-3.0986,-3.0986,-3.0986,-3.0986,-3.0986,-3.0986,-3.0986,-3.0986,-3.0986,-3.0986,-3.0777,-3.0281,-2.9379,-2.8451,-2.7954,-2.8171,-2.7919,-2.7769,-2.78,-2.7403,-2.6761,-2.5809,-2.5008,-2.447,-2.4186,-2.3804,-2.3595,-2.3595,-2.3595,-2.3595,-2.3595,-2.3595,-2.346,-2.4031,0.0,0.0,-2.8739,-3.0879,-3.3074,-3.3931,-3.5207,-3.6668,-3.8114,-3.9216,-3.9997,-4.0226,-4.0755,-4.1363,-4.2029,-4.1891,-4.1753,-4.1903,-4.0617,-3.9078,-3.7552,-3.6805,-3.6656,-3.7265,-3.7471,-3.7575,-3.7575,-3.8068,-3.8194,-3.7804,-3.7655,-3.7414,-3.6991,-3.7107,-3.7257,-3.7512,-3.8161,-3.8582,-3.8792,-3.9016,-3.8894,-3.8537,-3.8657,-3.841,-3.79,-3.79,-3.7808,-3.7573,-3.6541,-3.6018,-3.5783,-3.4789,-3.4397,-3.4397,-3.4397,-3.4149,-3.3809,-3.3809,-3.343,-3.2868,-3.2424,-3.2176,-3.1928,-3.1392,-3.1222,-3.1196,-3.1026,-3.0986,-3.0986,-3.0986,-3.0986,-3.0986,-3.0986,-3.0986,-3.0986,-3.0986,-3.0986,-3.0986,-3.0986,-3.0986,-3.0986,-3.0986,-3.0986,-3.0986,-3.0986,-3.0986,-3.0986,-3.0986,-3.0749,-3.0189,-2.9401,-2.8229,-2.7768,-2.8426,-2.8337,-2.8353,-2.8586,-2.7961,-2.73,-2.6641,-2.5674,-2.4978,-2.4619,-2.4111,-2.3879,-2.3879,-2.3684,-2.3699,-2.3879,-2.3684,-2.3595,-2.5643,0.0,-2.8723,-3.1397,-3.3725,-3.5669,-3.6635,-3.847,-3.9976,-4.0034,-4.0862,-4.1363,-4.0881,-4.0422,-4.0494,-4.1432,-4.0827,-4.0307,-4.0789,-3.9572,-3.8057,-3.6562,-3.5462,-3.4682,0.0,-3.591,-3.7002,-3.7002,-3.7529,-3.7804,-3.7793,-3.7322,-3.6991,-3.6979,-3.6585,-3.6688,-3.7512,-3.7512,-3.7938,-3.8792,-3.8832,-3.8949,-3.9144,-3.8825,-3.841,-3.79,-3.79,-3.7573,-3.6985,-3.6358,-3.5796,-3.526,-3.4633,-3.4397,-3.4397,-3.4397,-3.4384,-3.4371,-3.4371,-3.4018,-3.3561,-3.3548,-3.3143,-3.2555,-3.1954,-3.1784,-3.1654,-3.1143,-3.0986,-3.0986,-3.0986,-3.0986,-3.0986,-3.0986,-3.0986,-3.0986,-3.0986,-3.0986,-3.0986,-3.0986,-3.0986,-3.0986,-3.0986,-3.0986,-3.0986,-3.0986,-3.0986,-3.0986,-3.0986,-3.0056,-2.9349,-2.931,-2.8229,-2.7776,-2.8454,-2.7939,-2.7909,-2.858,-2.7965,-2.73,-2.6641,-2.6557,-2.5929,-2.4634,-2.459,-2.4575,-2.4575,-2.3924,-2.3939,-2.456,-2.3909,-2.3595,-2.668,0.0,-3.1385,-3.38,-3.6223,-3.8206,-3.8883,-3.9631,-4.0022,-3.9629,-3.9021,-3.847,-3.8078,-3.7779,-3.793,-3.907,-3.9461,-3.9618,-3.979,-3.9101,-3.777,-3.5554,-3.5003,0.0,0.0,0.0,0.0,-3.5925,-3.6495,-3.6782,-3.6782,-3.6943,-3.6886,-3.6541,-3.6358,-3.6429,-3.6688,-3.6677,-3.685,-3.7162,-3.75,-3.8091,-3.8864,-3.8361,-3.807,-3.79,-3.79,-3.7782,-3.7547,-3.6946,-3.6593,-3.6332,-3.5365,-3.4999,-3.4946,-3.4541,-3.4397,-3.4397,-3.4397,-3.428,-3.4005,-3.3247,-3.2855,-3.2515,-3.1561,-3.1274,-3.1235,-3.1039,-3.0986,-3.0986,-3.0986,-3.1261,-3.151,-3.151,-3.1849,-3.2123,-3.2123,-3.1823,-3.151,-3.151,-3.1248,-3.0986,-3.0986,-3.0986,-3.0986,-3.0986,-3.0986,-3.0986,-3.0986,-3.032,-2.9849,-2.9849,-2.8791,-2.8356,-2.9031,-2.8525,-2.8472,-2.916,-2.863,-2.8166,-2.7949,-2.7066,-2.6378,-2.5944,-2.5495,-2.5247,-2.5247,-2.459,-2.438,-2.459,-2.3924,-2.3595,-2.8642,-3.1367,-3.4153,-3.6527,-3.8504,-3.9836,-3.9802,-3.9779,-3.9434,-3.8206,-3.724,-3.6406,-3.5677,-3.512,-3.5271,-3.6677,-3.6965,-3.7307,-3.8205,-3.7756,-3.6789,-3.5233,-3.4739,0.0,0.0,0.0,0.0,-3.4923,-3.5784,-3.6197,-3.6013,-3.6484,-3.661,-3.6332,-3.632,-3.632,-3.632,-3.632,-3.6337,-3.6475,-3.6898,-3.7492,-3.826,-3.8009,-3.79,-3.79,-3.79,-3.79,-3.7848,-3.7024,-3.6815,-3.6894,-3.5744,-3.5299,-3.5247,-3.4868,-3.458,-3.4397,-3.4397,-3.4397,-3.428,-3.3548,-3.3169,-3.2868,-3.2136,-3.1627,-3.1326,-3.1535,-3.1444,-3.1339,-3.1535,-3.1862,-3.2111,-3.2111,-3.2424,-3.2685,-3.2685,-3.2411,-3.2045,-3.1836,-3.1497,-3.1222,-3.1013,-3.0986,-3.0986,-3.0986,-3.0986,-3.0986,-3.0986,-3.049,-3.01,-3.01,-2.9078,-2.8578,-2.9006,-2.85,-2.8453,-2.9111,-2.8583,-2.8334,-2.8596,-2.753,-2.6826,-2.6587,-2.6183,-2.5959,-2.5959,-2.5038,-2.4844,-2.5277,-2.4148,-2.3729,-3.1451,-3.4146,-3.6802,-3.9515,-4.0479,-4.0548,-3.9503,-3.917,-3.8367,-3.5875,-3.5437,-3.5126,0.0,0.0,-3.2529,-3.4302,-3.3709,-3.3885,-3.6302,-3.585,-3.5317,0.0,0.0,0.0,0.0,0.0,0.0,-3.4039,0.0,-3.6036,-3.5577,-3.6002,-3.632,-3.632,-3.632,-3.632,-3.632,-3.6243,-3.6421,-3.6723,-3.6972,-3.7221,-3.7521,-3.7764,-3.79,-3.79,-3.79,-3.7887,-3.7769,-3.6658,-3.6502,-3.6854,-3.5796,-3.5351,-3.5299,-3.5299,-3.4933,-3.4437,-3.441,-3.4397,-3.4397,-3.4358,-3.4005,-3.3587,-3.3548,-3.2764,-3.1967,-3.2542,-3.2306,-3.1967,-3.2555,-3.2712,-3.2738,-3.2738,-3.2764,-3.2777,-3.2777,-3.2764,-3.2581,-3.1993,-3.1836,-3.1628,-3.1091,-3.0986,-3.0986,-3.0986,-3.0986,-3.0986,-3.0986,-3.0516,-3.014,-3.014,-2.9157,-2.8499,-2.8459,-2.7939,-2.7875,-2.8451,-2.7954,-2.7929,-2.8558,-2.7993,-2.7345,-2.6647,-2.6632,-2.6632,-2.6632,-2.5337,-2.5352,-2.6542,-2.4612,-2.4044,-3.302,-3.5815,-3.8714,-4.0731,-4.1007,-4.0468,-3.9078,-3.7311,-3.5439,-3.3625,-3.1908,-3.0705,0.0,0.0,0.0,-3.2698,-3.4047,0.0,-3.67,-3.7344,0.0,-3.6197,0.0,-3.5405,-3.467,-3.4923,0.0,0.0,-3.529,-3.5818,-3.6071,-3.6208,-3.632,-3.632,-3.632,-3.632,-3.632,-3.5898,-3.6061,-3.6763,-3.6595,-3.6861,-3.7569,-3.7811,-3.79,-3.79,-3.79,-3.7652,-3.7246,-3.739,-3.6998,-3.6345,-3.6502,-3.6057,-3.5299,-3.5299,-3.5195,-3.4999,-3.4554,-3.4397,-3.4332,-3.3927,-3.3705,-3.3509,-3.3064,-3.2712,-3.2502,-3.2659,-3.2594,-3.2515,-3.2659,-3.3025,-3.3365,-3.3365,-3.3679,-3.3966,-3.3966,-3.3639,-3.3326,-3.3169,-3.2398,-3.1628,-3.1091,-3.0986,-3.0986,-3.0986,-3.0986,-3.0986,-3.0986,-3.0869,-3.0764,-3.0764,-3.0124,-2.951,-2.9091,-2.8531,-2.8266,-2.8489,-2.8351,-2.8368,-2.8586,-2.8429,-2.8034,-2.736,-2.7345,-2.7345,-2.7345,-2.6497,-2.6258,-2.6572,-2.5555,-2.5196,-3.5594,-3.8022,-4.0416,-4.1588,-4.1191,-4.0031,-3.8298,-3.6117,-3.3871,-3.1759,-3.0173,0.0,-2.9211,0.0,0.0,0.0,0.0,0.0,-3.5879,-3.6902,-3.7273,0.0,-3.6736,0.0,-3.552,-3.5692,-3.5738,0.0,-3.5692,-3.5875,-3.5944,-3.6151,-3.632,-3.632,-3.632,-3.632,-3.632,-3.599,-3.6038,-3.6407,-3.6218,-3.6518,-3.7213,-3.7296,-3.7564,-3.79,0.0,-3.756,-3.7011,-3.709,-3.6867,-3.6502,-3.658,-3.6384,-3.6044,-3.6044,-3.5874,-3.56,-3.526,-3.4986,-3.4698,-3.4136,-3.3783,-3.3574,-3.347,-3.3091,-3.279,-3.33,-3.3273,-3.3143,-3.3378,-3.3692,-3.394,-3.394,-3.4175,-3.4397,-3.4397,-3.4162,-3.3796,-3.33,-3.2424,-3.1628,-3.1091,-3.0986,-3.0986,-3.0986,-3.0986,-3.0986,-3.0986,-3.0986,-3.0986,-3.0986,-3.0477,-2.9865,-2.9362,-2.876,-2.843,-2.849,-2.8246,-2.836,-2.8972,-2.8726,-2.8551,-2.8483,-2.8199,-2.8049,-2.8049,-2.7051,-2.6761,-2.7031,-2.6048,-2.5764,-3.8382,-4.0169,-4.1776,-4.2224,-4.1042,-3.9228,-3.7207,-3.5003,-3.2724,-3.0231,0.0,-2.9105,-2.9023,-2.8532,-2.8681,-3.0387,0.0,-3.2007,-3.4866,-3.5711,-3.648,-3.7585,-3.7299,-3.684,-3.6378,-3.632,-3.632,-3.632,-3.632,-3.6082,-3.5634,-3.6036,-3.632,-3.632,-3.632,-3.632,-3.632,-3.6208,-3.6054,-3.5762,-3.5793,-3.6085,-3.6568,-3.6675,-3.7155,-3.79,0.0,0.0,-3.6972,-3.6528,-3.6554,-3.6841,-3.6488,-3.6567,-3.6894,-3.6972,-3.6619,-3.6096,-3.6018,-3.5744,-3.5312,-3.4711,-3.4149,-3.3783,-3.4254,-3.3705,-3.3117,-3.4123,-3.4058,-3.3809,-3.428,-3.4397,-3.4397,-3.4397,-3.4397,-3.4397,-3.4397,-3.4397,-3.4058,-3.2921,-3.2293,-3.1706,-3.1104,-3.0986,-3.0986,-3.0986,-3.0986,-3.0986,-3.0986,-3.0986,-3.0986,-3.0986,-3.0542,-3.0019,-2.9444,-2.8843,-2.8515,-2.8481,-2.8003,-2.8184,-2.9215,-2.88,-2.8865,-2.9471,-2.8815,-2.8513,-2.8607,-2.7335,-2.7046,-2.757,-2.6408,-2.6183,-3.9836,-4.1077,-4.2224,-4.2252,-4.0238,-3.7655,-3.5646,-3.2773,0.0,0.0,-2.8457,-2.8008,-2.8862,-2.9196,-2.9815,-3.1207,0.0,0.0,0.0,0.0,-3.6874,0.0,0.0,0.0,0.0,0.0,0.0,0.0,0.0,0.0,-3.614,-3.622,-3.632,-3.632,-3.632,-3.632,-3.632,-3.5853,-3.5412,-3.4982,-3.5208,-3.5511,-3.581,-3.6427,-3.7155,-3.79,0.0,0.0,-3.7037,-3.7429,-3.7063,-3.6345,-3.7246,-3.705,-3.6319,-3.6828,-3.6619,-3.6044,-3.5587,-3.5665,-3.5874,-3.5325,-3.4737,-3.428,-3.4371,-3.4254,-3.4149,-3.4345,-3.4332,-3.428,-3.4371,-3.4397,-3.4397,-3.4397,-3.4397,-3.4397,-3.4397,-3.4397,-3.4058,-3.2921,-3.262,-3.2215,-3.1169,-3.0986,-3.0986,-3.0986,-3.0986,-3.0986,-3.0986,-3.0986,-3.0986,-3.0986,-3.0895,-3.0607,-2.9996,-2.9457,-2.8939,-2.8439,-2.8363,-2.823,-2.7944,-2.8326,-2.8581,-2.8777,-2.8123,-2.8059,-2.8607,-2.7824,-2.748,-2.7585,-2.736,-2.7315,-4.0812,-4.1665,-4.2149,-4.1684,-3.9251,-3.6527,-3.4607,0.0,0.0,0.0,-2.8402,-2.8159,-2.9343,-2.9654,0.0,0.0,0.0,0.0,0.0,0.0,0.0,0.0,0.0,0.0,0.0,0.0,0.0,0.0,0.0,0.0,0.0,-3.632,-3.632,-3.632,-3.632,-3.632,-3.632,-3.6025,-3.5531,-3.4796,-3.4946,-3.5206,-3.5619,-3.5953,-3.6781,-3.79,0.0,0.0,0.0,-3.7312,-3.709,-3.6632,-3.7207,-3.7273,-3.7037,-3.7011,-3.6828,-3.6541,-3.6279,-3.5966,-3.5691,-3.5704,-3.5325,-3.4868,-3.4868,-3.4646,-3.4397,-3.4397,-3.4397,-3.4397,-3.4397,-3.4397,-3.4397,-3.4397,-3.4397,-3.4397,-3.4397,-3.4397,-3.4162,-3.3326,-3.2908,-3.2424,-3.1575,-3.1182,-3.0986,-3.0986,-3.0986,-3.0986,-3.0986,-3.0986,-3.0986,-3.0986,-3.0986,-3.0764,-3.014,-2.9852,-2.947,-2.8917,-2.8588,-2.8458,-2.8522,-2.8515,-2.8666,-2.9066,-2.8742,-2.875,-2.9072,-2.8113,-2.7825,-2.8098,-2.7443,-2.7306,-4.1179,-4.1868,-4.1948,-4.1053,-3.8367,-3.5504,-3.3823,-3.11,0.0,0.0,-2.8657,-2.8666,-2.9778,0.0,-2.9957,0.0,-3.024,0.0,0.0,0.0,0.0,0.0,0.0,0.0,0.0,0.0,0.0,0.0,0.0,0.0,0.0,-3.632,-3.6274,-3.6117,-3.6117,-3.6117,-3.6117,-3.6117,-3.5669,-3.4796,-3.4796,-3.5,-3.5367,-3.5523,-3.6345,-3.7657,0.0,0.0,0.0,-3.7194,-3.7194,-3.7194,-3.7194,-3.7482,-3.7848,-3.7377,-3.7116,-3.6985,-3.6854,-3.6227,-3.5521,-3.5835,-3.5561,-3.5103,-3.5103,-3.4776,-3.4397,-3.4397,-3.4397,-3.4397,-3.4397,-3.4397,-3.4397,-3.4397,-3.4397,-3.4397,-3.4397,-3.4397,-3.4241,-3.3692,-3.3208,-3.2698,-3.2084,-3.1548,-3.1209,-3.1326,-3.1143,-3.1026,-3.1156,-3.1065,-3.0986,-3.0986,-3.0986,-3.0803,-3.0309,-3.0166,-2.9905,-2.9497,-2.8908,-2.8778,-2.9174,-2.8852,-2.8869,-2.9268,-2.9268,-2.9285,-2.9289,-2.8209,-2.7924,-2.8373,-2.7362,-2.7142,-4.0728,-4.1604,-4.1512,-4.095,-3.7862,-3.4573,-3.3172,0.0,0.0,-2.9222,-2.898,-2.8934,-2.9517,-2.9475,-2.9588,-3.0426,-3.087,-3.1732,0.0,0.0,0.0,0.0,0.0,0.0,0.0,0.0,0.0,0.0,0.0,0.0,0.0,-3.632,-3.6059,-3.56,-3.5588,-3.5588,-3.5588,-3.5588,-3.5324,-3.4796,-3.4796,-3.4695,-3.4532,-3.5271,-3.6048,-3.6862,0.0,0.0,0.0,-3.7821,-3.7821,-3.7821,-3.7821,-3.7861,-3.79,-3.7848,-3.7469,-3.692,-3.6371,-3.6123,-3.5953,-3.5521,-3.4959,-3.4476,-3.4476,-3.4437,-3.4397,-3.4397,-3.4397,-3.4397,-3.4397,-3.4397,-3.4397,-3.4397,-3.4397,-3.4397,-3.4397,-3.4397,-3.4241,-3.3692,-3.3548,-3.3326,-3.2712,-3.2136,-3.1902,-3.245,-3.1653,-3.1169,-3.1654,-3.1313,-3.0986,-3.0986,-3.0986,-3.096,-3.0908,-3.0438,-3.0074,-3.0022,-2.9523,-2.8983,-2.8502,-2.8948,-2.9042,-2.8592,-2.851,-2.8514,-2.8591,-2.7915,-2.7636,-2.7694,-2.7579,-2.7551,-3.8723,-3.9962,-4.0387,-3.9274,-3.6513,-3.3715,-3.2368,0.0,-2.8826,-2.9383,-2.922,-2.9132,-2.967,-2.974,-2.982,-3.0362,-2.9731,0.0,-3.2736,0.0,0.0,0.0,0.0,0.0,0.0,0.0,0.0,0.0,0.0,0.0,0.0,0.0,-3.5726,-3.5531,-3.5244,-3.5083,-3.5083,-3.5083,-3.4831,-3.4326,-3.4326,-3.433,-3.4434,-3.5223,-3.6001,0.0,0.0,0.0,0.0,-3.79,-3.79,-3.79,-3.79,-3.79,-3.7861,-3.7495,-3.7207,-3.692,-3.6305,-3.5887,-3.5587,-3.5365,-3.4894,-3.4463,-3.4829,-3.4685,-3.4397,-3.4397,-3.4397,-3.4397,-3.4397,-3.4397,-3.4397,-3.4397,-3.4397,-3.4397,-3.4397,-3.4397,-3.4332,-3.4123,-3.3809,-3.3522,-3.3273,-3.2738,-3.2424,-3.2659,-3.2006,-3.1549,-3.1771,-3.1339,-3.0986,-3.0986,-3.0986,-3.0986,-3.0986,-3.0777,-3.0647,-3.0647,-3.0111,-2.968,-2.9444,-2.9327,-2.9022,-2.8451,-2.8811,-2.8842,-2.8514,-2.7923,-2.7817,-2.8106,-2.7414,-2.7248,-3.6128,-3.7781,-3.8666,-3.7242,-3.4924,-3.2707,0.0,0.0,-2.8612,-2.9293,-2.9309,-2.932,-2.9662,-2.9696,-2.98,-3.0187,-2.9375,-2.96,-3.2177,0.0,0.0,0.0,0.0,0.0,0.0,0.0,0.0,0.0,0.0,0.0,0.0,0.0,-3.5301,-3.5301,-3.4819,-3.4555,-3.4555,-3.4555,-3.4372,-3.4004,-3.4004,-3.4032,-3.4115,-3.4884,-3.5655,0.0,0.0,0.0,0.0,-3.79,-3.79,-3.79,-3.79,-3.7795,-3.7586,-3.7155,-3.6894,-3.6658,-3.607,-3.5626,-3.5273,-3.509,-3.4737,-3.4476,-3.4894,-3.4737,-3.4397,-3.4397,-3.4397,-3.4397,-3.4397,-3.4397,-3.4397,-3.4397,-3.4397,-3.4397,-3.4397,-3.4397,-3.4397,-3.4397,-3.4084,-3.3835,-3.3835,-3.3352,-3.3012,-3.3169,-3.2385,-3.1863,-3.2032,-3.1444,-3.0986,-3.0986,-3.0986,-3.0986,-3.0986,-3.0986,-3.0986,-3.0986,-3.0607,-3.0283,-3.0113,-2.9915,-2.9454,-2.8695,-2.9137,-2.9174,-2.8725,-2.7994,-2.794,-2.8441,-2.7413,-2.7174,-3.3174,-3.5152,-3.6125,-3.5083,-3.3198,-3.1341,0.0,-2.915,-2.8453,-2.8981,-2.9275,-2.938,-2.938,-2.9248,-2.9275,-2.9816,-3.0397,-3.105,-3.1811,0.0,0.0,0.0,0.0,0.0,0.0,0.0,0.0,0.0,0.0,0.0,0.0,0.0,-3.4808,-3.4808,-3.4291,-3.4004,-3.4004,-3.4004,-3.4004,-3.4004,-3.4004,-3.3752,-3.3331,-3.4066,0.0,0.0,0.0,0.0,0.0,-3.79,-3.79,-3.79,-3.79,-3.7534,-3.7011,-3.6998,-3.6619,-3.6031,-3.5495,-3.5299,-3.5195,-3.4607,-3.441,-3.4397,-3.441,-3.4397,-3.4397,-3.4397,-3.4397,-3.4397,-3.4397,-3.4397,-3.4397,-3.4397,-3.4397,-3.4397,-3.4397,-3.4397,-3.4397,-3.4397,-3.4397,-3.4384,-3.4384,-3.394,-3.3757,-3.4293,-3.2934,-3.2006,-3.2607,-3.1692,-3.0986,-3.0986,-3.0986,-3.0986,-3.0986,-3.0986,-3.0986,-3.0986,-3.0973,-3.0725,-3.0113,-3.0673,-3.0461,-2.9323,-2.931,-2.931,-2.9297,-2.8085,-2.7811,-2.8381,-2.7785,-2.751,-3.0376,-3.1861,-3.2732,-3.2025,-3.0783,-2.9572,-2.8875,-2.8201,-2.7888,-2.8428,-2.8808,-2.9188,-2.9588,-2.9482,-2.9448,-2.9856,-2.9955,-3.028,0.0,0.0,0.0,0.0,0.0,0.0,0.0,0.0,0.0,0.0,0.0,0.0,0.0,0.0,0.0,-3.4257,-3.3775,-3.3511,-3.3511,-3.3511,-3.3511,-3.3511,-3.3511,-3.343,-3.3331,0.0,0.0,0.0,0.0,0.0,0.0,-3.79,-3.79,-3.79,-3.79,-3.7534,-3.6998,-3.6998,-3.6619,-3.6018,-3.5482,-3.5299,-3.5195,-3.4593,-3.4397,-3.4397,-3.4397,-3.4397,-3.4397,-3.4397,-3.4397,-3.4397,-3.4397,-3.4397,-3.4397,-3.4397,-3.4397,-3.4397,-3.4397,-3.4397,-3.4397,-3.4397,-3.4397,-3.4397,-3.4397,-3.4254,-3.4201,-3.4371,-3.3273,-3.2489,-3.2672,-3.1692,-3.0986,-3.0986,-3.0986,-3.0986,-3.0986,-3.0986,-3.0986,-3.0986,-3.0986,-3.0895,-3.0725,-3.0895,-3.0634,-2.9839,-2.9862,-2.968,-2.931,-2.8908,-2.8608,-2.8407,-2.7798,-2.749,-2.7552,-2.9072,-3.0045,-2.9512,-2.8892,0.0,-2.7676,-2.7425,-2.7496,-2.8058,-2.851,-2.8999,-2.9708,-2.9553,-2.9448,-2.9911,-2.993,-3.0053,0.0,0.0,0.0,0.0,0.0,0.0,0.0,0.0,0.0,0.0,0.0,0.0,0.0,0.0,0.0,-3.374,-3.3442,-3.3281,-3.3281,-3.3281,-3.3281,-3.3281,-3.3281,-3.3469,-3.3744,0.0,0.0,0.0,0.0,0.0,0.0,-3.79,-3.79,-3.79,-3.79,-3.7403,-3.6658,-3.6658,-3.6149,-3.5417,-3.5077,-3.4959,-3.4894,-3.4515,-3.4397,-3.4397,-3.4397,-3.4397,-3.4397,-3.4397,-3.4397,-3.4397,-3.4397,-3.4567,-3.4737,-3.4737,-3.4894,-3.4986,-3.4776,-3.4737,-3.4672,-3.4437,-3.4397,-3.4397,-3.4397,-3.4397,-3.4397,-3.4397,-3.3613,-3.3038,-3.3038,-3.2019,-3.1313,-3.1313,-3.1117,-3.0986,-3.0986,-3.0986,-3.0986,-3.0986,-3.0986,-3.0986,-3.0986,-3.0986,-3.0817,-3.0464,-3.0218,-3.0072,-2.9928,-2.9706,-2.9183,-2.8407,-2.8007,-2.7699,0.0,-2.6713,-2.7882,0.0,0.0,0.0,-2.6647,-2.67,0.0,-2.7786,-2.8259,-2.8795,-2.9662,-2.9435,-2.9379,-3.0022,-3.0186,0.0,0.0,0.0,0.0,0.0,0.0,0.0,0.0,0.0,0.0,0.0,0.0,0.0,0.0,0.0,0.0,0.0,-3.3281,-3.3281,-3.3281,-3.3281,-3.3281,-3.3281,-3.3281,-3.3706,-3.4385,0.0,0.0,0.0,0.0,0.0,0.0,-3.79,-3.7874,-3.7848,-3.7848,-3.7103,-3.6044,-3.6044,-3.5351,-3.4397,-3.4397,-3.4397,-3.4397,-3.4397,-3.4397,-3.4397,-3.4397,-3.4397,-3.4397,-3.4397,-3.4424,-3.4463,-3.4463,-3.4907,-3.5351,-3.5351,-3.5744,-3.5953,-3.5417,-3.5299,-3.5129,-3.4567,-3.4424,-3.4424,-3.4502,-3.445,-3.441,-3.445,-3.3966,-3.3587,-3.3587,-3.2567,-3.1863,-3.1863,-3.1392,-3.1065,-3.1104,-3.1039,-3.0986,-3.0986,-3.0986,-3.0986,-3.0986,-3.0986,-3.0986,-3.0986,-3.0464,-3.0451,-3.0986,-3.0375,-2.9575,-2.8503,-2.8499,-2.8164,-2.3375,0.0,-2.5069,-2.5362,-2.5657,-2.5805,0.0,-2.5885,-2.6314,-2.6882,-2.7533,-2.8176,-2.8795,-2.9409,-2.9671,-2.9404,-2.9764,0.0,0.0,0.0,0.0,0.0,0.0,0.0,0.0,0.0,0.0,0.0,0.0,0.0,0.0,0.0,0.0,0.0,-3.3281,-3.3281,-3.3281,-3.3281,-3.3281,-3.3281,-3.3281,-3.3668,0.0,0.0,0.0,0.0,0.0,0.0,0.0,-3.79,-3.7639,-3.722,-3.722,-3.6515,-3.5482,-3.5482,-3.5025,-3.4397,-3.4397,-3.4397,-3.4397,-3.4397,-3.4397,-3.4397,-3.4397,-3.4397,-3.4397,-3.4397,-3.4724,-3.509,-3.509,-3.5495,-3.5913,-3.5913,-3.6018,-3.5953,-3.5417,-3.5299,-3.526,-3.5116,-3.4711,-3.4672,-3.5547,-3.4986,-3.4554,-3.5012,-3.4228,-3.3587,-3.3587,-3.2947,-3.2489,-3.2489,-3.198,-3.181,-3.2254,-3.1483,-3.0986,-3.0986,-3.0986,-3.0986,-3.0986,-3.0986,-3.0986,-3.0986,-3.0856,-3.0856,-3.0986,-3.0375,-2.9957,-2.9683,-2.9274,-2.9,-2.2601,-2.3414,-2.4282,-2.4791,-2.5111,-2.5312,-2.5418,-2.5688,-2.6058,-2.6599,-2.731,-2.8002,-2.8694,-2.8735,-2.8839,-2.9505,-2.8803,0.0,0.0,0.0,0.0,0.0,0.0,0.0,0.0,0.0,0.0,0.0,0.0,0.0,0.0,0.0,0.0,0.0,0.0,-3.2531,-3.3281,-3.3281,-3.3281,-3.3281,-3.3656,-3.4058,0.0,0.0,0.0,0.0,0.0,0.0,-3.6955,-3.6819,-3.6625,-3.6339,-3.6415,-3.5882,-3.5115,-3.5243,-3.492,-3.4397,-3.4397,-3.4397,-3.4397,-3.4397,-3.4397,-3.4397,-3.4397,-3.4397,-3.445,-3.4737,-3.4842,-3.4946,-3.5221,-3.5704,-3.6109,-3.6109,-3.6305,-3.6358,-3.5796,-3.5469,-3.5299,-3.5299,-3.4816,-3.4763,-3.59,-3.5378,-3.5012,-3.5587,-3.4933,-3.4371,-3.4371,-3.3626,-3.3104,-3.3104,-3.2581,-3.2359,-3.2659,-3.2123,-3.1653,-3.1392,-3.113,-3.0986,-3.0986,-3.0986,-3.0986,-3.0986,-3.0986,-3.0986,-3.0986,-3.0673,-3.0348,-3.0087,-2.981,-2.9536,-2.2374,-2.3299,-2.4267,-2.4861,-2.5193,-2.5382,-2.5606,-2.5793,-2.6068,-2.6536,-2.7248,-2.7953,0.0,-2.7954,0.0,0.0,0.0,0.0,0.0,0.0,0.0,0.0,0.0,0.0,0.0,0.0,0.0,0.0,0.0,0.0,0.0,0.0,0.0,0.0,0.0,0.0,-3.3155,-3.3005,-3.3051,-3.3369,-3.3967,-3.4499,-3.4913,0.0,0.0,0.0,0.0,0.0,-3.5727,-3.5563,-3.5436,-3.539,-3.5554,-3.5249,-3.4745,-3.4985,-3.4744,-3.4314,-3.4314,-3.4314,-3.4356,-3.4356,-3.4356,-3.4397,-3.4397,-3.4397,-3.4528,-3.5129,-3.4933,-3.4672,-3.5273,-3.5822,-3.6266,-3.6358,-3.6776,-3.6946,-3.6253,-3.5744,-3.5417,-3.5417,-3.4868,-3.4816,-3.6149,-3.5783,-3.5482,-3.6018,-3.5639,-3.526,-3.5168,-3.4319,-3.3718,-3.3718,-3.3182,-3.2868,-3.2947,-3.2712,-3.2437,-3.2084,-3.1483,-3.1078,-3.0986,-3.0986,-3.0986,-3.0986,-3.0986,-3.0986,-3.0986,-3.0986,-3.0738,-3.0231,-3.0231,-3.0006,-2.2771,-2.3105,-2.3494,-2.4369,-2.5092,-2.5618,-2.5793,-2.6027,-2.6191,-2.6278,-2.7097,0.0,0.0,-2.7959,-2.9244,0.0,0.0,0.0,0.0,0.0,0.0,0.0,0.0,0.0,0.0,0.0,0.0,0.0,0.0,0.0,0.0,0.0,0.0,0.0,0.0,0.0,0.0,-3.1694,-3.2056,-3.356,-3.3648,-3.4438,-3.5701,-3.5839,0.0,0.0,0.0,0.0,-3.5519,-3.5519,-3.5192,-3.4725,-3.4768,-3.4409,-3.3896,-3.3938,-3.3887,-3.3797,-3.3797,-3.3937,-3.416,-3.416,-3.4285,-3.4397,-3.4397,-3.4397,-3.4528,-3.5129,-3.5234,-3.5286,-3.5835,-3.6423,-3.6998,-3.7508,-3.7691,-3.7469,-3.6345,-3.6044,-3.5979,-3.5979,-3.5116,-3.509,-3.726,-3.6332,-3.5482,-3.6018,-3.5639,-3.5116,-3.4607,-3.4384,-3.428,-3.428,-3.3783,-3.3639,-3.4097,-3.2803,-3.2319,-3.3273,-3.2306,-3.1445,-3.0999,-3.0986,-3.0986,-3.0986,-3.0986,-3.0986,-3.0986,-3.0986,-3.0934,-3.0856,-3.0856,-3.0817,-2.2517,-2.3059,-2.3547,-2.3444,-2.3766,-2.4108,-2.4083,-2.4329,-2.4823,-2.572,-2.6746,0.0,0.0,0.0,0.0,0.0,0.0,0.0,0.0,0.0,0.0,0.0,0.0,0.0,0.0,0.0,0.0,0.0,0.0,0.0,0.0,0.0,0.0,0.0,0.0,0.0,0.0,-3.0208,-3.1364,-3.3836,-3.3935,-3.4171,-3.4638,-3.4997,-3.4988,0.0,0.0,-3.4464,-3.4346,-3.4259,-3.4033,-3.3792,-3.3921,-3.3798,-3.3556,-3.367,-3.3713,-3.3713,-3.3713,-3.3894,-3.4118,-3.4118,-3.4243,-3.4397,-3.4397,-3.4397,-3.445,-3.4737,-3.5051,-3.5417,-3.5966,-3.6554,-3.7077,-3.7351,-3.7416,-3.7168,-3.6292,-3.5874,-3.5665,-3.5665,-3.4986,-3.5038,-3.7063,-3.6488,-3.5926,-3.6502,-3.6109,-3.5534,-3.4959,-3.4593,-3.4397,-3.4397,-3.4175,-3.4123,-3.4384,-3.3679,-3.2934,-3.2228,-3.1967,-3.1549,-3.1013,-3.0986,-3.0986,-3.0986,-3.0986,-3.0986,-3.0986,-3.0986,-3.0986,-3.0986,-3.0986,-3.0986,-2.234,-2.3083,-2.367,-2.2837,-2.315,-2.3512,-2.2982,-2.3501,-2.4364,-2.5385,0.0,0.0,0.0,0.0,0.0,0.0,0.0,0.0,0.0,0.0,0.0,0.0,0.0,0.0,0.0,0.0,0.0,0.0,0.0,0.0,0.0,0.0,0.0,0.0,0.0,0.0,0.0,-2.9478,-3.0895,-3.3541,-3.3927,-3.4007,-3.3796,-3.4336,-3.4233,-3.3641,-3.3471,-3.3356,-3.3313,-3.3154,-3.3124,-3.3124,-3.3283,-3.3313,-3.3356,-3.3513,-3.3556,-3.3556,-3.3556,-3.3725,-3.3949,-3.3949,-3.4063,-3.423,-3.423,-3.423,-3.4298,-3.447,-3.4953,-3.55,-3.5992,-3.6554,-3.7037,-3.7181,-3.7103,-3.6841,-3.6227,-3.5783,-3.5443,-3.5325,-3.5025,-3.5273,-3.675,-3.6502,-3.6253,-3.6724,-3.6292,-3.5717,-3.5155,-3.4685,-3.4397,-3.4397,-3.4397,-3.4345,-3.4214,-3.4201,-3.3352,-3.1313,-3.1432,-3.1444,-3.0999,-3.0986,-3.0986,-3.0986,-3.0986,-3.0986,-3.0986,-3.0986,-3.0986,-3.0986,-3.0986,-3.0986,-2.2659,-2.3071,-2.3394,-2.3115,-2.4532,-2.5613,-2.4304,-2.5354,-2.6421,-2.5673,-2.6307,0.0,0.0,0.0,0.0,0.0,0.0,0.0,0.0,0.0,0.0,0.0,0.0,0.0,0.0,0.0,0.0,0.0,0.0,0.0,0.0,0.0,0.0,0.0,0.0,0.0,0.0,0.0,-3.0813,-3.2182,-3.3083,-3.388,-3.451,-3.4597,-3.416,-3.3441,-3.3398,-3.3283,-3.3124,-3.3124,-3.3124,-3.3124,-3.3124,-3.3124,-3.3124,-3.3154,-3.3154,-3.3154,-3.3154,-3.3283,-3.3441,-3.3441,-3.3598,-3.3755,-3.3755,-3.3755,-3.3913,-3.4667,-3.531,-3.5807,-3.6053,-3.6554,-3.7142,-3.7704,-3.7416,-3.6841,-3.6227,-3.607,-3.59,-3.5391,-3.5665,-3.6201,-3.6881,-3.6502,-3.6123,-3.6162,-3.5704,-3.5142,-3.4541,-3.4424,-3.4397,-3.4397,-3.4397,-3.4188,-3.3692,-3.3652,-3.3117,-3.181,-3.1313,-3.1026,-3.0986,-3.0986,-3.0986,-3.0986,-3.0986,-3.0986,-3.0986,-3.0986,-3.0986,-3.0986,-3.0986,-3.0986,-2.2708,-2.3027,-2.3316,-2.2955,-2.4256,-2.5348,-2.4189,-2.445,-2.504,-2.5589,-2.6092,0.0,0.0,0.0,0.0,0.0,0.0,0.0,0.0,0.0,0.0,0.0,0.0,0.0,0.0,0.0,0.0,0.0,0.0,0.0,0.0,0.0,0.0,0.0,0.0,0.0,0.0,0.0,-3.1314,-3.175,-3.2763,-3.3396,-3.3685,-3.3685,-3.3485,-3.3197,-3.3197,-3.3154,-3.3124,-3.3124,-3.3124,-3.3124,-3.3124,-3.3124,-3.3124,-3.3124,-3.3124,-3.3124,-3.3124,-3.324,-3.3398,-3.3398,-3.3556,-3.3713,-3.3713,-3.3713,-3.3841,-3.4517,-3.5257,-3.5937,-3.6523,-3.7116,-3.7625,-3.7848,-3.7442,-3.6841,-3.6227,-3.6109,-3.5835,-3.492,-3.5482,-3.607,-3.5966,-3.6345,-3.6541,-3.6162,-3.5926,-3.5587,-3.5025,-3.4959,-3.4816,-3.4437,-3.4397,-3.4319,-3.411,-3.3783,-3.3404,-3.296,-3.2045,-3.1352,-3.0999,-3.0986,-3.0986,-3.0986,-3.0986,-3.0986,-3.0986,-3.0986,-3.0986,-3.0986,-3.0986,-3.0986,-2.2207,-2.2621,-2.2944,-2.2613,-2.4038,-2.5299,-2.4447,-2.4531,-2.4943,-2.5472,-2.5931,-2.651,-2.7421,0.0,0.0,0.0,0.0,0.0,0.0,0.0,0.0,0.0,0.0,0.0,0.0,0.0,0.0,0.0,0.0,0.0,0.0,0.0,0.0,0.0,0.0,0.0,0.0,0.0,-3.1588,-3.2077,-3.2754,-3.3124,-3.3124,-3.3124,-3.3124,-3.3124,-3.3124,-3.3124,-3.3124,-3.3124,-3.3124,-3.3124,-3.3124,-3.3124,-3.3124,-3.3124,-3.3124,-3.3124,-3.3124,-3.3197,-3.3313,-3.3313,-3.3398,-3.3513,-3.3513,-3.3513,-3.3709,-3.4605,-3.5267,-3.5952,-3.7,-3.7599,-3.79,-3.79,-3.7442,-3.6894,-3.6475,-3.6384,-3.6109,-3.5129,-3.5874,-3.6488,-3.5926,-3.6488,-3.6867,-3.6449,-3.6083,-3.5717,-3.5338,-3.5129,-3.4855,-3.4437,-3.4567,-3.4607,-3.441,-3.3901,-3.3587,-3.3587,-3.2659,-3.194,-3.1535,-3.1352,-3.1261,-3.1261,-3.1078,-3.0986,-3.0986,-3.0986,-3.0986,-3.0986,-3.0986,-3.0986,-2.111,-2.1698,-2.2164,-2.2145,-2.4059,-2.584,-2.5343,-2.6195,-2.673,-2.5469,-2.5892,-2.6765,-2.7668,0.0,0.0,0.0,0.0,0.0,0.0,0.0,0.0,0.0,0.0,0.0,0.0,0.0,0.0,0.0,0.0,0.0,0.0,0.0,0.0,0.0,0.0,0.0,0.0,0.0,-3.1583,-3.3111,-3.3111,-3.3111,-3.3124,-3.3124,-3.3124,-3.3124,-3.3124,-3.3124,-3.3124,-3.3124,-3.3124,-3.3124,-3.3124,-3.3124,-3.3124,-3.3124,-3.3124,-3.3124,-3.3124,-3.3124,-3.3124,-3.3124,-3.3124,-3.3124,-3.3124,-3.3124,-3.3437,-3.5021,-3.5474,-3.5878,-3.7449,-3.79,-3.79,-3.79,-3.7442,-3.6998,-3.6998,-3.6998,-3.6828,-3.6214,-3.7077,-3.7717,-3.7103,-3.6998,-3.7011,-3.6998,-3.6031,-3.5312,-3.5299,-3.4763,-3.4397,-3.441,-3.4933,-3.5051,-3.445,-3.3901,-3.36,-3.36,-3.3038,-3.2698,-3.2685,-3.2111,-3.1797,-3.1797,-3.1274,-3.0986,-3.0986,-3.0986,-3.0986,-3.0986,-3.0986,-3.0986,-2.2866,-2.2262,0.0,-2.4251,0.0,0.0,0.0,-2.649,-2.6228,0.0,-2.7105,-2.7801,-2.9182,0.0,0.0,0.0,0.0,0.0,0.0,0.0,0.0,0.0,0.0,0.0,0.0,0.0,0.0,0.0,0.0,0.0,0.0,0.0,0.0,0.0,0.0,0.0,0.0,0.0,0.0,-3.2466,-3.2466,-3.2679,-3.3124,-3.3124,-3.3124,-3.3124,-3.3124,-3.3124,-3.3124,-3.3124,-3.3124,-3.3124,-3.3124,-3.3124,-3.3124,-3.3124,-3.3124,-3.3124,-3.3124,-3.3124,-3.3124,-3.3124,-3.3124,-3.3124,-3.3124,-3.3124,-3.3262,-3.4111,-3.4781,-3.543,-3.6281,-3.6906,-3.7413,-3.7808,-3.7442,-3.6881,-3.6462,-3.6711,-3.6711,-3.573,-3.6815,-3.7573,-3.6541,-3.7077,-3.7351,-3.6502,-3.6083,-3.573,-3.5338,-3.4763,-3.4554,-3.4986,-3.4816,-3.4593,-3.441,-3.4254,-3.4162,-3.4162,-3.3992,-3.3352,-3.2111,-3.1902,-3.1615,-3.1248,-3.1065,-3.0986,-3.0986,-3.0986,-3.0986,-3.0986,-3.0986,-3.0986,-2.1956,-2.1983,0.0,-2.3745,-2.4093,-2.4668,-2.6902,0.0,0.0,0.0,0.0,0.0,0.0,0.0,0.0,0.0,0.0,0.0,0.0,0.0,0.0,0.0,0.0,0.0,0.0,0.0,0.0,0.0,0.0,0.0,0.0,0.0,0.0,0.0,0.0,0.0,0.0,0.0,0.0,0.0,-3.1888,-3.2064,-3.2416,-3.2629,-3.2855,-3.3124,-3.3124,-3.3124,-3.3124,-3.3124,-3.3124,-3.3124,-3.3124,-3.3124,-3.3124,-3.3124,-3.3124,-3.3124,-3.3124,-3.3124,-3.3124,-3.3124,-3.3124,-3.3124,-3.3124,-3.3124,-3.3237,-3.3878,-3.4578,-3.527,-3.5882,-3.6427,-3.6932,-3.7605,-3.7293,-3.6824,-3.6797,-3.692,-3.6867,-3.6423,-3.7181,-3.7678,-3.6946,-3.7416,-3.7573,-3.6606,-3.607,-3.5574,-3.5012,-3.4829,-3.4803,-3.4933,-3.4829,-3.4659,-3.441,-3.4397,-3.4397,-3.4397,-3.4397,-3.3731,-3.2202,-3.2137,-3.1901,-3.1339,-3.1104,-3.0986,-3.0986,-3.0986,-3.0986,-3.0986,-3.0986,-3.0986,-1.9802,-2.1266,-2.3062,-2.1985,-2.4422,0.0,-2.7152,-2.8057,-2.885,-2.8787,0.0,0.0,0.0,0.0,0.0,0.0,0.0,0.0,0.0,0.0,0.0,0.0,0.0,0.0,0.0,0.0,0.0,0.0,0.0,0.0,0.0,0.0,0.0,0.0,0.0,0.0,0.0,0.0,0.0,0.0,0.0,-3.1348,-3.1411,-3.1901,-3.2453,-3.3006,-3.3006,-3.3074,-3.3124,-3.3124,-3.3124,-3.3124,-3.3124,-3.3124,-3.3124,-3.3124,-3.3124,-3.3124,-3.3124,-3.3124,-3.3124,-3.3124,-3.3124,-3.3124,-3.3124,-3.3124,-3.3268,-3.3958,-3.4591,-3.5181,-3.5903,-3.6115,-3.6327,-3.7083,-3.689,-3.6722,-3.7515,-3.7273,-3.709,-3.7639,-3.7782,-3.7821,-3.7821,-3.7821,-3.7599,-3.6946,-3.5913,-3.5012,-3.4463,-3.4881,-3.5012,-3.4463,-3.4894,-3.4999,-3.445,-3.4397,-3.4397,-3.4397,-3.4397,-3.3888,-3.2738,-3.2685,-3.2398,-3.1732,-3.1248,-3.0986,-3.0986,-3.0986,-3.0986,-3.0986,-3.0986,-3.0986,-2.2252,-2.2097,0.0,0.0,-2.7042,-2.8907,-2.7899,-2.8969,-3.0,0.0,0.0,0.0,0.0,0.0,0.0,0.0,0.0,0.0,0.0,0.0,0.0,0.0,0.0,0.0,0.0,0.0,0.0,0.0,0.0,0.0,0.0,0.0,0.0,0.0,0.0,0.0,0.0,0.0,0.0,0.0,-3.0783,-3.0997,-3.1386,-3.1512,-3.1863,-3.2403,-3.2403,-3.2654,-3.3124,-3.3124,-3.3124,-3.3124,-3.3124,-3.3124,-3.3124,-3.3124,-3.3124,-3.3124,-3.3124,-3.3124,-3.3124,-3.3124,-3.3124,-3.3124,-3.3124,-3.3124,-3.3149,-3.3305,-3.3733,-3.4199,-3.4357,-3.4754,-3.5153,-3.5518,-3.5788,-3.5963,-3.5883,-3.6083,-3.6332,-3.6462,-3.6881,-3.7194,-3.7194,-3.7194,-3.6854,-3.5822,-3.5051,-3.4541,-3.441,-3.4515,-3.4541,-3.441,-3.4515,-3.4541,-3.441,-3.4397,-3.4397,-3.4397,-3.4397,-3.3888,-3.2738,-3.2685,-3.2215,-3.1196,-3.1052,-3.0986,-3.0986,-3.0986,-3.0986,-3.0986,-3.0986,-3.0986,-2.2414,0.0,0.0,-2.5794,0.0,-2.9082,-2.7976,-2.9022,0.0,0.0,0.0,0.0,0.0,0.0,0.0,0.0,0.0,0.0,0.0,0.0,0.0,0.0,0.0,0.0,0.0,0.0,0.0,0.0,0.0,0.0,0.0,0.0,0.0,0.0,0.0,0.0,-2.9792,-2.9792,-2.9942,-3.0218,-3.0218,-3.0369,-3.0645,-3.116,-3.1411,-3.1461,-3.1712,-3.1989,-3.2265,-3.2265,-3.2428,-3.2667,-3.2667,-3.283,-3.3124,-3.3124,-3.3124,-3.3124,-3.3124,-3.3124,-3.3124,-3.3124,-3.3124,-3.3124,-3.3124,-3.3124,-3.3124,-3.3124,-3.347,-3.3897,-3.3897,-3.411,-3.4368,-3.4591,-3.4944,-3.5283,-3.5475,-3.5618,-3.5796,-3.6057,-3.6358,-3.6567,-3.6567,-3.6358,-3.5979,-3.5391,-3.4789,-3.4397,-3.4397,-3.4397,-3.4397,-3.4397,-3.4397,-3.4397,-3.4397,-3.4397,-3.4397,-3.4397,-3.4397,-3.3888,-3.2738,-3.2685,-3.215,-3.0999,-3.0986,-3.0986,-3.0986,-3.0986,-3.0986,-3.0986,-3.0986,-3.0986,-2.2426,0.0,-2.6169,-2.619,-2.7419,0.0,-2.7723,-2.8557,0.0,0.0,0.0,0.0,0.0,0.0,0.0,0.0,0.0,0.0,0.0,0.0,0.0,0.0,0.0,0.0,0.0,0.0,0.0,0.0,0.0,0.0,0.0,0.0,0.0,0.0,0.0,0.0,-2.9503,-2.9691,-2.9741,-2.9641,-2.9741,-2.9792,-2.9829,-3.0708,-3.0934,-3.0633,-3.1072,-3.1298,-3.1386,-3.1386,-3.1662,-3.2077,-3.2077,-3.2416,-3.2918,-3.2817,-3.2948,-3.3056,-3.2855,-3.2855,-3.293,-3.293,-3.293,-3.2943,-3.3086,-3.3124,-3.3124,-3.3124,-3.3407,-3.3759,-3.3759,-3.3759,-3.3803,-3.3965,-3.4226,-3.4571,-3.5283,-3.5254,-3.5256,-3.5774,-3.5922,-3.5966,-3.5966,-3.5508,-3.5142,-3.5142,-3.4724,-3.4397,-3.4397,-3.4397,-3.4397,-3.4397,-3.4397,-3.4397,-3.4397,-3.4397,-3.4397,-3.4397,-3.4306,-3.3783,-3.2738,-3.2594,-3.2058,-3.0999,-3.0986,-3.0986,-3.0986,-3.0986,-3.0986,-3.0986,-3.0986,-3.0986,-2.4968,0.0,-2.58,0.0,-2.6276,-2.7458,0.0,0.0,0.0,0.0,0.0,0.0,0.0,0.0,0.0,0.0,0.0,0.0,0.0,0.0,0.0,0.0,0.0,0.0,0.0,0.0,0.0,0.0,0.0,0.0,0.0,0.0,0.0,0.0,0.0,0.0,-2.8348,-2.9302,-2.9541,-2.9013,-2.9553,-2.9792,-2.9792,-2.9942,-3.0231,-3.062,-3.0696,-3.0972,-3.1386,-3.1386,-3.1436,-3.1499,-3.1499,-3.1838,-3.2265,-3.1788,-3.2227,-3.2973,-3.1951,-3.1926,-3.2328,-3.2328,-3.2328,-3.2416,-3.2918,-3.3124,-3.3124,-3.3124,-3.3174,-3.3224,-3.3224,-3.3224,-3.3224,-3.3224,-3.3397,-3.3653,-3.393,-3.4104,-3.4403,-3.4973,-3.5262,-3.5404,-3.5404,-3.4907,-3.4515,-3.4515,-3.445,-3.4397,-3.4397,-3.4397,-3.4397,-3.4397,-3.4397,-3.4397,-3.4397,-3.4397,-3.4397,-3.4397,-3.3953,-3.3391,-3.2725,-3.2215,-3.1615,-3.0999,-3.0986,-3.0986,-3.0986,-3.0986,-3.0986,-3.0986,-3.0986,-3.0986,-2.5645,-2.5256,-2.4747,0.0,-2.4669,-2.5752,-2.5286,0.0,0.0,0.0,0.0,0.0,0.0,0.0,0.0,0.0,0.0,0.0,0.0,0.0,0.0,0.0,0.0,0.0,0.0,0.0,0.0,0.0,0.0,0.0,0.0,-2.7631,-2.7879,-2.8073,-2.8586,0.0,-2.8109,-2.8599,-2.8875,-2.89,-2.9515,-2.9792,-2.9792,-2.9792,-2.993,-3.0156,-3.0156,-3.0281,-3.0495,-3.0495,-3.0683,-3.0959,-3.0959,-3.1286,-3.1725,-3.1486,-3.17,-3.2064,-3.1562,-3.1549,-3.18,-3.2114,-3.2215,-3.2328,-3.2905,-3.3124,-3.3124,-3.3124,-3.3124,-3.3124,-3.3124,-3.3124,-3.3124,-3.3124,-3.3154,-3.3283,-3.3356,-3.3641,-3.3929,-3.4174,-3.431,-3.4451,-3.4591,-3.4412,-3.4285,-3.4397,-3.4397,-3.4397,-3.4397,-3.4397,-3.4397,-3.4397,-3.4397,-3.4397,-3.4397,-3.4397,-3.4397,-3.4397,-3.3888,-3.3326,-3.2712,-3.2111,-3.1536,-3.0999,-3.0986,-3.0986,-3.0986,-3.0986,-3.0986,-3.0986,-3.0986,-3.0986,0.0,0.0,-2.465,-2.2816,-2.3525,-2.4379,0.0,0.0,0.0,0.0,0.0,0.0,0.0,0.0,0.0,0.0,0.0,0.0,0.0,0.0,0.0,0.0,0.0,0.0,0.0,0.0,0.0,0.0,0.0,0.0,0.0,-2.6491,-2.6821,-2.7078,-2.7336,-2.7397,-2.7078,-2.7408,-2.7976,-2.8687,-2.9302,-2.9578,-2.9578,-2.9729,-2.9792,-2.9792,-2.9792,-2.9792,-2.9792,-2.9792,-3.003,-3.0407,-3.0407,-3.0721,-3.1173,-3.1035,-3.116,-3.1348,-3.1085,-3.1072,-3.126,-3.1675,-3.1813,-3.1938,-3.2641,-3.2855,-3.288,-3.3074,-3.3124,-3.3124,-3.3124,-3.3124,-3.3043,-3.2893,-3.2968,-3.3111,-3.324,-3.3471,-3.3713,-3.381,-3.381,-3.3852,-3.4076,-3.4118,-3.416,-3.4356,-3.4397,-3.4397,-3.4397,-3.4397,-3.4397,-3.4397,-3.4397,-3.4397,-3.4397,-3.4397,-3.4397,-3.4314,-3.3675,-3.3088,-3.2553,-3.185,-3.1265,-3.0836,-3.0836,-3.0911,-3.0986,-3.0986,-3.0986,-3.0986,-3.0986,-3.0986,0.0,-2.6356,0.0,-2.3357,-2.3403,0.0,0.0,0.0,0.0,0.0,0.0,0.0,0.0,0.0,0.0,0.0,0.0,0.0,0.0,0.0,0.0,0.0,0.0,0.0,0.0,0.0,0.0,0.0,0.0,0.0,-2.6069,-2.6117,-2.5562,-2.4357,-2.5367,-2.5402,-2.4309,-2.5575,-2.6846,-2.816,-2.8675,-2.8938,-2.895,-2.9541,-2.9792,-2.9792,-2.9792,-2.9792,-2.9792,-2.9792,-2.9817,-2.9829,-2.9829,-3.0168,-3.0595,-3.0068,-3.052,-3.1248,-3.0231,-3.0218,-3.0658,-3.0683,-3.0696,-3.0896,-3.1938,-3.2252,-3.2365,-3.2918,-3.3124,-3.3124,-3.3124,-3.3124,-3.2943,-3.239,-3.2679,-3.3197,-3.3598,-3.367,-3.3768,-3.4034,-3.4076,-3.4076,-3.4118,-3.4118,-3.416,-3.4356,-3.4397,-3.4397,-3.4397,-3.4397,-3.4397,-3.4397,-3.4397,-3.4397,-3.4397,-3.4397,-3.4314,-3.4118,-3.3081,-3.2352,-3.2126,-3.1048,-3.047,-3.0444,-3.0444,-3.0634,-3.0986,-3.0986,-3.0986,-3.0986,-3.0986,-3.0986,0.0,0.0,0.0,-2.3876,-2.3242,0.0,0.0,0.0,0.0,0.0,0.0,0.0,0.0,0.0,0.0,0.0,0.0,0.0,0.0,0.0,0.0,0.0,0.0,0.0,0.0,0.0,0.0,0.0,0.0,0.0,-2.3207,-2.3919,-2.4179,-2.3915,-2.459,-2.4945,-2.4862,-2.5684,-2.6602,-2.7582,-2.8134,-2.8398,-2.8411,-2.8612,-2.89,-2.9239,-2.9239,-2.9453,-2.9792,-2.9792,-2.9792,-2.9792,-2.9792,-2.9917,-3.0068,-2.9867,-3.003,-3.0319,-2.993,-2.993,-3.0143,-3.0507,-3.062,-3.0758,-3.1474,-3.1938,-3.2177,-3.2039,-3.2252,-3.2441,-3.2089,-3.2252,-3.2566,-3.2729,-3.293,-3.3154,-3.3441,-3.3398,-3.3356,-3.3454,-3.3454,-3.3496,-3.3611,-3.3654,-3.3738,-3.3937,-3.3937,-3.3937,-3.3937,-3.3937,-3.3937,-3.3937,-3.3937,-3.3937,-3.3937,-3.3937,-3.3937,-3.3852,-3.281,-3.232,-3.2611,-3.1215,-3.0573,-3.0894,-3.0586,-3.0482,-3.0596,-3.0596,-3.0596,-3.0634,-3.0761,-3.0811,-2.6925,0.0,0.0,0.0,0.0,0.0,0.0,0.0,0.0,0.0,0.0,0.0,0.0,0.0,0.0,0.0,0.0,0.0,0.0,0.0,0.0,0.0,0.0,0.0,0.0,0.0,0.0,0.0,0.0,0.0,-2.1629,-2.2324,-2.2718,-2.2661,-2.2949,-2.3514,-2.4283,-2.4669,-2.5433,-2.6639,-2.7161,-2.7567,-2.7833,-2.8021,-2.8411,-2.8888,-2.8888,-2.9252,-2.9792,-2.9792,-2.9792,-2.9792,-2.9792,-2.9792,-2.9792,-2.9792,-2.9792,-2.9792,-2.9792,-2.9792,-2.9854,-3.0218,-3.0331,-3.047,-3.1173,-3.165,-3.1938,-3.1951,-3.2215,-3.2365,-3.1813,-3.18,-3.2127,-3.2893,-3.293,-3.2885,-3.3232,-3.324,-3.3197,-3.3197,-3.3197,-3.324,-3.3398,-3.3398,-3.3471,-3.367,-3.3713,-3.3713,-3.3713,-3.3713,-3.3713,-3.3713,-3.3713,-3.3713,-3.3713,-3.3713,-3.367,-3.3598,-3.2605,-3.2118,-3.2406,-3.0979,-3.0368,-3.0738,-3.0381,-3.019,-3.019,-3.033,-3.0406,-3.0406,-3.0533,-3.0609,0.0,0.0,0.0,0.0,0.0,0.0,0.0,0.0,0.0,0.0,0.0,0.0,0.0,0.0,0.0,0.0,0.0,0.0,0.0,0.0,0.0,0.0,0.0,0.0,0.0,0.0,0.0,0.0,0.0,0.0,-2.154,-2.154,-2.1191,-2.0435,-2.04,-2.1012,-2.2283,-2.2294,-2.3293,-2.5252,-2.5781,-2.6444,-2.7281,-2.7772,-2.8324,-2.8838,-2.8838,-2.9214,-2.9767,-2.9779,-2.9792,-2.9792,-2.9792,-2.9792,-2.9792,-2.9792,-2.9792,-2.9792,-2.9792,-2.9792,-2.9792,-2.9792,-2.9792,-2.998,-3.1035,-3.1348,-3.1587,-3.2722,-3.3048,-3.2905,-3.2353,-3.1788,-3.165,-3.278,-3.2616,-3.2365,-3.293,-3.3227,-3.3398,-3.3398,-3.3398,-3.3398,-3.3398,-3.3398,-3.3484,-3.3641,-3.367,-3.367,-3.367,-3.367,-3.367,-3.367,-3.367,-3.367,-3.367,-3.367,-3.3586,-3.3373,-3.2387,-3.1683,-3.1427,-3.0369,-2.9804,-2.9817,-2.9804,-2.9792,-2.9792,-3.019,-3.0368,-3.0368,-3.0406,-3.0406,-2.817,0.0,0.0,0.0,0.0,0.0,0.0,0.0,0.0,0.0,0.0,0.0,0.0,0.0,0.0,0.0,0.0,0.0,0.0,0.0,0.0,0.0,0.0,0.0,0.0,0.0,0.0,0.0,0.0,-2.0133,-1.9796,-2.0234,-2.0564,-2.0672,-2.0683,-2.1047,-2.178,-2.213,-2.2863,-2.3933,-2.441,-2.5063,-2.586,-2.6006,-2.6695,-2.7733,-2.7733,-2.8285,-2.9202,-2.9616,-2.9792,-2.9792,-2.9792,-2.9792,-2.9792,-2.9792,-2.9792,-2.9792,-2.9792,-2.9792,-2.9792,-2.9792,-2.9792,-2.9854,-3.0143,-3.0507,-3.0821,-3.0721,-3.126,-3.1913,-3.2152,-3.1524,-3.1097,-3.219,-3.2328,-3.2252,-3.2416,-3.2822,-3.3197,-3.3197,-3.3197,-3.3197,-3.3197,-3.3197,-3.3197,-3.3283,-3.3283,-3.3283,-3.3283,-3.3283,-3.3283,-3.3283,-3.3283,-3.3283,-3.3283,-3.3283,-3.3063,-3.255,-3.1912,-3.148,-3.1386,-3.0369,-2.998,-3.0382,-2.9993,-2.9792,-2.9792,-2.9895,-2.9972,-2.9972,-3.0113,-3.0254,-2.8545,-2.867,-2.873,0.0,0.0,0.0,0.0,-2.2776,0.0,0.0,0.0,0.0,0.0,0.0,0.0,0.0,0.0,0.0,0.0,0.0,0.0,0.0,0.0,0.0,0.0,0.0,0.0,0.0,-1.8609,-1.8878,-1.8818,-1.9199,-1.9607,-2.0088,-2.0099,-2.0324,-2.0829,-2.1118,-2.1721,-2.2646,-2.3106,-2.3786,-2.4555,-2.472,-2.5362,-2.6348,-2.6348,-2.7017,-2.81,-2.8719,-2.9296,-2.9792,-2.9792,-2.9792,-2.9792,-2.9792,-2.9792,-2.9792,-2.9792,-2.9792,-2.9792,-2.9792,-2.9792,-2.9829,-3.0068,-3.0357,-3.0595,-3.0482,-3.0758,-3.1185,-3.1738,-3.1248,-3.0821,-3.1675,-3.1863,-3.1863,-3.1863,-3.2139,-3.2516,-3.3023,-3.3124,-3.3124,-3.3124,-3.3124,-3.3124,-3.3124,-3.3124,-3.3124,-3.3124,-3.3124,-3.3124,-3.3124,-3.3124,-3.3124,-3.3124,-3.2855,-3.2566,-3.2227,-3.1486,-3.1072,-3.1072,-3.0244,-2.9942,-3.0269,-2.9955,-2.9792,-2.9792,-2.9792,-2.9792,-2.9792,-2.9934,-3.0049,-2.88,-2.8988,-2.8988,0.0,0.0,0.0,-2.3374,-2.1773,0.0,0.0,0.0,0.0,0.0,0.0,0.0,0.0,0.0,0.0,0.0,0.0,0.0,0.0,0.0,0.0,0.0,0.0,0.0,-1.7626,-1.7668,-1.7874,-1.8288,-1.8309,-1.8495,-1.8942,-1.8953,-1.915,-1.9564,-1.9668,-2.0263,-2.1315,-2.1824,-2.2526,-2.3361,-2.3725,-2.4315,-2.5043,-2.5043,-2.5769,-2.699,-2.7512,-2.853,-2.9704,-2.9767,-2.9792,-2.9792,-2.9792,-2.9792,-2.9792,-2.9792,-2.9792,-2.9792,-2.9792,-2.9792,-2.988,-3.0382,-3.052,-3.0633,-3.116,-3.0922,-3.0658,-3.1235,-3.0959,-3.0658,-3.1173,-3.1298,-3.1298,-3.1298,-3.1348,-3.1687,-3.2692,-3.2893,-3.2893,-3.2893,-3.2893,-3.2893,-3.2893,-3.2893,-3.2948,-3.2968,-3.298,-3.3048,-3.3111,-3.3061,-3.298,-3.298,-3.2503,-3.2164,-3.2039,-3.1198,-3.0658,-3.0532,-3.0055,-2.9792,-2.9792,-2.9792,-2.9792,-2.9792,-2.9792,-2.9792,-2.9792,-2.9792,-2.9792,0.0,0.0,0.0,0.0,0.0,0.0,-2.7889,-2.6163,0.0,0.0,0.0,0.0,0.0,0.0,0.0,0.0,0.0,0.0,0.0,0.0,0.0,0.0,0.0,0.0,0.0,0.0,0.0,-1.7151,-1.7492,-1.774,-1.7823,-1.7833,-1.7874,-1.7957,-1.7957,-1.8008,-1.8091,-1.8847,-1.9341,-1.9613,-2.0408,-2.1389,-2.2557,-2.2609,-2.3595,-2.5242,-2.5242,-2.5972,-2.7217,-2.7365,-2.8075,-2.9101,-2.9616,-2.9792,-2.9792,-2.9792,-2.9792,-2.9792,-2.9792,-2.9792,-2.9792,-2.9792,-2.9792,-2.9817,-2.9917,-2.9955,-3.0068,-3.062,-3.0369,-3.0181,-3.1135,-3.067,-3.0093,-3.0633,-3.0771,-3.0771,-3.0771,-3.1097,-3.1461,-3.1675,-3.1712,-3.1712,-3.1712,-3.1712,-3.1712,-3.1712,-3.1712,-3.1888,-3.2328,-3.239,-3.2554,-3.3074,-3.2667,-3.239,-3.239,-3.2277,-3.1838,-3.0984,-3.1122,-3.0846,-2.9993,-2.9854,-2.9792,-2.9792,-2.9792,-2.9792,-2.9792,-2.9792,-2.9792,-2.9792,-2.9792,-2.9792,0.0,0.0,0.0,-2.9419,0.0,0.0,0.0,-2.6154,0.0,0.0,0.0,0.0,0.0,0.0,0.0,0.0,0.0,0.0,0.0,0.0,0.0,0.0,0.0,0.0,0.0,0.0,-1.6438,-1.6694,-1.6922,-1.715,-1.7347,-1.7358,-1.7461,-1.7699,-1.7699,-1.7802,-1.8061,-1.8538,-1.888,-1.9108,-1.9768,-2.046,-2.108,-2.1268,-2.2017,-2.3226,-2.3632,-2.4518,-2.5768,-2.6431,-2.7432,-2.8574,-2.9139,-2.9541,-2.9792,-2.9792,-2.9792,-2.9792,-2.9792,-2.9792,-2.9792,-2.9792,-2.9792,-2.9792,-2.9792,-2.9792,-2.9854,-3.0131,-3.0005,-2.9917,-3.0457,-3.0193,-2.9867,-3.0143,-3.0206,-3.0206,-3.0206,-3.0407,-3.0595,-3.0595,-3.0595,-3.0758,-3.1298,-3.1386,-3.1386,-3.1386,-3.1386,-3.1486,-3.1763,-3.18,-3.1913,-3.2202,-3.1976,-3.18,-3.18,-3.1574,-3.1185,-3.0645,-3.0595,-3.0357,-2.9817,-2.9792,-2.9792,-2.9792,-2.9792,-2.9792,-2.9792,-2.9792,-2.9792,-2.9792,-2.9792,-2.9792,0.0,0.0,0.0,0.0,0.0,-2.8276,0.0,0.0,0.0,0.0,0.0,0.0,0.0,0.0,0.0,0.0,0.0,0.0,0.0,0.0,0.0,0.0,0.0,0.0,0.0,0.0,0.0,-1.6392,-1.6738,-1.6896,-1.6882,-1.6882,-1.7058,-1.743,-1.744,-1.7647,-1.802,-1.8164,-1.8444,-1.8859,-1.9399,-1.971,-1.9803,-2.0131,-2.073,-2.1617,-2.2258,-2.3315,-2.4659,-2.5721,-2.6893,-2.8009,-2.8637,-2.9289,-2.9792,-2.9792,-2.9792,-2.9792,-2.9792,-2.9792,-2.9792,-2.9792,-2.9792,-2.9792,-2.9792,-2.9792,-2.9792,-2.9792,-2.9792,-2.9792,-2.9792,-2.9792,-2.9792,-2.9792,-2.9792,-2.9792,-2.9792,-2.9792,-2.9792,-2.9792,-2.9792,-3.0068,-3.0934,-3.1085,-3.1085,-3.1085,-3.1085,-3.1122,-3.1223,-3.1248,-3.1286,-3.1386,-3.1298,-3.1248,-3.1248,-3.0859,-3.057,-3.047,-3.0143,-2.9905,-2.9792,-2.9792,-2.9792,-2.9792,-2.9792,-2.9792,-2.9792,-2.9792,-2.9792,-2.9792,-2.9792,-2.9792,0.0,0.0,0.0,0.0,-2.8831,0.0,0.0,0.0,0.0,0.0,0.0,0.0,0.0,0.0,0.0,0.0,0.0,0.0,0.0,0.0,0.0,0.0,0.0,0.0,0.0,0.0,0.0,0.0,-1.7887,-1.8097,-1.6547,-1.6485,-1.6477,-1.6558,-1.6558,-1.656,-1.663,-1.7409,-1.7802,-1.7864,-1.8744,-1.9399,-1.9793,-1.9855,-2.1094,-2.3244,-2.3315,-2.4447,-2.6245,-2.6377,-2.6809,-2.7482,-2.8487,-2.9289,-2.9792,-2.9792,-2.9792,-2.9792,-2.9792,-2.9792,-2.9792,-2.9792,-2.9792,-2.9792,-2.9792,-2.9792,-2.9792,-2.9792,-2.9792,-2.9792,-2.9792,-2.9792,-2.9792,-2.9792,-2.9792,-2.9792,-2.9792,-2.9792,-2.9792,-2.9792,-2.9792,-2.9829,-2.9955,-2.998,-2.998,-2.998,-2.998,-3.0143,-3.0645,-3.0708,-3.0884,-3.1336,-3.0972,-3.0708,-3.0708,-3.0658,-3.0407,-2.9917,-3.0281,-3.0306,-2.9817,-2.9792,-2.9792,-2.9792,-2.9792,-2.9792,-2.9792,-2.9792,-2.9792,-2.9792,-2.9792,-2.9792,0.0,0.0,0.0,0.0,0.0,0.0,0.0,0.0,-2.8351,0.0,0.0,0.0,0.0,0.0,0.0,0.0,0.0,0.0,0.0,0.0,0.0,0.0,0.0,0.0,0.0,0.0,0.0,0.0,0.0,-1.683,-1.6423,-1.6413,-1.6413,-1.6413,-1.6413,-1.6508,-1.6757,-1.711,-1.7564,-1.8112,-1.8528,-1.8942,-1.9388,-1.9388,-2.0117,-2.1405,-2.2605,-2.3722,-2.4867,-2.6005,-2.6826,-2.7331,-2.7795,-2.8511,-2.934,-2.9666,-2.9792,-2.9792,-2.9792,-2.9792,-2.9792,-2.9792,-2.9792,-2.9792,-2.9792,-2.9792,-2.9792,-2.9792,-2.9792,-2.9792,-2.9792,-2.9792,-2.9792,-2.9792,-2.9792,-2.9792,-2.9792,-2.9792,-2.9792,-2.9792,-2.9792,-2.9792,-2.9792,-2.9792,-2.9792,-2.9792,-2.9792,-2.988,-3.0105,-3.0143,-3.0218,-3.0444,-3.0269,-3.0143,-3.0143,-3.0143,-3.0043,-2.9804,-3.0005,-3.003,-2.9804,-2.9792,-2.9792,-2.9792,-2.9792,-2.9792,-2.9792,-2.9792,-2.9792,-2.9792,-2.9792,-2.9792,-2.7234,0.0,0.0,0.0,0.0,0.0,0.0,0.0,0.0,0.0,0.0,0.0,0.0,0.0,0.0,0.0,0.0,0.0,0.0,0.0,0.0,0.0,0.0,0.0,0.0,0.0,0.0,0.0,0.0,0.0,-1.6216,-1.634,-1.6413,-1.6413,-1.6413,-1.6539,-1.6831,-1.6955,-1.7399,-1.8206,-1.8351,-1.8652,-1.9108,-1.9108,-1.9481,-2.0181,-2.1765,-2.2983,-2.3909,-2.5514,-2.6517,-2.7102,-2.7218,-2.777,-2.8561,-2.9289,-2.9553,-2.9578,-2.9741,-2.9792,-2.9792,-2.9792,-2.9792,-2.9792,-2.9792,-2.9792,-2.9792,-2.9792,-2.9792,-2.9792,-2.9792,-2.9792,-2.9792,-2.9792,-2.9792,-2.9792,-2.9792,-2.9792,-2.9792,-2.9792,-2.9792,-2.9792,-2.9792,-2.9792,-2.9792,-2.9792,-2.9792,-2.9792,-2.9792,-2.9792,-2.9792,-2.9792,-2.9792,-2.9792,-2.9792,-2.9792,-2.9792,-2.9792,-2.9792,-2.9792,-2.9792,-2.9792,-2.9792,-2.9792,-2.9792,-2.9792,-2.9792,-2.9792,-2.9792,-2.9792,-2.9792,-2.9792,0.0,0.0,0.0,-2.7656,0.0,0.0,0.0,0.0,-2.6353,0.0,0.0,0.0,0.0,0.0,-2.5743,-2.577,-2.5349,0.0,0.0,0.0,0.0,0.0,0.0,0.0,0.0,0.0,0.0,0.0,-1.7901,0.0,-1.5801,-1.6164,-1.6413,-1.6413,-1.6413,-1.6413,-1.6433,-1.68,-1.7254,-1.773,-1.8175,-1.8652,-1.9108,-1.9108,-1.9749,-2.0906,-2.1399,-2.2742,-2.4623,-2.5118,-2.5828,-2.6575,-2.7115,-2.7306,-2.7469,-2.8561,-2.8913,-2.9001,-2.9591,-2.9792,-2.9792,-2.9792,-2.9792,-2.9792,-2.9792,-2.9792,-2.9792,-2.9792,-2.9792,-2.9792,-2.9792,-2.9792,-2.9792,-2.9792,-2.9792,-2.9792,-2.9792,-2.9792,-2.9792,-2.9792,-2.9792,-2.9792,-2.9792,-2.9792,-2.9792,-2.9792,-2.9792,-2.9792,-2.9792,-2.9792,-2.9792,-2.9792,-2.9792,-2.9792,-2.9792,-2.9792,-2.9792,-2.9792,-2.9792,-2.9792,-2.9792,-2.9792,-2.9792,-2.9792,-2.9792,-2.9792,-2.9792,-2.9792,-2.9792,-2.9792,-2.9792,-2.9792,0.0,0.0,-2.1625,-2.5125,0.0,0.0,0.0,0.0,0.0,0.0,0.0,0.0,0.0,-2.5577,-2.5347,-2.4891,-2.4732,-2.4617,0.0,0.0,0.0,0.0,0.0,0.0,0.0,0.0,0.0,-1.7195,-1.6325,0.0,0.0,-1.6153,-1.6413,-1.6413,-1.6413,-1.6413,-1.6413,-1.6529,-1.6984,-1.7699,-1.7854,-1.835,-1.9108,-1.9108,-1.9314,-1.9771,-2.1062,-2.1973,-2.2707,-2.4001,-2.4969,-2.5676,-2.5302,-2.5849,-2.6901,-2.7971,-2.8386,-2.8461,-2.9026,-2.9478,-2.9792,-2.9792,-2.9792,-2.9792,-2.9792,-2.9792,-2.9792,-2.9792,-2.9792,-2.9792,-2.9792,-2.9792,-2.9792,-2.9792,-2.9792,-2.9792,-2.9792,-2.9792,-2.9792,-2.9792,-2.9792,-2.9792,-2.9792,-2.9792,-2.9792,-2.9792,-2.9792,-2.9792,-2.9792,-2.9792,-2.9792,-2.9792,-2.9792,-2.9792,-2.9792,-2.9792,-2.9792,-2.9792,-2.9792,-2.9792,-2.9792,-2.9792,-2.9792,-2.9792,-2.9792,-2.9792,-2.9792,-2.9792,-2.9792,-2.9792,-2.9792,-2.9792,-2.0794,-1.9951,0.0,0.0,-2.2584,0.0,-2.4946,0.0,0.0,0.0,0.0,0.0,0.0,0.0,-2.437,-2.3475,-2.3653,-2.3913,0.0,-2.3962,0.0,0.0,0.0,0.0,0.0,0.0,-1.7499,-1.6671,-1.5793,-1.5317,0.0,0.0,-1.618,-1.6402,-1.6413,-1.6413,-1.6413,-1.6413,-1.6839,-1.7699,-1.7699,-1.8206,-1.9108,-1.9108,-1.9108,-1.9183,-2.0413,-2.1211,-2.1708,-2.2954,-2.4007,-2.4826,-2.4301,-2.5028,-2.6431,-2.7136,-2.7791,-2.8473,-2.9038,-2.9478,-2.9792,-2.9792,-2.9792,-2.9792,-2.9792,-2.9792,-2.9829,-3.003,-2.9942,-2.9829,-3.003,-2.9942,-2.9792,-2.9792,-2.9792,-2.9792,-2.9792,-2.9792,-2.9792,-2.9792,-2.9792,-2.9792,-2.9792,-2.9792,-2.9792,-2.9792,-2.9792,-2.9792,-2.9792,-2.9792,-2.9792,-2.9792,-2.9792,-2.9792,-2.9792,-2.9792,-2.9792,-2.9792,-2.9792,-2.9792,-2.9792,-2.9792,-2.988,-3.008,-2.9892,-2.9892,-3.008,-2.9892,-2.9792,-2.9792,-2.9792,-2.9792]}]]